[[{"header":{"parameterUnit":"m.s-1","parameterCategory":1,"la1":31.0,"la2":29.5877,"lo1":-88.7671,"lo2":-86.6584,"dy":0.0162,"dx":0.0185,"nx":115,"ny":88,"refTime":"2023-05-17T06:00:00:Z","depth":0,"parameterNumber":2,"parameterNumberName":"U-component_of_WINDS"},"data":[0.0,0.0,0.0,0.0,0.0,0.0,0.0,0.0,0.0,0.0,0.0,0.0,0.0,0.0,0.0,0.0,0.0,0.0,0.0,0.0,0.0,0.0,0.0,0.0,0.0,0.0,0.0,0.0,0.0,0.0,0.0,0.0,0.0,0.0,0.0,0.0,0.0,0.0,0.0,0.0,0.0,0.0,0.0,0.0,0.0,0.0,0.0,0.0,0.0,0.0,0.0,0.0,0.0,0.0,0.0,0.0,0.0,0.0,0.0,0.0,0.0,0.0,0.0,0.0,0.0,0.0,0.0,0.0,0.0,0.0,0.0,0.0,0.0,0.0,0.0,0.0,0.0,0.0,0.0,0.0,0.0,0.0,0.0,0.0,0.0,0.0,0.0,0.0,0.0,0.0,0.0,0.0,0.0,0.0,0.0,0.0,0.0,0.0,0.0,0.0,0.0,0.0,0.0,0.0,0.0,0.0,0.0,0.0,0.0,0.0,0.0,0.0,0.0,0.0,0.0,0.0,0.0,0.0,0.0,0.0,0.0,0.0,0.0,0.0,0.0,0.0,0.0,0.0,0.0,0.0,0.0,0.0,0.0,0.0,0.0,0.0,0.0,0.0,0.0,0.0,0.0,0.0,0.0,0.0,0.0,0.0,0.0,0.0,0.0,0.0,0.0,0.0,0.0,0.0,0.0,0.0,0.0,0.0,0.0,0.0,0.0,0.0,0.0,0.0,0.0,0.0,0.0,0.0,0.0,0.0,0.0,0.0,0.0,0.0,0.0,0.0,0.0,0.0,0.0,0.0,0.0,0.0,0.0,0.0,0.0,0.0,0.0,0.0,0.0,0.0,0.0,0.0,0.0,0.0,0.0,0.0,0.0,0.0,0.0,0.0,0.0,0.0,0.0,0.0,0.0,0.0,0.0,0.0,0.0,0.0,0.0,0.0,0.0,0.0,0.0,0.0,0.0,0.0,0.0,0.0,0.0,0.0,0.0,0.0,0.0,0.0,0.0,0.0,0.0,0.0,0.0,0.0,0.0,0.0,0.0,0.0,0.0,0.0,0.0,0.0,0.0,0.0,0.0,0.0,0.0,0.0,0.0,0.0,0.0,0.0,0.0,0.0,0.0,0.0,0.0,0.0,0.0,0.0,0.0,0.0,0.0,0.0,0.0,0.0,0.0,0.0,0.0,0.0,0.0,0.0,0.0,0.0,0.0,0.0,0.0,0.0,0.0,0.0,0.0,0.0,0.0,0.0,0.0,0.0,0.0,0.0,0.0,0.0,0.0,0.0,0.0,0.0,0.0,0.0,0.0,0.0,0.0,0.0,0.0,0.0,0.0,0.0,0.0,0.0,0.0,0.0,0.0,0.0,0.0,0.0,0.0,0.0,0.0,0.0,0.0,0.0,0.0,0.0,0.0,0.0,0.0,0.0,0.0,0.0,0.0,0.0,0.0,0.0,0.0,0.0,0.0,0.0,0.0,0.0,0.0,0.0,0.0,0.0,0.0,0.0,0.0,0.0,0.0,0.0,0.0,0.0,0.0,0.0,0.0,0.0,0.0,0.0,0.0,0.0,0.0,0.0,0.0,0.0,0.0,0.0,0.0,0.0,0.0,0.0,0.0,0.0,0.0,0.0,0.0,0.0,0.0,0.0,0.0,0.0,0.0,0.0,0.0,0.0,0.0,0.0,0.0,0.0,0.0,0.0,0.0,0.0,0.0,0.0,0.0,0.0,0.0,0.0,0.0,0.0,0.0,0.0,0.0,0.0,0.0,0.0,0.0,0.0,0.0,0.0,0.0,0.0,0.0,0.0,0.0,0.0,0.0,0.0,0.0,0.0,0.0,0.0,0.0,0.0,0.0,0.0,0.0,0.0,0.0,0.0,0.0,0.0,0.0,0.0,0.0,0.0,0.0,0.0,0.0,0.0,0.0,0.0,0.0,0.0,0.0,0.0,0.0,0.0,0.0,0.0,0.0,0.0,0.0,0.0,0.0,0.0,0.0,0.0,0.0,0.0,0.0,0.0,0.0,0.0,0.0,0.0,0.0,0.0,0.0,0.0,0.0,0.0,0.0,0.0,0.0,0.0,0.0,0.0,0.0,0.0,0.0,0.0,0.0,0.0,0.0,0.0,0.0,0.0,0.0,0.0,0.0,0.0,0.0,0.0,0.0,0.0,0.0,0.0,0.0,0.0,0.0,0.0,0.0,0.0,0.0,0.0,0.0,0.0,0.0,0.0,0.0,0.0,0.0,0.0,0.0,0.0,0.0,0.0,0.0,0.0,0.0,0.0,0.0,0.0,0.0,0.0,0.0,0.0,0.0,0.0,0.0,0.0,0.0,0.0,0.0,0.0,0.0,0.0,0.0,0.0,0.0,0.0,0.0,0.0,0.0,0.0,0.0,0.0,0.0,0.0,0.0,0.0,0.0,0.0,0.0,0.0,0.0,0.0,0.0,0.0,0.0,0.0,0.0,0.0,0.0,0.0,0.0,0.0,0.0,0.0,0.0,0.0,0.0,0.0,0.0,0.0,0.0,0.0,0.0,0.0,0.0,0.0,0.0,0.0,0.0,0.0,0.0,0.0,0.0,0.0,0.0,0.0,0.0,0.0,0.0,0.0,0.0,0.0,0.0,0.0,0.0,0.0,0.0,0.0,0.0,0.0,0.0,0.0,0.0,0.0,0.0,0.0,0.0,0.0,0.0,0.0,0.0,0.0,0.0,0.0,0.0,0.0,0.0,0.0,0.0,0.0,0.0,0.0,0.0,0.0,0.0,0.0,0.0,0.0,0.0,0.0,0.0,0.0,0.0,0.0,0.0,0.0,0.0,0.0,0.0,0.0,0.0,0.0,0.0,0.0,0.0,0.0,0.0,0.0,0.0,0.0,0.0,0.0,0.0,0.0,0.0,0.0,0.0,0.0,0.0,0.0,0.0,0.0,0.0,0.0,0.0,0.0,0.0,0.0,0.0,0.0,0.0,0.0,0.0,0.0,0.0,0.0,0.0,0.0,0.0,0.0,0.0,0.0,0.0,0.0,0.0,0.0,0.0,0.0,0.0,0.0,0.0,0.0,0.0,0.0,0.0,0.0,0.0,0.0,0.0,0.0,0.0,0.0,0.0,0.0,0.0,0.0,0.0,0.0,0.0,0.0,0.0,0.0,0.0,0.0,0.0,0.0,0.0,0.0,0.0,0.0,0.0,0.0,0.0,0.0,0.0,0.0,0.0,0.0,0.0,0.0,0.0,0.0,0.0,0.0,0.0,0.0,0.0,0.0,0.0,0.0,0.0,0.0,0.0,0.0,0.0,0.0,0.0,0.0,0.0,0.0,0.0,0.0,0.0,0.0,0.0,0.0,0.0,0.0,0.0,0.0,0.0,0.0,0.0,0.0,0.0,0.0,0.0,0.0,0.0,0.0,0.0,0.0,0.0,0.0,0.0,0.0,0.0,0.0,0.0,0.0,0.0,0.0,0.0,0.0,0.0,0.0,0.0,0.0,0.0,0.0,0.0,0.0,0.0,0.0,0.0,0.0,0.0,0.0,0.0,0.0,0.0,0.0,0.0,0.0,0.0,0.0,0.0,0.0,0.0,0.0,0.0,0.0,0.0,0.0,0.0,0.0,0.0,0.0,0.0,0.0,0.0,0.0,0.0,0.0,0.0,0.0,0.0,0.0,0.0,0.0,0.0,0.0,0.0,0.0,0.0,0.0,0.0,0.0,0.0,0.0,0.0,0.0,0.0,0.0,0.0,0.0,0.0,0.0,0.0,0.0,0.0,0.0,0.0,0.0,0.0,0.0,0.0,0.0,0.0,0.0,0.0,0.0,0.0,0.0,0.0,0.0,0.0,0.0,0.0,0.0,0.0,0.0,0.0,0.0,0.0,0.0,0.0,0.0,0.0,0.0,0.0,0.0,0.0,0.0,0.0,0.0,0.0,0.0,0.0,0.0,0.0,0.0,0.0,0.0,0.0,0.0,0.0,0.0,0.0,0.0,0.0,0.0,0.0,0.0,0.0,0.0,0.0,0.0,0.0,0.0,0.0,0.0,0.0,0.0,0.0,0.0,0.0,0.0,0.0,0.0,0.0,0.0,0.0,0.0,0.0,0.0,0.0,0.0,0.0,0.0,0.0,0.0,0.0,0.0,0.0,0.0,0.0,0.0,0.0,0.0,0.0,0.0,0.0,0.0,0.0,0.0,0.0,0.0,0.0,0.0,0.0,0.0,0.0,0.0,0.0,0.0,0.0,0.0,0.0,0.0,0.0,0.0,0.0,0.0,0.0,0.0,-0.2083,0.0,0.0,0.0,0.0,0.0,0.0,0.0,0.0,0.0,0.0,0.0,0.0,0.0,0.0,0.0,0.0,0.0,0.0,0.0,0.0,0.0,0.0,0.0,0.0,0.0,0.0,0.0,0.0,0.0,0.0,0.0,0.0,0.0,0.0,0.0,0.0,0.0,0.0,0.0,0.0,0.0,0.0,0.0,0.0,0.0,0.0,0.0,0.0,0.0,0.0,0.0,0.0,0.0,0.0,0.0,0.0,0.0,0.0,0.0,0.0,0.0,0.0,0.0,0.0,0.0,0.0,0.0,0.0,0.0,0.0,0.0,0.0,0.0,0.0,0.0,0.0,0.0,0.0,0.0,0.0,0.0,0.0,0.0,0.0,0.0,0.0,0.0,0.0,0.0,0.0,0.0,0.0,0.0,0.0,0.0,0.0,0.0,0.0,0.0,0.0,0.0,0.0,0.0,0.0,0.0,0.0,0.0,0.0,0.0,0.0,-0.138,-0.1579,-0.1546,-0.1623,-0.1818,0.0,0.0,0.0,0.0,0.0,0.0,0.0,0.0,0.0,0.0,0.0,0.0,0.0,0.0,0.0,0.0,0.0,0.0,0.0,0.0,0.0,0.0,0.0,0.0,0.0,0.0,0.0,0.0,0.0,0.0,0.0,0.0,0.0,0.0,0.0,0.0,0.0,0.0,0.0,0.0,0.0,0.0,0.0,0.0,0.0,0.0,0.0,0.0,0.0,0.0,0.0,0.0,0.0,0.0,0.0,0.0,0.0,0.0,0.0,0.0,0.0,0.0,0.0,0.0,0.0,0.0,0.0,0.0,0.0,0.0,0.0,0.0,0.0,0.0,0.0,0.0,0.0,0.0,0.0,0.0,0.0,0.0,0.0,0.0,0.0,0.0,0.0,0.0,0.0,0.0,0.0,0.0,0.0,0.0,0.0,0.0,0.0,0.0,0.0,0.0,0.0,0.0,0.0,0.0,0.0,0.0,0.0,0.0,0.0,0.0,0.0,0.0,-0.1357,-0.1348,-0.1495,0.0,0.0,0.0,0.0,0.0,0.0,0.0,0.0,0.0,0.0,0.0,0.0,0.0,0.0,0.0,0.0,0.0,0.0,0.0,0.0,0.0,0.0,0.0,0.0,0.0,0.0,0.0,0.0,0.0,0.0,0.0,0.0,0.0,0.0,0.0,0.0,0.0,0.0,0.0,0.0,0.0,0.0,0.0,0.0,0.0,0.0,0.0,0.0,0.0,0.0,0.0,0.0,0.0,0.0,0.0,0.0,0.0,0.0,0.0,0.0,0.0,0.0,0.0,0.0,0.0,0.0,0.0,0.0,0.0,0.0,0.0,0.0,0.0,0.0,0.0,0.0,0.0,0.0,0.0,0.0,0.0,0.0,0.0,0.0,0.0,0.0,0.0,0.0,0.0,0.0,0.0,0.0,0.0,0.0,0.0,0.0,0.0,0.0,0.0,0.0,0.0,0.0,0.0,0.0,0.0,0.0,0.0,0.0,0.0,0.0,-0.1172,-0.1301,-0.1072,0.0,-0.1126,0.0,0.0,0.0,0.0,0.0,0.0,0.0,0.0,0.0,0.0,0.0,0.0,0.0,0.0,0.0,0.0,0.0,0.0,0.0,0.0,0.0,0.0,0.0,0.0,0.0,0.0,0.0,0.0,0.0,0.0,0.0,0.0,0.0,0.0,0.0,0.0,0.0,0.0,0.0,0.0,0.0,0.0,0.0,0.0,0.0,0.0,0.0,0.0,0.0,0.0,0.0,0.0,0.0,0.0,0.0,0.0,0.0,0.0,0.0,0.0,0.0,0.0,0.0,0.0,0.0,0.0,0.0,0.0,0.0,0.0,0.0,0.0,0.0,0.0,0.0,0.0,0.0,0.0,0.0,0.0,0.0,0.0,0.0,0.0,0.0,0.0,0.0,0.0,0.0,0.0,0.0,0.0,0.0,0.0,0.0,0.0,0.0,0.0,0.0,0.0,0.0,0.0,0.0,0.0,0.0,0.0,0.0,0.0,0.0,0.0,-0.0816,-0.1009,-0.0421,-0.0249,0.0,0.0,0.0,0.0,0.0,0.0,0.0,0.0,0.0,0.0,0.0,0.0,0.0,0.0,0.0,0.0,0.0,0.0,0.0,0.0,0.0,0.0,0.0,0.0,0.0,0.0,0.0,0.0,0.0,0.0,0.0,0.0,0.0,0.0,0.0,0.0,0.0,0.0,0.0,0.0,0.0,0.0,0.0,0.0,0.0,0.0,0.0,0.0,0.0,0.0,0.0,0.0,0.0,0.0,0.0,0.0,0.0,0.0,0.0,0.0,0.0,0.0,0.0,0.0,0.0,0.0,0.0,0.0,0.0,0.0,0.0,0.0,0.0,0.0,0.0,0.0,0.0,0.0,0.0,0.0,0.0,0.0,0.0,0.0,0.0,0.0,0.0,0.0,0.0,0.0,0.0,0.0,0.0,0.0,0.0,0.0,0.0,0.0,0.0,0.0,0.0,0.0,0.0,0.0,0.0,0.0,0.0,0.0,0.0,0.0,-0.0069,-0.0413,-0.0585,-0.0,0.0145,-0.0297,0.0,0.0,0.0,0.0,0.0,0.0,0.0,0.0,0.0,0.0,0.0,0.0,0.0,0.0,0.0,0.0,0.0,0.0,0.0,0.0,0.0,0.0,0.0,0.0,0.0,0.0,0.0,0.0,0.0,0.0,0.0,0.0,0.0,0.0,0.0,0.0,0.0,0.0,0.0,0.0,0.0,0.0,0.0,0.0,0.0,0.0,0.0,0.0,0.0,0.0,0.0,0.0,0.0,0.0,0.0,0.0,0.0,0.0,0.0,0.0,0.0,0.0,0.0,0.0,0.0,0.0,0.0,0.0,0.0,0.0,0.0,0.0,0.0,0.0,0.0,0.0,0.0,0.0,0.0,0.0,0.0,0.0,0.0,0.0,0.0,0.0,0.0,0.0,0.0,0.0,0.0,0.0,0.0,0.0,0.0,0.0,0.0,0.0,0.0,0.0,0.0,0.0,0.0,0.0,0.0,0.0,0.0,0.0,0.0582,0.0335,0.0036,-0.0218,-0.0069,-0.0177,0.0,0.0,0.0,0.0,0.0,0.0,0.0,0.0,0.0,0.0,0.0,0.0,0.0,0.0,0.0,0.0,0.0,0.0,0.0,0.0,0.0,0.0,0.0,0.0,0.0,0.0,0.0,0.0,0.0,0.0,0.0,0.0,0.0,0.0,0.0,0.0,0.0,0.0,0.0,0.0,0.0,0.0,0.0,0.0,0.0,0.0,0.0,0.0,0.0,0.0,0.0,0.0,0.0,0.0,0.0,0.0,0.0,0.0,0.0,0.0,0.0,0.0,0.0,0.0,0.0,0.0,0.0,0.0,0.0,0.0,0.0,0.0,0.0,0.0,0.0,0.0,0.0,0.0,0.0,0.0,0.0,0.0,0.0,0.0,0.0,0.0,0.0,0.0,0.0,0.0,0.0,0.0,0.0,0.0,0.0,0.0,0.0,0.0,0.0,0.0,0.0,0.0,0.0,0.0,0.0,0.0,0.0,0.0,0.0,0.1057,0.0657,0.0191,-0.0306,-0.0075,-0.0038,0.0,0.0,0.0,0.0,0.0,0.0,0.0,0.0,0.0,0.0,0.0,0.0,0.0,0.0,0.0,0.0,0.0,0.0,0.0,0.0,0.0,0.0,0.0,0.0,0.0,0.0,0.0,0.0,0.0,0.0,0.0,0.0,0.0,0.0,0.0,0.0,0.0,0.0,0.0,0.0,0.0,0.0,0.0,0.0,0.0,0.0,0.0,0.0,0.0,0.0,0.0,0.0,0.0,0.0,0.0,0.0,0.0,0.0,0.0,0.0,0.0,0.0,0.0,0.0,0.0,0.0,0.0,0.0,0.0,0.0,0.0,0.0,0.0,0.0,0.0,0.0,0.0,0.0,0.0,0.0,0.0,0.0,0.0,0.0,0.0,0.0,0.0,0.0,0.0,0.0,0.0,0.0,0.0,0.0,0.0,0.0,0.0,0.0,0.0,0.0,0.0,0.0,0.0,0.0,0.0,0.0,0.0,0.0,0.0,0.1203,0.0,0.0633,-0.008,-0.0158,-0.0158,0.0,0.0,0.0,0.0,0.0,0.0,0.0,0.0,0.0,0.0,0.0,0.0,0.0,0.0,0.0,0.0,0.0,0.0,0.0,0.0,0.0,0.0,0.0,0.0,0.0,0.0,0.0,0.0,0.0,0.0,0.0,0.0,0.0,0.0,0.0,0.0,0.0,0.0,0.0,0.0,0.0,0.0,0.0,0.0,0.0,0.0,0.0,0.0,0.0,0.0,0.0,0.0,0.0,0.0,0.0,0.0,0.0,0.0,0.0,0.0,0.0,0.0,0.0,0.0,0.0,0.0,0.0,0.0,0.0,0.0,0.0,0.0,0.0,0.0,0.0,0.0,0.0,0.0,0.0,0.0,0.0,0.0,0.0,0.0,0.0,0.0,0.0,0.0,0.0,0.0,0.0,0.0,0.0,0.0,0.0,0.0,0.0,0.0,0.0,0.0,0.0,0.0,0.0,0.0,0.0,0.0,0.0,0.0,0.1564,0.1048,0.1491,0.1326,0.0504,-0.0242,-0.0604,0.0,0.0,0.0,0.0,0.0,0.0,0.0,0.0,0.0,0.0,0.0,0.0,0.0,0.0,0.0,0.0,0.0,0.0,0.0,0.0,0.0,0.0,0.0,0.0,0.0,0.0,0.0,0.0,0.0,0.0,0.0,0.0,0.0,0.0,0.0,0.0,0.0,0.0,0.0,0.0,0.0,0.0,0.0,0.0,0.0,0.0,0.0,0.0,0.0,0.0,0.0,0.0,0.0,0.0,0.0,0.0,0.0,0.0,0.0,0.0,0.0,0.0,0.0,0.0,0.0,0.0,0.0,0.0,0.0,0.0,0.0,0.0,0.0,0.0,0.0,0.0,0.0,0.0,0.0,0.0,0.0,0.0,0.0,0.0,0.0,0.0,0.0,0.0,0.0,0.0,0.0,0.0,0.0,0.0,0.0,0.0,0.0,0.0,0.0,0.0,0.0,0.0,0.0,0.0,0.0,0.0,0.0,0.0,0.0,0.1442,0.1545,0.1326,0.0796,0.0581,0.0253,0.0,0.0,0.0,0.0,0.0,0.0,0.0,0.0,0.0,0.0,0.0,0.0,0.0,0.0,0.0,0.0,0.0,0.0,0.0,0.0,0.0,0.0,0.0,0.0,0.0,0.0,0.0,0.0,0.0,0.0,0.0,0.0,0.0,0.0,0.0,0.0,0.0,0.0,0.0,0.0,0.0,0.0,0.0,0.0,0.0,0.0,0.0,0.0,0.0,0.0,0.0,0.0,0.0,0.0,0.0,0.0,0.0,0.0,0.0,0.0,0.0,0.0,0.0,0.0,0.0,0.0,0.0,0.0,0.0,0.0,0.0,0.0,0.0,0.0,0.0,0.0,0.0,0.0,0.0,0.0,0.0,0.0,0.0,0.0,0.0,0.0,0.0,0.0,0.0,0.0,0.0,0.0,0.0,0.0,0.0,0.0,0.0,0.0,0.0,0.0,0.0,0.0,0.0,0.0,0.0,0.0,0.0,0.0,0.0,0.1243,0.0987,0.093,0.0987,0.0603,0.0347,0.0307,0.0,0.0,0.0,0.0,0.0,0.0,0.0,0.0,0.0,0.0,0.0,0.0,0.0,0.0,0.0,0.0,0.0,0.0,0.0,0.0,0.0,0.0,0.0,0.0,0.0,0.0,0.0,0.0,0.0,0.0,0.0,0.0,0.0,0.0,0.0,0.0,0.0,0.0,0.0,0.0,0.0,0.0,0.0,0.0,0.0,0.0,0.0,0.0,0.0,0.0,0.0,0.0,0.0,0.0,0.0,0.0,0.0,0.0,0.0,0.0,0.0,0.0,0.0,0.0,0.0,0.0,0.0,0.0,0.0,0.0,0.0,0.0,0.0,0.0,0.0,0.0,0.0,0.0,0.0,0.0,0.0,0.0,0.0,0.0,0.0,0.0,0.0,0.0,0.0,0.0,0.0,0.0,0.0,0.0,0.0,0.0,0.0,0.0,0.0,0.0,0.0,0.0,0.0,0.0,0.0,0.0,0.0,0.0,0.0544,-0.0,0.0164,0.1025,-0.0045,-0.0132,0.0,0.0,0.0,0.0,0.0,0.0,0.0,0.0,0.0,0.0,0.0,0.0,0.0,0.0,0.0,0.0,0.0,0.0,0.0,0.0,0.0,0.0,0.0,0.0,0.0,0.0,0.0,0.0,0.0,0.0,0.0,0.0,0.0,0.0,0.0,0.0,0.0,0.0,0.0,0.0,0.0,0.0,0.0,0.0,0.0,0.0,0.0,0.0,0.0,0.0,0.0,0.0,0.0,0.0,0.0,0.0,0.0,0.0,0.0,0.0,0.0,0.0,0.0,0.0,0.0,0.0,0.0,0.0,0.0,0.0,0.0,0.0,0.0,0.0,0.0,0.0,0.0,0.0,0.0,0.0,0.0,0.0,0.0,0.0,0.0,0.0,0.0,0.0,0.0,0.0,0.0,0.0,0.0,0.0,0.0,0.0,0.0,0.0,0.0,0.0,0.0,0.0,0.0,0.0,0.0,0.0,0.0,0.0,0.0,-0.0393,-0.0881,-0.0885,-0.0444,-0.026,-0.0172,0.0,0.0,0.0,0.0,0.0,0.0,0.0,0.0,0.0,0.0,0.0,0.0,0.0,0.0,0.0,0.0,0.0,0.0,0.0,0.0,0.0,0.0,0.0,0.0,0.0,0.0,0.0,0.0,0.0,0.0,0.0,0.0,0.0,0.0,0.0,0.0,0.0,0.0,0.0,0.0,0.0,0.0,0.0,0.0,0.0,0.0,0.0,0.0,0.0,0.0,0.0,0.0,0.0,0.0,0.0,0.0,0.0,0.0,0.0,0.0,0.0,0.0,0.0,0.0,0.0,0.0,0.0,0.0,0.0,0.0,0.0,0.0,0.0,0.0,0.0,0.0,0.0,0.0,0.0,0.0,0.0,0.0,0.0,0.0,0.0,0.0,0.0,0.0,0.0,0.0,0.0,0.0,0.0,0.0,0.0,0.0,0.0,0.0,0.0,0.0,0.0,0.0,0.0,0.0,0.0,0.0,0.0,0.0,0.0257,-0.0737,-0.1592,-0.1989,-0.1874,-0.1467,-0.0822,0.0,0.0,0.0,0.0,0.0,0.0,0.0,0.0,0.0,0.0,0.0,0.0,0.0,0.0,0.0,0.0,0.0,0.0,0.0,0.0,0.0,0.0,0.0,0.0,0.0,0.0,0.0,0.0,0.0,0.0,0.0,0.0,0.0,0.0,0.0,0.0,0.0,0.0,0.0,0.0,0.0,0.0,0.0,0.0,0.0,0.0,0.0,0.0,0.0,0.0,0.0,0.0,0.0,0.0,0.0,0.0,0.0,0.0,0.0,0.0,0.0,0.0,0.0,0.0,0.0,0.0,0.0,0.0,0.0,0.0,0.0,0.0,0.0,0.0,0.0,0.0,0.0,0.0,0.0,0.0,0.0,0.0,0.0,0.0,0.0,0.0,0.0,0.0,0.0,0.0,0.0,0.0,0.0,0.0,0.0,0.0,0.0,0.0,0.0,0.0,0.0,0.0,0.0,0.0,0.0,0.0,0.0,0.0,-0.0174,-0.0841,-0.2194,-0.2976,-0.3131,-0.2897,-0.1765,0.0,0.0,0.0,0.0,0.0,0.0,0.0,0.0,0.0,0.0,0.0,0.0,0.0,0.0,0.0,0.0,0.0,0.0,0.0,0.0,0.0,0.0,0.0,0.0,0.0,0.0,0.0,0.0,0.0,0.0,0.0,0.0,0.0,0.0,0.0,0.0,0.0,0.0,0.0,0.0,0.0,0.0,0.0,0.0,0.0,0.0,0.0,0.0,0.0,0.0,0.0,0.0,0.0,0.0,0.0,0.0,0.0,0.0,0.0,0.0,0.0,0.0,0.0,0.0,0.0,0.0,0.0,0.0,0.0,0.0,0.0,0.0,0.0,0.0,0.0,0.0,0.0,0.0,0.0,0.0,0.0,0.0,0.0,0.0,0.0,0.0,0.0,0.0,0.0,0.0,0.0,0.0,0.0,0.0,0.0,0.0,0.0,0.0,0.0,0.0,0.0,0.0,0.0,0.0,0.0,0.0,0.0,0.0,-0.0753,-0.1628,-0.2568,-0.3116,-0.3265,-0.2431,-0.1581,0.0,0.0,0.0,0.0,0.0,0.0,0.0,0.0,0.0,0.0,0.0,0.0,0.0,0.0,0.0,0.0,0.0,0.0,0.0,0.0,0.0,0.0,0.0,0.0,0.0,0.0,0.0,0.0,0.0,0.0,0.0,0.0,0.0,0.0,0.0,0.0,0.0,0.0,0.0,0.0,0.0,0.0,0.0,0.0,0.0,0.0,0.0,0.0,-0.0179,0.0,0.0,0.0,0.0,0.0,0.0,0.0,0.0,0.0,0.0,0.0,0.0,0.0,0.0,0.0,0.0,0.0,0.0,0.0,0.0,0.0,0.0,0.0,0.0,0.0,0.0,0.0,0.0,0.0,0.0,0.0,0.0,0.0,0.0,0.0,0.0,0.0,0.0,0.0,0.0,0.0,0.0,0.0,0.0,0.0,0.0,0.0,0.0,0.0,0.0,0.0,0.0,0.0,0.0,0.0,0.0,0.0,0.0,0.0,-0.0908,-0.1776,-0.271,-0.3213,-0.3266,-0.2281,-0.1146,0.0,0.0,0.0,0.0,0.0,0.0,0.0,0.0,0.0,0.0,0.0,0.0,0.0,0.0,0.0,0.0,0.0,0.0,0.0,0.0,0.0,0.0,0.0,0.0,0.0,0.0,0.0,0.0,0.0,0.0,0.0,0.0,0.0,0.0,0.0,0.0,0.0,0.0,0.0,0.0,0.0,0.0,0.0,0.0,0.0,0.0,0.0,0.0,0.0,0.0,0.0,0.0,0.0,0.0,0.0,0.0,0.0,0.0,0.0,0.0,0.0,0.0,0.0,0.0,0.0,0.0,0.0,0.0,0.0,0.0,0.0,0.0,0.0,0.0,0.0,0.0,0.0,0.0,0.0,0.0,0.0,0.0,0.0,0.0,0.0,0.0,0.0,0.0,0.0,0.0,0.0,0.0,0.0,0.0,0.0,0.0,0.0,0.0,0.0,0.0,0.0,0.0,0.0,0.0,0.0,0.0,0.0,-0.0084,-0.0924,-0.1879,-0.2726,-0.3236,-0.3272,-0.2277,-0.0895,0.0845,0.0,0.0,0.0,0.0,0.0,0.0,0.0,0.0,0.0,0.0,0.0,0.0,0.0,0.0,0.0,0.0,0.0,0.0,0.0,0.0,0.0,0.0,0.0,0.0,0.0,0.0,0.0,0.0,0.0,0.0,0.0,0.0,0.0,0.0,0.0,0.0,0.0,0.0,-0.0267,-0.0562,0.0,0.0,0.0,0.0,0.0,0.0,0.0,0.0,-0.2813,0.0,0.0,0.0,0.0,0.0,0.0,0.0,0.0,0.0,0.0,0.0,0.0,0.0,0.0,0.0,0.0,0.0,0.0,0.0,0.0,0.0,0.0,0.0,0.0,0.0,0.0,0.0,0.0,0.0,0.0,0.0,0.0,0.0,0.0,0.0,0.0,0.0,0.0,0.0,0.0,0.0,0.0,0.0,0.0,0.0,0.0,0.0,0.0,0.0,0.0,0.0,0.0,0.0,0.0,0.0,0.0,-0.0,-0.017,-0.1081,-0.2748,-0.2675,-0.2829,-0.3228,-0.233,-0.1584,-0.1158,0.0,0.0,0.0,0.0,0.0,0.0,0.0,0.0,0.0,0.0,0.0,0.0,0.0,0.0,0.0,0.0,0.0,0.0,0.0,0.0,0.0,0.0,0.0,0.0,0.0,0.0,0.0,0.0,0.0,0.0,0.0,0.0,0.0,0.0,0.0,0.0,0.0,0.0,0.0,-0.1302,-0.1614,0.0,0.0,0.0,0.0,0.0,0.0,0.0,0.0,-0.3302,0.0,0.0,0.0,0.0,0.0,0.0,0.0,0.0,0.0,0.0,0.0,0.0,0.0,0.0,0.0,0.0,0.0,0.0,0.0,0.0,0.0,0.0,0.0,0.0,0.0,0.0,0.0,0.0,0.0,0.0,0.0,0.0,0.0,0.0,0.0,0.0,0.0,0.0,0.0,0.0,0.0,0.0,0.0,0.0,0.0,0.0,0.0,0.0,0.0,0.0,0.0,0.0,0.0,0.0,0.0,0.0486,-0.0125,-0.1183,-0.2669,-0.2715,-0.264,-0.2502,-0.1678,-0.1074,0.0,0.0,0.0,0.0,0.0,0.0,0.0,0.0,0.0,0.0,0.0,0.0,0.0,0.0,0.0,0.0,0.0,0.0,0.0,0.0,0.0,0.0,0.0,0.0,0.0,0.0,0.0,0.0,0.0,0.0,0.0,0.0,0.0,0.0,0.0,0.0,0.0,0.0,0.0,0.0,-0.166,-0.2312,-0.3261,0.0,0.0,0.0,0.0,0.0,0.0,-0.3953,-0.3993,0.0,0.0,0.0,0.0,0.0,0.0,0.0,0.0,0.0,0.0,0.0,0.0,0.0,0.0,0.0,0.0,0.0,0.0,0.0,0.0,0.0,0.0,0.0,0.0,0.0,0.0,0.0,0.0,0.0,0.0,0.0,0.0,0.0,0.0,0.0,0.0,0.0,0.0,0.0,0.0,0.0,0.0,0.0,0.0,0.0,0.0,0.0,0.0,0.0,0.0,0.0,0.0,0.0,0.0,0.0,0.102,0.0206,-0.0868,-0.219,-0.2471,-0.2364,-0.2036,-0.1029,-0.0236,0.0,0.0,0.0,0.0,0.0,0.0,0.0,0.0,0.0,0.0,0.0,0.0,0.0,0.0,0.0,0.0,0.0,0.0,0.0,0.0,0.0,0.0,0.0,0.0,0.0,0.0,0.0,0.0,0.0,0.0,0.0,0.0,0.0,0.0,0.0,0.0,0.0,0.0,0.0,0.0,0.0,-0.2893,-0.3753,-0.3403,0.0,0.0,0.0,0.0,-0.4104,-0.4684,0.0,0.0,0.0,0.0,0.0,0.0,0.0,0.0,0.0,0.0,0.0,0.0,0.0,0.0,0.0,0.0,0.0,0.0,0.0,0.0,0.0,0.0,0.0,0.0,0.0,0.0,0.0,0.0,0.0,0.0,0.0,0.0,0.0,0.0,0.0,0.0,0.0,0.0,0.0,0.0,0.0,0.0,0.0,0.0,0.0,0.0,0.0,0.0,0.0,0.0,0.0,0.0,0.0,0.0,0.0,0.0,0.1067,0.1108,0.0298,-0.1425,-0.1414,-0.1796,-0.2708,-0.0868,0.0527,0.0,0.0,0.0,0.0,0.0,0.0,0.0,0.0,0.0,0.0,0.0,0.0,0.0,0.0,0.0,0.0,0.0,0.0,0.0,0.0,0.0,0.0,0.0,0.0,0.0,0.0,0.0,0.0,0.0,0.0,0.0,0.0,0.0,0.0,0.0,0.0,0.0,0.0,0.0,0.0,0.0,-0.3047,-0.3787,-0.3488,-0.3403,0.0,0.0,-0.4789,-0.4946,-0.6059,0.0,0.0,0.0,0.0,0.0,0.0,0.0,0.0,0.0,0.0,0.0,0.0,0.0,0.0,0.0,0.0,0.0,0.0,0.0,0.0,0.0,0.0,0.0,0.0,0.0,0.0,0.0,0.0,0.0,0.0,0.0,0.0,0.0,0.0,0.0,0.0,0.0,0.0,0.0,0.0,0.0,0.0,0.0,0.0,0.0,0.0,0.0,0.0,0.0,0.0,0.0,0.0,0.0,0.0,0.0,0.2664,0.1468,0.0901,0.0212,-0.0562,-0.0501,-0.0718,-0.1248,-0.0074,0.0859,0.0,0.0,0.0,0.0,0.0,0.0,0.0,0.0,0.0,0.0,0.0,0.0,0.0,0.0,0.0,0.0,0.0,0.0,0.0,0.0,0.0,0.0,0.0,0.0,0.0,0.0,0.0,0.0,0.0,0.0,0.0,0.0,0.0,0.0,0.0,0.0,0.0,0.0,0.0,0.0,0.0,0.0,-0.4089,-0.42,0.0,0.0,0.0,-0.4905,-0.4426,0.0,0.0,0.0,0.0,0.0,0.0,0.0,0.0,0.0,0.0,0.0,0.0,0.0,0.0,0.0,0.0,0.0,0.0,0.0,0.0,0.0,0.0,0.0,0.0,0.0,0.0,0.0,0.0,0.0,0.0,0.0,0.0,0.0,0.0,0.0,0.0,0.0,0.0,0.0,0.0,0.0,0.0,0.0,0.0,0.0,0.0,0.0,0.0,0.0,0.0,0.0,0.0,0.0,0.0,0.0,0.0,0.0,0.1697,0.0564,-0.0,-0.0,-0.0,-0.0,-0.0,0.0409,0.0,0.0,0.0,0.0,0.0,0.0,0.0,0.0,0.0,0.0,0.0,0.0,0.0,0.0,0.0,0.0,0.0,0.0,0.0,0.0,0.0,0.0,0.0,0.0,0.0,0.0,0.0,0.074,0.0,0.0,0.0,0.0,0.0,0.0,0.0,0.0,0.0,0.0,0.0,0.0,0.0,0.0,-0.4222,-0.4523,-0.4798,-0.5034,0.0,0.0,-0.5059,-0.4502,-0.5561,-0.5917,0.0,0.0,0.0,0.0,0.0,0.0,0.0,0.0,0.0,0.0,0.0,0.0,0.0,0.0,0.0,0.0,0.0,0.0,0.0,0.0,0.0,0.0,0.0,0.0,0.0,0.0,0.0,0.0,0.0,0.0,0.0,0.0,0.0,0.0,0.0,0.0,0.0,0.0,0.0,0.0,0.0,0.0,0.0,0.0,0.0,0.0,0.0,0.0,0.0,0.0,0.0,0.0,0.0,0.0,0.2097,0.1433,0.0492,-0.0,-0.0,-0.0,-0.0,-0.0,0.0039,0.0508,0.0,0.0,0.0,0.0,0.0,0.0,0.0,0.0,0.0,0.0,0.0,0.0,0.0,0.0,0.0,0.0,0.0,0.0,0.0,0.0,0.0,0.0,0.0,0.0,0.0,0.0,0.0,0.0,0.0,0.0,0.0,0.0,0.0,0.0,0.0,0.0,0.0,0.0,0.0,0.0,0.0,-0.5456,-0.5005,-0.4932,-0.533,0.0,-0.5973,-0.5586,-0.5988,-0.6872,-0.6897,-0.4948,0.0,0.0,0.0,0.0,0.0,0.0,0.0,0.0,0.0,0.0,0.0,0.0,0.0,0.0,0.0,0.0,0.0,0.0,0.0,0.0,0.0,0.0,0.0,0.0,0.0,0.0,0.0,0.0,0.0,0.0,0.0,0.0,0.0,0.0,0.0,0.0,0.0,0.0,0.0,0.0,0.0,0.0,0.0,0.0,0.0,0.0,0.0,0.0,0.0,0.0,0.0,0.0,0.0,0.2469,0.1658,0.0539,-0.0,-0.0,-0.0,-0.0,-0.0,0.0314,0.0668,0.0,0.0,0.0,0.0,0.0,0.0,0.0,0.0,0.0,0.0,0.0,0.0,0.0,0.0,0.0,0.0,0.0,0.0,0.0,0.0,0.0,0.0,0.0,0.0,0.0,0.0,0.0,0.0,-0.0338,-0.037,-0.1332,0.0,0.0,0.0,0.0,0.0,0.0,0.0,0.0,0.0,0.0,-0.6676,-0.6565,-0.6433,0.0,0.0,-0.652,-0.6266,-0.5599,-0.6121,-0.6095,-0.4412,-0.4152,0.0,0.0,0.0,0.0,0.0,0.0,0.0,0.0,0.0,0.0,0.0,0.0,0.0,0.0,0.0,0.0,0.0,0.0,0.0,0.0,0.0,0.0,0.0,0.0,0.0,0.0,0.0,0.0,0.0,0.0,0.0,0.0,0.0,0.0,0.0,0.0,0.0,0.0,0.0,0.0,0.0,0.0,0.0,0.0,0.0,0.0,0.0,0.0,0.0,0.0,0.0,0.0,0.244,0.169,0.0731,0.0136,-0.0,-0.0,-0.0,-0.0,0.0372,0.0738,0.0,0.0,0.0,0.0,0.0,0.0,0.0,0.0,0.0,0.0,0.0,0.0,0.0,0.0,0.0,0.0,0.0,0.0,0.0,0.0,0.0,0.0,0.0,0.0,0.0,0.0,0.0,0.0,-0.0493,-0.0141,-0.1372,0.0,0.0,0.0,0.0,0.0,0.0,0.0,0.0,0.0,0.0,-0.734,-0.7098,-0.704,-0.6817,-0.6476,-0.6441,-0.6243,-0.5415,-0.5529,-0.5382,-0.4394,0.0,0.0,0.0,0.0,0.0,0.0,0.0,0.0,0.0,0.0,0.0,0.0,0.0,0.0,0.0,0.0,0.0,0.0,0.0,0.0,0.0,0.0,0.0,0.0,0.0,0.0,0.0,0.3214,0.0,0.0,0.388,0.0,0.0,0.0,0.0,0.0,0.0,0.0,0.0,0.0,0.0,0.0,0.0,0.0,0.0,0.0,0.0,0.0,0.0,0.0,0.0,0.0,0.0,0.1739,0.1378,0.0857,0.0388,-0.0,-0.0,-0.0,-0.0,-0.0,0.0493,0.1526,0.0,0.0,0.0,0.0,0.0,0.0,0.0,0.0,0.0,0.0,0.0,0.0,0.0,0.0,0.0,0.0,0.0,0.0,0.0,0.0,0.0,0.0,0.0,0.0,0.0,0.0,-0.1317,-0.0828,-0.0523,0.0,0.0,0.0,0.0,0.0,0.0,0.0,0.0,0.0,-0.4967,-0.6683,-0.7292,-0.6309,-0.6218,-0.6302,-0.6268,-0.5617,-0.5325,-0.5735,-0.543,-0.5164,0.0,0.0,0.0,0.0,0.0,0.0,0.0,0.0,0.0,0.0,0.0,0.0,0.0,0.0,0.0,0.0,0.0,0.0,0.0,0.0,0.0,0.0,0.0,0.0,0.0,0.0,0.0,0.1955,0.2044,0.0,0.0,0.0,0.0,0.0,0.0,0.0,0.0,0.0,0.0,0.0,0.133,0.1235,0.0,0.0,0.0,0.0,0.0,0.0,0.0,0.0,0.0,0.0,0.0,0.0,0.0365,0.0284,-0.0523,-0.0959,-0.0923,-0.0336,-0.0,-0.0,-0.0,0.0182,0.0513,0.0,0.0,0.0,0.0,0.0,0.0,0.0,0.0,0.0,0.0,0.0,0.0,0.0,0.0,0.0,0.0,0.0,0.0,0.0,0.0,0.0,0.0,0.0,0.0,0.0,-0.0252,0.0,0.0,0.0,0.0,0.0,0.0,0.0,0.0,0.0,0.0,0.0,-0.4542,-0.4923,-0.5911,-0.6613,-0.675,-0.6792,-0.6847,0.0,0.0,0.0,0.0,0.0,0.0,0.0,0.0,0.0,0.0,0.0,0.0,0.0,0.0,-0.6066,-0.5958,-0.6262,-0.636,-0.5733,0.0,0.0,0.0,0.0,0.0,0.0,0.0,0.0,0.0,0.0,0.0,0.0,0.0,0.0,0.0922,0.0,0.1117,0.0,0.0,0.0,0.0,0.0,0.0,0.0,0.0,0.0896,0.0659,0.0666,0.0359,0.0468,0.0,0.1249,0.1372,0.0,0.0,0.0,0.0,0.0,0.0,0.0,0.0,-0.0606,-0.0822,-0.187,-0.2347,-0.2172,-0.1496,-0.0734,-0.0,-0.0,-0.0,-0.0,0.034,0.0631,0.0,0.0,0.0,0.0,0.0,0.0,0.0,0.0,0.0,0.0,0.0,0.0,0.0,0.0,0.0,0.0,0.0,0.0,0.0,0.0,0.0,0.0,0.0,-0.0858,0.0,0.0,0.0,0.0,0.0,0.0,0.0,0.0,0.0,-0.1767,-0.4066,-0.5555,-0.4722,-0.5426,-0.6224,-0.6668,0.0,0.0,0.0,0.0,0.0,0.0,0.0,-0.517,-0.477,-0.5048,-0.5425,-0.5615,-0.6062,-0.6373,-0.6307,0.0,0.0,-0.6379,-0.6695,-0.6978,-0.6876,-0.8007,-0.937,-1.0884,-1.0705,-1.0354,0.0,0.0,0.0,0.0,0.0,0.0,0.0,0.0,-0.0303,-0.0101,0.0,0.0454,0.0,0.0,0.0,0.0,0.151,0.1608,0.0,0.0,-0.0054,-0.0,0.0267,-0.0267,-0.0107,0.0747,0.0854,0.0746,0.0479,0.1185,0.0,0.0,0.0,0.0,0.0,0.0,-0.1117,-0.1921,-0.2982,-0.3579,-0.3572,-0.3307,-0.2179,-0.0159,-0.0,-0.0,-0.0,-0.0,-0.0,-0.0,0.0607,0.0,0.0,0.0,0.0,0.0,0.0,0.0,0.0,0.0,0.0,0.0,0.0,0.0,0.0,0.0,0.0,0.0,0.0,0.0,0.0,-0.1629,0.0,0.0,0.0,0.0,0.0,0.0,0.0,0.0,0.0,0.0,-0.3008,-0.4492,-0.5233,-0.4339,0.0,0.0,0.0,0.0,-0.6668,-0.5236,-0.5236,-0.5348,-0.5093,-0.5504,-0.5839,-0.5967,0.0,0.0,-0.657,-0.6444,-0.635,-0.6155,-0.6498,-0.6665,-0.6674,-0.6705,-0.7143,-0.8443,-0.8601,-0.9629,-1.2395,-1.1664,-1.051,0.0865,0.0,0.0,0.0,0.0,0.0695,0.0253,-0.042,-0.1102,-0.1312,-0.1101,-0.0419,0.0,0.0,0.0,0.0,0.0,0.0,0.0567,-0.0157,-0.0321,-0.0436,-0.0497,-0.0276,-0.0055,0.0221,0.0664,0.0829,0.0774,0.1205,0.1346,0.1206,0.0,0.0,0.0,0.0,-0.1919,-0.2403,-0.3124,-0.3478,-0.3458,-0.3486,-0.258,-0.0718,-0.0624,-0.0525,-0.0262,-0.0269,-0.0215,-0.0105,0.0161,0.0,0.0,0.0,0.0,0.0,0.0,0.0,0.0,0.0,0.0,0.0,0.0,0.0,0.0,0.0,0.0,0.0,0.0,0.0,-0.3044,-0.3169,-0.2646,0.0,0.0,0.0,0.0,0.0,0.0,0.0,0.0,0.0,-0.5467,-0.664,-0.6802,0.0,0.0,-0.5477,-0.5194,-0.6051,-0.6726,-0.6569,-0.6866,0.0,-0.7328,-0.6814,-0.6393,-0.6288,-0.6351,-0.6502,-0.6763,-0.6759,-0.6823,-0.6951,-0.6911,-0.6942,-0.7396,-0.7583,-0.7889,-0.8318,-0.9094,-1.0085,-1.1357,-1.1481,-1.1185,0.0553,0.0547,0.0465,0.0509,0.0567,0.0464,-0.0,-0.0707,-0.1197,-0.1578,-0.1743,-0.0925,-0.0053,0.0876,0.0825,0.0,0.0,0.0,0.0324,-0.0509,-0.0826,-0.0886,-0.0685,-0.0338,-0.0112,-0.0,0.0393,0.0505,0.0393,0.0664,0.0822,0.076,0.0,0.0,-0.0105,-0.1287,-0.2136,-0.2549,-0.308,-0.3301,-0.3255,-0.3044,-0.2318,-0.1214,-0.0968,-0.0816,-0.0598,-0.061,-0.0556,-0.0435,-0.0222,0.0055,0.0,0.0,0.0,0.0,0.0,0.0,0.0,0.0,0.0,0.0,0.0,0.2419,0.2218,0.0,0.0,0.0,0.1373,-0.0223,-0.335,-0.3225,0.0,0.0,0.0,0.0,0.0,0.0,0.0,-0.4047,-0.4973,-0.5686,-0.5955,-0.7422,-0.788,-0.6415,-0.674,-0.6913,-0.6245,0.0,-0.7635,-0.7605,-0.7862,-0.7975,-0.7772,-0.7523,-0.72,-0.7,-0.6661,-0.6574,-0.6921,-0.701,-0.7047,-0.7203,-0.7149,-0.7277,-0.7796,-0.8026,-0.8032,-0.7945,-0.9089,-1.0178,-1.0587,-1.1363,-1.1866,0.0301,0.0489,0.0434,0.0367,0.0377,0.0107,-0.0328,-0.0844,-0.0842,-0.1181,-0.1579,-0.1067,-0.0221,0.0806,0.0754,0.0,0.0945,0.0917,0.035,-0.0739,-0.1396,-0.1265,-0.0472,-0.0401,-0.0226,-0.0,-0.0057,-0.0226,-0.0395,-0.0219,-0.011,-0.0,0.0219,-0.0055,-0.0787,-0.1289,-0.1852,-0.2373,-0.289,-0.3058,-0.2965,-0.2242,-0.1741,-0.1458,-0.1122,-0.0898,-0.0897,-0.0897,-0.0898,-0.0897,-0.0561,-0.028,-0.0056,0.0,0.0,0.0,0.0,0.0,0.0,0.0,0.0,0.0,0.0,0.0,0.0,0.0,0.0,0.0,0.0412,0.0,-0.2604,-0.2479,0.0,0.0,0.0,-0.3092,-0.3754,-0.4148,-0.4436,-0.4607,0.0,0.0,-0.5354,-0.7164,-0.858,-0.8853,-0.9489,-0.9479,-0.8352,-0.8774,-0.9057,-0.8375,-0.8486,-0.8261,-0.7626,-0.7767,-0.7944,-0.7619,-0.7279,-0.7038,-0.7184,-0.7268,-0.7254,-0.7352,-0.7433,-0.77,-0.8038,-0.8113,-0.7976,-0.7771,-0.8847,-0.9793,-0.9927,-1.1137,-1.1992,0.1467,0.1779,0.287,0.2077,0.0119,0.0058,-0.0058,-0.0174,-0.0227,-0.0284,-0.0407,-0.0284,-0.0057,0.023,0.0177,0.0301,0.055,0.0849,0.067,0.0062,-0.073,-0.0971,-0.0733,-0.0364,-0.0121,-0.0121,-0.0544,-0.0785,-0.0845,-0.0779,-0.0599,-0.0241,-0.018,-0.0,0.0233,-0.0795,-0.1436,-0.1506,-0.2025,-0.2199,-0.2125,-0.2127,-0.1737,-0.1066,-0.1178,-0.1122,-0.0898,-0.101,-0.101,-0.0897,-0.0841,-0.0617,-0.0224,0.0224,0.0,0.0,0.0,0.0,0.0,0.0,0.0,0.0,0.0,0.2357,0.1569,0.0,0.106,0.0,-0.1621,-0.2792,-0.2953,-0.3179,0.0,0.0,-0.4364,-0.459,-0.4693,-0.5438,-0.5867,-0.5594,-0.5962,-0.6395,-0.6692,-0.7516,-0.8455,-0.9413,-0.9276,-0.8844,-0.821,-0.8837,-0.9379,-0.9277,-0.9862,-1.0148,-0.9244,-0.8551,-0.7852,-0.719,-0.7265,-0.7446,-0.7803,-0.7853,-0.7938,-0.8201,-0.8137,-0.8305,-0.8701,-0.8559,-0.8564,-0.8794,-0.8999,-0.9149,-0.9373,-1.0116,-1.0593,0.2594,0.2238,0.3663,0.3343,0.1854,0.1224,0.06,0.012,0.1357,0.1894,0.1864,0.1238,0.0591,-0.0,-0.0,0.0062,0.0252,0.0435,0.0626,0.0642,-0.0125,-0.0684,-0.0945,-0.0683,-0.0556,-0.0494,-0.0864,-0.0988,-0.0988,-0.0988,-0.0864,-0.0617,-0.0626,-0.0375,0.0123,-0.0544,-0.1028,-0.1353,-0.1996,-0.2249,-0.2044,-0.1788,-0.1385,-0.0877,-0.1025,-0.0904,-0.0515,-0.0565,-0.0561,-0.0505,-0.0505,-0.0505,-0.0561,-0.0112,-0.0,0.0,0.0,0.0,0.0,0.0,0.0,0.0,0.0,0.0,0.0,0.0,0.006,-0.12,-0.2986,-0.388,-0.3501,-0.3685,-0.4091,-0.4642,-0.5085,-0.5364,-0.5515,-0.6003,-0.6329,-0.6108,-0.6237,-0.6488,-0.695,-0.7466,-0.8207,-0.9296,-0.9407,-0.9358,-0.9407,-0.9888,-1.0102,-0.9854,-1.024,-1.0218,-0.9262,-0.8296,-0.7461,-0.7077,-0.7229,-0.7645,-0.8009,-0.7943,-0.7933,-0.8278,-0.8456,-0.861,-0.8985,-0.8898,-0.8885,-0.9248,-0.9239,-0.9264,-0.9565,-0.9945,-1.0119,0.359,0.2576,0.3806,0.4357,0.4271,0.2959,0.1687,0.0742,0.3043,0.4173,0.4235,0.2925,0.1737,0.0557,0.0374,0.0318,0.0326,0.0319,0.0583,0.0877,0.0257,-0.0445,-0.1103,-0.1075,-0.1062,-0.1,-0.0999,-0.1,-0.0999,-0.0999,-0.1,-0.0938,-0.0962,-0.0779,-0.0455,-0.0326,-0.0641,-0.1356,-0.2238,-0.2481,-0.2217,-0.1442,-0.0899,-0.0611,-0.0637,-0.0455,-0.0,-0.0057,-0.0056,-0.0056,-0.0,-0.0225,-0.079,-0.0339,-0.0339,0.0,-0.0341,0.0,0.0,0.0,0.0,0.0,0.0,0.0,0.0,-0.0377,-0.1112,-0.2609,-0.392,-0.4556,-0.4261,-0.4329,-0.4628,-0.5138,-0.5477,-0.583,-0.6256,-0.6348,-0.6398,-0.6539,-0.6279,-0.6281,-0.6813,-0.7292,-0.7947,-0.8857,-0.9576,-1.0166,-1.085,-1.0968,-1.0836,-1.0142,-0.9894,-0.9378,-0.8431,-0.7652,-0.7199,-0.706,-0.7372,-0.77,-0.8078,-0.7951,-0.7861,-0.8189,-0.8603,-0.8848,-0.8969,-0.8964,-0.9151,-0.9297,-0.9373,-0.9574,-0.9856,-1.0103,-1.0206,0.4285,0.4227,0.4522,0.4597,0.4586,0.4323,0.3944,0.3453,0.3066,0.3389,0.424,0.4004,0.3728,0.3405,0.248,0.2055,0.2002,0.2034,0.1335,0.0209,-0.0206,-0.0611,-0.1071,-0.1131,-0.1128,-0.1062,-0.106,-0.1059,-0.1059,-0.1059,-0.0926,-0.0596,-0.0599,-0.0467,-0.0134,0.0,0.0,0.0,-0.1479,-0.1674,-0.1237,-0.1475,-0.1153,-0.0178,0.0344,0.0,-0.0,-0.0338,-0.0393,-0.0224,0.0056,0.0,0.0,0.0,0.0,0.0,0.0,0.0,0.0,0.0,0.0,0.0,-0.2911,-0.2305,-0.1198,-0.1882,-0.2766,-0.368,-0.4617,-0.5376,-0.588,-0.5908,-0.6066,-0.6312,-0.6599,-0.6791,-0.6976,-0.7114,-0.7281,-0.7306,-0.7267,-0.7285,-0.743,-0.7839,-0.824,-0.861,-0.9509,-1.0288,-1.0555,-1.0933,-1.0982,-1.0338,-0.9378,-0.8742,-0.8425,-0.7847,-0.7396,-0.7475,-0.7807,-0.8163,-0.8462,-0.8664,-0.8832,-0.9041,-0.9136,-0.9069,-0.8679,-0.9022,-0.9233,-0.8823,-0.9092,-0.9502,-0.9621,-0.9832,-0.9994,0.4584,0.4726,0.4806,0.4804,0.0,0.4726,0.4626,0.4455,0.3769,0.391,0.4537,0.4527,0.445,0.4332,0.3741,0.3545,0.3578,0.3701,0.3319,0.2408,0.0206,-0.0888,-0.108,-0.108,-0.1078,-0.1078,-0.1076,-0.1076,-0.1076,-0.1076,-0.1008,-0.0806,-0.0806,-0.0677,-0.0549,-0.0776,-0.0981,-0.1211,-0.15,-0.1626,-0.1451,-0.1234,-0.0896,-0.0378,0.0181,0.0,0.0,0.0,0.0,0.0,0.0,0.0,0.0,-0.0611,0.0,-0.1637,-0.1532,-0.1771,-0.2526,-0.2677,-0.2882,-0.3248,-0.3077,-0.2649,-0.193,-0.2672,-0.3303,-0.3693,-0.4602,-0.5325,-0.5604,-0.5832,-0.6088,-0.6368,-0.671,-0.6937,-0.7308,-0.7454,-0.7561,-0.7617,-0.7553,-0.7451,-0.7525,-0.7808,-0.8216,-0.8596,-0.9248,-0.9844,-1.0114,-1.0564,-1.0541,-0.957,-0.8613,-0.8042,-0.7972,-0.7782,-0.7526,-0.7531,-0.7871,-0.8466,-0.9226,-0.9321,-0.9291,-0.9508,-0.9736,-0.9678,-0.9007,-0.9025,-0.9068,-0.8723,-0.8837,-0.9209,-0.9563,-0.9682,-0.9754,0.4719,0.4792,0.4938,0.4941,0.4719,0.4789,0.4719,0.4713,0.0,0.0,0.0,0.4737,0.4654,0.452,0.4538,0.4645,0.4706,0.495,0.4894,0.4563,0.11,-0.0618,-0.0752,-0.1026,-0.1093,-0.1092,-0.1092,-0.1089,-0.1084,-0.1083,-0.108,-0.1076,-0.1076,-0.1093,-0.1129,-0.1304,-0.1546,-0.1919,-0.173,-0.1698,-0.1753,-0.1028,-0.0607,-0.0668,-0.0444,-0.0187,-0.0,-0.0313,-0.0494,-0.0494,-0.0617,-0.062,-0.0501,-0.0962,-0.1435,-0.1913,-0.1886,-0.2073,-0.2622,-0.2758,-0.2898,-0.3042,-0.2792,-0.2597,-0.2503,-0.3042,-0.3441,-0.3439,-0.446,-0.5075,-0.5062,-0.5489,-0.5933,-0.6275,-0.6722,-0.7118,-0.7559,-0.7627,-0.7711,-0.7859,-0.7749,-0.7595,-0.771,-0.7863,-0.8085,-0.8636,-0.8954,-0.9205,-0.9597,-0.9968,-0.9839,-0.8909,-0.822,-0.7655,-0.764,-0.7655,-0.7551,-0.7513,-0.7946,-0.8711,-0.9758,-0.9884,-0.9684,-0.9794,-1.0269,-1.0124,-0.955,-0.9319,-0.9051,-0.8842,-0.8826,-0.9002,-0.9722,-0.9844,-0.982,0.4963,0.4966,0.4966,0.4966,0.4966,0.4966,0.4966,0.4947,0.4746,0.4711,0.4803,0.47,0.4654,0.4659,0.4765,0.4726,0.4795,0.4974,0.4498,0.3497,0.2154,0.1174,0.0576,-0.0648,-0.1154,-0.1153,-0.1153,-0.114,-0.1117,-0.1115,-0.1102,-0.1078,-0.1076,-0.1104,-0.1158,-0.119,-0.137,-0.1632,-0.1823,-0.1615,-0.1053,-0.1047,-0.0749,-0.0195,-0.0693,-0.0681,-0.0124,-0.0496,-0.0864,-0.0988,-0.0988,-0.1327,-0.1923,-0.1668,-0.1708,-0.2143,-0.2233,-0.2409,-0.2915,-0.2931,-0.2968,-0.3037,-0.3057,-0.2865,-0.2478,-0.3076,-0.3531,-0.368,-0.4657,-0.5442,-0.5521,-0.6284,-0.6862,-0.7005,-0.7517,-0.7942,-0.7992,-0.8138,-0.8214,-0.8241,-0.8468,-0.8459,-0.8398,-0.8342,-0.8344,-0.8505,-0.8816,-0.9125,-0.9152,-0.9083,-0.904,-0.8907,-0.8478,-0.8065,-0.7947,-0.7985,-0.7881,-0.7572,-0.8323,-0.924,-1.0153,-1.0262,-1.0158,-1.0049,-1.0317,-1.0329,-1.0289,-1.0206,-0.9794,-0.9361,-0.9433,-0.9765,-1.0191,-1.0317,-1.0453,0.5018,0.5018,0.5018,0.5018,0.5018,0.5018,0.5018,0.5007,0.4901,0.4882,0.4925,0.4874,0.4852,0.4855,0.4909,0.4896,0.4761,0.4974,0.4707,0.408,0.3034,0.2354,0.1965,0.0873,0.0364,0.0364,-0.0218,-0.0434,-0.0502,-0.093,-0.1131,-0.1103,-0.1117,-0.0932,-0.0595,-0.0541,-0.055,-0.0706,-0.132,-0.1519,-0.1245,-0.117,-0.0998,-0.0609,-0.0933,-0.0986,-0.0648,-0.1036,-0.1295,-0.136,-0.1555,-0.1848,-0.2198,-0.2024,-0.2076,-0.2301,-0.2411,-0.2594,-0.3009,-0.3088,-0.2948,-0.2823,-0.2746,-0.2656,-0.2471,-0.2777,-0.3006,-0.3084,-0.393,-0.4535,-0.4528,-0.567,-0.6547,-0.676,-0.7422,-0.7935,-0.8244,-0.8318,-0.8393,-0.8389,-0.8468,-0.8496,-0.8373,-0.8477,-0.851,-0.842,-0.8587,-0.8789,-0.8822,-0.8744,-0.8589,-0.8508,-0.8292,-0.815,-0.8085,-0.808,-0.8028,-0.7845,-0.8553,-0.9578,-1.0469,-1.0661,-1.0586,-1.0641,-1.0671,-1.055,-1.0362,-1.0085,-0.9779,-0.9597,-0.9265,-0.9589,-1.0272,-1.0724,-1.0821,0.5015,0.5097,0.5097,0.5097,0.5094,0.5067,0.5056,0.5053,0.5026,0.5018,0.5018,0.5018,0.5018,0.5018,0.5018,0.4966,0.4885,0.496,0.4916,0.4751,0.3628,0.311,0.296,0.2146,0.1702,0.1628,0.0815,0.0369,0.0294,-0.0294,-0.0725,-0.0853,-0.1089,-0.0817,-0.0,-0.0158,-0.008,0.0235,-0.0549,-0.1164,-0.1441,-0.1288,-0.1185,-0.1136,-0.1123,-0.111,-0.1155,-0.1417,-0.1614,-0.1682,-0.2031,-0.2203,-0.2262,-0.2248,-0.238,-0.2436,-0.2484,-0.2668,-0.2906,-0.2999,-0.2841,-0.2511,-0.251,-0.251,-0.251,-0.251,-0.251,-0.2668,-0.3366,-0.3809,-0.406,-0.5252,-0.6176,-0.6507,-0.7327,-0.8031,-0.8398,-0.8472,-0.8472,-0.8472,-0.8467,-0.8411,-0.8325,-0.8496,-0.8623,-0.851,-0.8467,-0.8538,-0.8652,-0.8562,-0.8401,-0.8283,-0.8222,-0.824,-0.8222,-0.8236,-0.8284,-0.8222,-0.8832,-0.9653,-1.0515,-1.0773,-1.087,-1.1027,-1.1087,-1.0846,-1.034,-1.0142,-1.0092,-0.9986,-0.9719,-0.9719,-1.055,-1.0936,-1.1039,0.5079,0.5253,0.5328,0.5339,0.5314,0.5216,0.517,0.5154,0.5064,0.5018,0.5018,0.5018,0.5018,0.5018,0.5018,0.5007,0.4993,0.5002,0.4991,0.482,0.3885,0.3339,0.3332,0.2175,0.1634,0.1632,0.1398,0.1228,0.1205,0.1052,0.0669,-0.0,-0.082,-0.0755,-0.0152,-0.07,-0.0393,0.1097,0.0313,-0.0465,-0.1214,-0.1288,-0.127,-0.1163,-0.1136,-0.119,-0.1323,-0.1499,-0.1681,-0.1887,-0.2067,-0.2263,-0.2323,-0.238,-0.2439,-0.2497,-0.251,-0.251,-0.2594,-0.2641,-0.2651,-0.2518,-0.2516,-0.2516,-0.2515,-0.2514,-0.2668,-0.3067,-0.3534,-0.391,-0.4373,-0.5829,-0.6736,-0.6935,-0.7871,-0.8675,-0.8661,-0.867,-0.8675,-0.8675,-0.8652,-0.8661,-0.8618,-0.8661,-0.8689,-0.8652,-0.8637,-0.8652,-0.8689,-0.8675,-0.8642,-0.8623,-0.8633,-0.8618,-0.8609,-0.8642,-0.8603,-0.8612,-0.9089,-0.9654,-1.0284,-1.0795,-1.1093,-1.1081,-1.1117,-1.1037,-1.0962,-1.1007,-1.0914,-1.0718,-1.0689,-1.0867,-1.1069,-1.1087,-1.1087,0.5303,0.5368,0.5541,0.5541,0.536,0.5314,0.5252,0.5181,0.5137,0.508,0.5023,0.5018,0.5018,0.5018,0.5018,0.5018,0.5018,0.5018,0.5018,0.494,0.4543,0.4307,0.4304,0.3759,0.3366,0.321,0.2506,0.2104,0.1929,0.1522,0.1136,0.076,-0.0076,0.0152,0.1315,0.0712,0.0875,0.1962,0.1667,0.1106,0.0232,-0.0773,-0.1299,-0.1194,-0.1236,-0.1281,-0.1401,-0.157,-0.1748,-0.1887,-0.2073,-0.2202,-0.226,-0.2388,-0.2463,-0.2555,-0.2598,-0.2617,-0.2619,-0.2642,-0.2644,-0.2619,-0.2617,-0.2617,-0.2617,-0.3105,-0.3511,-0.3664,-0.3744,-0.4075,-0.4929,-0.6167,-0.7019,-0.7476,-0.8241,-0.8708,-0.8703,-0.8703,-0.8703,-0.8703,-0.8703,-0.8703,-0.8703,-0.8703,-0.8703,-0.8703,-0.8703,-0.8703,-0.8703,-0.8703,-0.8703,-0.8703,-0.8703,-0.8703,-0.8703,-0.8703,-0.8732,-0.876,-0.8849,-0.9231,-1.0135,-1.0507,-1.0812,-1.1043,-1.1154,-1.1154,-1.1117,-1.1117,-1.1117,-1.1135,-1.1123,-1.1117,-1.1117,-1.1117,-1.101,0.5471,0.5548,0.5644,0.5644,0.5466,0.5431,0.5349,0.5238,0.5203,0.5121,0.5023,0.5018,0.5018,0.5018,0.5018,0.5018,0.5018,0.5018,0.5018,0.5018,0.5018,0.5018,0.5018,0.4781,0.4621,0.4307,0.3524,0.3056,0.2818,0.2004,0.1617,0.1482,0.077,0.108,0.2275,0.1756,0.1835,0.2753,0.2711,0.2231,0.157,0.0627,-0.0078,-0.0534,-0.112,-0.1382,-0.1134,-0.1449,-0.1769,-0.1976,-0.2026,-0.2152,-0.2282,-0.2428,-0.2516,-0.2616,-0.2684,-0.2709,-0.2695,-0.2709,-0.271,-0.2694,-0.2679,-0.2758,-0.3103,-0.3754,-0.4331,-0.4672,-0.4473,-0.479,-0.5492,-0.6441,-0.723,-0.7852,-0.8444,-0.8793,-0.8793,-0.8751,-0.8703,-0.8703,-0.8703,-0.8732,-0.877,-0.8746,-0.8718,-0.8789,-0.8746,-0.8703,-0.8703,-0.8703,-0.8703,-0.8703,-0.8703,-0.8703,-0.8703,-0.8703,-0.8703,-0.8699,-0.8765,-0.9064,-1.0024,-1.0419,-1.0779,-1.1317,-1.1298,-1.1353,-1.1437,-1.1395,-1.1246,-1.1153,-1.1129,-1.128,-1.1395,-1.1304,-1.1047,0.5714,0.5711,0.5716,0.5703,0.5706,0.5591,0.5472,0.5352,0.5246,0.5132,0.5042,0.5031,0.5023,0.5034,0.504,0.5021,0.5018,0.5018,0.5018,0.5018,0.5018,0.5018,0.5018,0.4781,0.4621,0.4384,0.4153,0.3845,0.361,0.2899,0.2429,0.2431,0.1644,0.1643,0.2354,0.181,0.212,0.3461,0.3002,0.252,0.2516,0.3146,0.2592,0.1174,-0.0687,-0.1191,-0.0654,-0.0922,-0.147,-0.21,-0.1723,-0.1766,-0.2266,-0.2446,-0.2537,-0.2599,-0.266,-0.2753,-0.2631,-0.2665,-0.2759,-0.2704,-0.258,-0.2964,-0.3693,-0.4148,-0.4794,-0.609,-0.5693,-0.5761,-0.6252,-0.6876,-0.7616,-0.826,-0.8706,-0.8946,-0.9011,-0.8864,-0.8722,-0.8732,-0.876,-0.8841,-0.8982,-0.8826,-0.8841,-0.8902,-0.8831,-0.8713,-0.8703,-0.8703,-0.8703,-0.8703,-0.8703,-0.8703,-0.8703,-0.8703,-0.8703,-0.8703,-0.8851,-0.8988,-0.9921,-1.0713,-1.1118,-1.1558,-1.1745,-1.1836,-1.1848,-1.1768,-1.155,-1.1485,-1.1426,-1.1504,-1.1661,-1.1606,-1.1341,0.5574,0.5733,0.5733,0.5733,0.5727,0.5684,0.56,0.5485,0.5439,0.5352,0.5254,0.5241,0.5241,0.5243,0.5243,0.5159,0.5026,0.5018,0.5018,0.5018,0.5018,0.5018,0.5018,0.4937,0.4701,0.4384,0.4309,0.4108,0.3846,0.3529,0.3369,0.3289,0.2564,0.2546,0.3074,0.2545,0.2724,0.3696,0.3579,0.3446,0.3437,0.372,0.3392,0.2612,0.2024,0.1205,0.0149,-0.0437,-0.0791,-0.1006,-0.0958,-0.0975,-0.114,-0.1286,-0.1342,-0.1372,-0.1402,-0.1414,-0.1406,-0.1412,-0.168,-0.2107,-0.2091,-0.2412,-0.3184,-0.3877,-0.4398,-0.4725,-0.5462,-0.5846,-0.6245,-0.6891,-0.7679,-0.8246,-0.8851,-0.9138,-0.9204,-0.9143,-0.91,-0.91,-0.91,-0.9058,-0.9082,-0.8974,-0.8997,-0.9025,-0.8871,-0.8695,-0.8737,-0.8703,-0.8727,-0.8708,-0.8703,-0.8703,-0.8703,-0.8703,-0.8703,-0.8861,-0.8932,-0.9316,-1.0062,-1.0627,-1.1134,-1.1486,-1.1836,-1.216,-1.2109,-1.2023,-1.1849,-1.1894,-1.1842,-1.1842,-1.2074,-1.1866,-1.1617,0.5569,0.5727,0.5733,0.5733,0.5733,0.5733,0.5574,0.547,0.5462,0.5483,0.5388,0.5371,0.5371,0.5371,0.5371,0.529,0.514,0.5132,0.511,0.5072,0.5072,0.5069,0.5072,0.5072,0.493,0.4641,0.4487,0.4286,0.3934,0.3942,0.3928,0.3818,0.3246,0.3287,0.3634,0.3289,0.3329,0.383,0.3963,0.3916,0.3766,0.3864,0.3613,0.3162,0.3055,0.2334,0.0689,0.0075,-0.0299,-0.0374,-0.0304,-0.031,-0.0477,-0.058,-0.0689,-0.0619,-0.0536,-0.063,-0.0813,-0.063,-0.0718,-0.1165,-0.1336,-0.1766,-0.2809,-0.3617,-0.414,-0.466,-0.522,-0.5983,-0.6304,-0.686,-0.7421,-0.8082,-0.8634,-0.8935,-0.8752,-0.8617,-0.8742,-0.8887,-0.8882,-0.9005,-0.9229,-0.9178,-0.9127,-0.9219,-0.9006,-0.8881,-0.8857,-0.8902,-0.8902,-0.8892,-0.8859,-0.8836,-0.8803,-0.8779,-0.888,-0.9022,-0.9433,-0.9737,-1.016,-1.0723,-1.1117,-1.1453,-1.1754,-1.2095,-1.2261,-1.2174,-1.2249,-1.2331,-1.2207,-1.2107,-1.2213,-1.2207,-1.1981,0.5733,0.5733,0.5733,0.5733,0.5733,0.5733,0.5665,0.5489,0.5478,0.551,0.5426,0.5393,0.5412,0.5393,0.5415,0.5385,0.539,0.5379,0.5303,0.5197,0.5189,0.5189,0.5189,0.5189,0.5146,0.4979,0.4601,0.4274,0.4022,0.402,0.3985,0.3924,0.3836,0.3796,0.3853,0.379,0.3828,0.3926,0.394,0.3722,0.3427,0.372,0.3474,0.2612,0.1929,0.1478,0.1103,0.055,0.0157,-0.0157,0.0157,0.0081,-0.0341,-0.0433,-0.0531,-0.0456,-0.0181,-0.0454,-0.1011,-0.0363,0.009,-0.0179,-0.0441,-0.1318,-0.2652,-0.3335,-0.4202,-0.5588,-0.5971,-0.616,-0.6438,-0.6669,-0.7001,-0.7724,-0.8205,-0.83,-0.7831,-0.7373,-0.7522,-0.8209,-0.8482,-0.8687,-0.9285,-0.9428,-0.9367,-0.9424,-0.9349,-0.9131,-0.9237,-0.9214,-0.9285,-0.9256,-0.9129,-0.9015,-0.894,-0.8859,-0.9014,-0.9266,-0.9769,-1.0269,-1.0662,-1.118,-1.1531,-1.1816,-1.2111,-1.2445,-1.2457,-1.2463,-1.2506,-1.2577,-1.2433,-1.2284,-1.223,-1.226,-1.2439,0.5713,0.5738,0.5733,0.5733,0.5733,0.5733,0.5708,0.5678,0.5678,0.5651,0.5624,0.5619,0.5621,0.5619,0.5621,0.5659,0.5725,0.5654,0.551,0.5344,0.5314,0.5311,0.5311,0.5314,0.5123,0.4774,0.4499,0.4283,0.4038,0.4038,0.4046,0.4071,0.402,0.3981,0.3946,0.3981,0.4018,0.4081,0.3746,0.3526,0.3502,0.3358,0.2927,0.2364,0.1732,0.1619,0.2188,0.2239,0.2138,0.1726,0.1891,0.1673,0.0951,0.0793,0.081,0.0828,0.092,0.0918,0.0645,0.0727,0.0718,0.0358,0.0178,-0.0618,-0.1934,-0.2562,-0.3372,-0.4652,-0.501,-0.5387,-0.5358,-0.5768,-0.6349,-0.7044,-0.7618,-0.7937,-0.7657,-0.7613,-0.7943,-0.8545,-0.8717,-0.9095,-0.9647,-0.9752,-0.9705,-0.9653,-0.968,-0.9604,-0.9379,-0.937,-0.9318,-0.9304,-0.9228,-0.92,-0.9115,-0.9123,-0.9296,-0.9544,-1.0087,-1.0556,-1.1022,-1.1537,-1.1899,-1.2177,-1.2475,-1.2589,-1.2693,-1.2649,-1.2667,-1.2649,-1.2553,-1.2389,-1.2272,-1.2347,-1.2527,0.5743,0.5738,0.5733,0.5733,0.5733,0.5733,0.5757,0.5784,0.5752,0.5754,0.5787,0.5795,0.5705,0.5716,0.5841,0.5901,0.5953,0.585,0.5714,0.5564,0.5461,0.5439,0.5447,0.5488,0.5214,0.4823,0.4699,0.4473,0.4132,0.4134,0.4146,0.4157,0.4114,0.4065,0.4046,0.4071,0.4022,0.3867,0.363,0.3322,0.3086,0.289,0.2723,0.2498,0.2477,0.2985,0.3771,0.4096,0.3986,0.3542,0.3488,0.319,0.2697,0.2643,0.2682,0.2628,0.2345,0.1963,0.1585,0.1378,0.1265,0.0899,0.0807,0.0268,-0.0885,-0.17,-0.2625,-0.3991,-0.4716,-0.5113,-0.5187,-0.5368,-0.5933,-0.6412,-0.6719,-0.7139,-0.7305,-0.7394,-0.7914,-0.8519,-0.8873,-0.9244,-0.9772,-1.0033,-0.9908,-0.9786,-0.9852,-0.9923,-0.9597,-0.9573,-0.9549,-0.9516,-0.9478,-0.9412,-0.9294,-0.9389,-0.9582,-0.9936,-1.0295,-1.0817,-1.1324,-1.1793,-1.2212,-1.2368,-1.2571,-1.2425,-1.2448,-1.2498,-1.247,-1.2516,-1.251,-1.2353,-1.2258,-1.252,-1.2773,0.5753,0.5746,0.5735,0.5733,0.5738,0.5746,0.5806,0.5871,0.5812,0.5828,0.5899,0.5915,0.582,0.5752,0.5911,0.6062,0.5976,0.5969,0.5907,0.5828,0.5692,0.5581,0.5489,0.5648,0.5398,0.5039,0.4972,0.4721,0.4246,0.4249,0.4257,0.4193,0.4171,0.4138,0.4097,0.4138,0.3961,0.3592,0.345,0.2957,0.2272,0.2356,0.255,0.2776,0.3849,0.4739,0.5179,0.5621,0.5466,0.4788,0.4629,0.451,0.4549,0.4658,0.45,0.4465,0.3649,0.2665,0.1893,0.1584,0.1464,0.1348,0.1256,0.0897,-0.0269,-0.1272,-0.2671,-0.4627,-0.5182,-0.5498,-0.5839,-0.5823,-0.5836,-0.5866,-0.5972,-0.6177,-0.6691,-0.6868,-0.7482,-0.854,-0.8978,-0.9152,-0.9864,-1.0038,-1.0028,-1.0019,-1.0009,-0.9981,-0.9971,-0.9838,-1.0,-0.9847,-0.9715,-0.9611,-0.9483,-0.9412,-0.962,-0.9774,-1.0238,-1.0833,-1.1387,-1.1933,-1.2157,-1.2389,-1.249,-1.2318,-1.2233,-1.2323,-1.2286,-1.2235,-1.2137,-1.2114,-1.2202,-1.2524,-1.2786,0.5966,0.5852,0.5768,0.5733,0.5746,0.582,0.5874,0.5912,0.5972,0.5996,0.6037,0.6037,0.6037,0.5949,0.6072,0.6132,0.6077,0.6092,0.604,0.6013,0.5885,0.5763,0.57,0.5711,0.5422,0.5017,0.4977,0.4709,0.4297,0.4218,0.4234,0.4263,0.4208,0.42,0.4224,0.4195,0.3938,0.3515,0.3051,0.2718,0.2217,0.1866,0.1694,0.2059,0.4663,0.5833,0.5568,0.6477,0.6674,0.5802,0.5,0.4658,0.4864,0.4912,0.496,0.4683,0.3896,0.3086,0.2663,0.1872,0.1468,0.144,0.1346,0.0717,-0.0896,-0.1459,-0.2875,-0.4695,-0.5571,-0.5803,-0.5784,-0.59,-0.5996,-0.5996,-0.5913,-0.61,-0.6694,-0.6864,-0.7305,-0.8623,-0.889,-0.9331,-0.9772,-1.0038,-1.0043,-1.0052,-1.0057,-1.0076,-1.0114,-1.0076,-1.009,-1.0052,-0.9866,-0.9771,-0.9682,-0.9611,-0.9573,-0.975,-1.0104,-1.0669,-1.1308,-1.1946,-1.2008,-1.1986,-1.2119,-1.2048,-1.2031,-1.2111,-1.1961,-1.189,-1.1935,-1.1902,-1.2102,-1.233,-1.2625,0.6062,0.5904,0.5885,0.585,0.5825,0.5928,0.6007,0.6051,0.6072,0.6119,0.6151,0.6165,0.6162,0.6069,0.6211,0.6268,0.6219,0.6214,0.6165,0.614,0.6032,0.5888,0.5771,0.5733,0.5427,0.5027,0.4982,0.4709,0.4324,0.4226,0.4275,0.4326,0.4269,0.4273,0.434,0.4273,0.3873,0.3358,0.2905,0.2474,0.186,0.1608,0.1793,0.242,0.4752,0.5763,0.6241,0.7137,0.7312,0.6762,0.6356,0.6128,0.6136,0.6089,0.593,0.5536,0.4453,0.3731,0.3085,0.2083,0.1487,0.1276,0.1083,-0.018,-0.1634,-0.2399,-0.3765,-0.5475,-0.6064,-0.6029,-0.5997,-0.6141,-0.6409,-0.6668,-0.6474,-0.665,-0.7153,-0.757,-0.8185,-0.8978,-0.9423,-0.951,-0.9956,-1.0038,-1.0095,-1.0157,-1.02,-1.0252,-1.0216,-1.0135,-1.0162,-1.0143,-1.009,-0.9913,-0.9871,-0.9819,-0.9875,-0.9966,-1.012,-1.0594,-1.1094,-1.1827,-1.1756,-1.1698,-1.1785,-1.1796,-1.1844,-1.1754,-1.1631,-1.1538,-1.1657,-1.1718,-1.1838,-1.2245,-1.2447,0.6239,0.595,0.6045,0.6029,0.5969,0.6059,0.6168,0.6246,0.6187,0.6198,0.6268,0.6285,0.6285,0.6195,0.6385,0.6442,0.6429,0.6382,0.6323,0.6257,0.6135,0.5964,0.57,0.5773,0.5492,0.5119,0.5027,0.4779,0.4428,0.4338,0.4373,0.4418,0.4369,0.4375,0.4418,0.4361,0.3827,0.3184,0.2935,0.2493,0.1774,0.1519,0.1797,0.2707,0.4391,0.5916,0.6987,0.7563,0.7483,0.7435,0.7794,0.7694,0.772,0.773,0.7126,0.6019,0.4908,0.3982,0.3234,0.2022,0.1135,0.0926,0.0091,-0.1082,-0.2474,-0.3733,-0.4959,-0.6107,-0.6271,-0.6328,-0.6281,-0.6336,-0.6722,-0.7374,-0.7419,-0.7561,-0.7975,-0.858,-0.9187,-0.9897,-0.9993,-1.0071,-1.0052,-1.009,-1.0181,-1.0365,-1.0428,-1.0343,-1.0381,-1.0343,-1.0272,-1.0211,-1.0229,-1.0133,-1.0031,-1.0022,-1.0135,-1.022,-1.0315,-1.0695,-1.0889,-1.1295,-1.1368,-1.1382,-1.1461,-1.1482,-1.147,-1.1333,-1.1259,-1.1218,-1.1402,-1.1451,-1.1485,-1.2092,-1.2459,0.6338,0.6184,0.6116,0.6127,0.6187,0.6219,0.6293,0.6391,0.6369,0.6361,0.6396,0.6399,0.6399,0.6407,0.651,0.6529,0.6491,0.6575,0.6597,0.6377,0.6176,0.5927,0.5718,0.5802,0.5598,0.5223,0.5041,0.4899,0.458,0.4493,0.4522,0.453,0.4512,0.4522,0.4522,0.4453,0.4127,0.3554,0.3163,0.2713,0.2091,0.1625,0.1632,0.2289,0.4892,0.6635,0.7194,0.7421,0.7153,0.6876,0.7334,0.754,0.6936,0.6728,0.6226,0.5229,0.4223,0.3597,0.3146,0.1363,-0.0192,-0.0559,-0.1013,-0.1912,-0.3514,-0.4955,-0.5713,-0.6168,-0.6285,-0.6396,-0.6423,-0.6415,-0.6926,-0.7701,-0.8137,-0.854,-0.8995,-0.9108,-0.9486,-1.0023,-1.0201,-1.0145,-1.0012,-1.0277,-1.0434,-1.0605,-1.0586,-1.061,-1.0551,-1.056,-1.049,-1.0419,-1.0343,-1.0272,-1.0249,-1.0277,-1.0405,-1.0508,-1.0612,-1.0688,-1.0992,-1.1014,-1.1114,-1.114,-1.1179,-1.1162,-1.1201,-1.1279,-1.1226,-1.1177,-1.1196,-1.14,-1.1716,-1.2068,-1.2365,0.6369,0.6271,0.6252,0.6257,0.6276,0.6325,0.638,0.6429,0.6437,0.6437,0.6437,0.6437,0.6469,0.6524,0.6589,0.6603,0.6638,0.6728,0.6703,0.6543,0.6431,0.6238,0.5914,0.5891,0.5676,0.5037,0.4986,0.4767,0.4643,0.4581,0.4585,0.4626,0.4598,0.4594,0.4712,0.4922,0.478,0.4578,0.4449,0.3985,0.2892,0.1949,0.1942,0.2805,0.5488,0.7277,0.6823,0.7399,0.7324,0.7189,0.7093,0.6734,0.5917,0.5683,0.5083,0.4119,0.3623,0.2509,0.159,0.0492,-0.0971,-0.2282,-0.2539,-0.356,-0.4678,-0.5831,-0.6192,-0.6257,-0.6355,-0.6431,-0.6426,-0.683,-0.7375,-0.7923,-0.8781,-0.9421,-1.0074,-1.0036,-0.9953,-1.0323,-1.0409,-1.0457,-1.0486,-1.0513,-1.07,-1.0784,-1.0734,-1.0749,-1.0853,-1.0844,-1.0726,-1.0645,-1.0579,-1.0523,-1.0485,-1.0537,-1.0669,-1.0768,-1.0858,-1.0929,-1.1091,-1.0963,-1.0872,-1.102,-1.1144,-1.1149,-1.1201,-1.1184,-1.1194,-1.117,-1.1258,-1.159,-1.1893,-1.2181,-1.236,0.639,0.6304,0.6396,0.6391,0.6339,0.6401,0.6445,0.6467,0.6442,0.6437,0.6437,0.6437,0.6486,0.657,0.6608,0.6692,0.6793,0.679,0.6733,0.6706,0.6612,0.6298,0.5987,0.5869,0.5586,0.4895,0.4904,0.4858,0.471,0.4618,0.4673,0.4706,0.4854,0.4962,0.5087,0.5598,0.5821,0.5529,0.568,0.5308,0.4091,0.2942,0.2935,0.3794,0.4748,0.6121,0.6088,0.669,0.7343,0.7217,0.6501,0.5504,0.4706,0.447,0.4051,0.3021,0.262,0.181,0.0602,-0.0695,-0.2162,-0.402,-0.4628,-0.5277,-0.6203,-0.6611,-0.686,-0.6839,-0.7006,-0.6825,-0.6509,-0.7319,-0.8011,-0.8587,-0.96,-1.031,-1.0942,-1.0868,-1.0716,-1.0627,-1.0617,-1.0677,-1.0681,-1.0753,-1.0863,-1.1058,-1.0905,-1.0861,-1.1057,-1.1075,-1.0934,-1.0868,-1.0801,-1.0816,-1.0792,-1.0773,-1.0905,-1.0948,-1.1047,-1.108,-1.1132,-1.109,-1.1033,-1.1023,-1.1066,-1.1146,-1.1184,-1.1189,-1.1194,-1.1194,-1.1296,-1.1497,-1.179,-1.2175,-1.236,0.6433,0.641,0.6429,0.648,0.6537,0.6472,0.6494,0.6562,0.6483,0.6437,0.6448,0.6442,0.6469,0.6513,0.6589,0.6741,0.6885,0.6874,0.6855,0.6869,0.665,0.6322,0.5928,0.573,0.532,0.5012,0.4967,0.4982,0.4771,0.4794,0.4775,0.4901,0.5383,0.5693,0.596,0.6491,0.6912,0.6713,0.6643,0.6151,0.5429,0.4522,0.3915,0.4019,0.3833,0.3959,0.4955,0.5696,0.5622,0.4296,0.4584,0.3829,0.2999,0.311,0.2812,0.1913,0.1008,0.0504,0.0201,-0.2006,-0.4074,-0.5706,-0.6438,-0.675,-0.7232,-0.775,-0.7945,-0.808,-0.8069,-0.7816,-0.6589,-0.7809,-0.9229,-1.0031,-1.022,-1.0417,-1.0979,-1.1099,-1.0972,-1.0863,-1.0834,-1.0811,-1.0905,-1.0929,-1.1025,-1.1101,-1.1033,-1.1066,-1.1127,-1.1137,-1.1066,-1.1038,-1.1028,-1.1071,-1.1113,-1.1085,-1.1113,-1.109,-1.1137,-1.1137,-1.1175,-1.1184,-1.1165,-1.1123,-1.1123,-1.117,-1.1194,-1.1194,-1.1194,-1.1194,-1.1292,-1.1394,-1.1785,-1.2181,-1.2775,0.6591,0.6535,0.6532,0.6526,0.6513,0.6464,0.6505,0.66,0.6556,0.6567,0.6611,0.663,0.6665,0.6722,0.6774,0.6885,0.6942,0.7002,0.6986,0.6989,0.6653,0.6388,0.5979,0.5687,0.5406,0.5131,0.512,0.5058,0.4849,0.483,0.5037,0.5436,0.5842,0.6142,0.6734,0.7372,0.7773,0.7872,0.7899,0.7583,0.6802,0.5522,0.421,0.3131,0.3036,0.3251,0.3755,0.4828,0.5029,0.4296,0.3959,0.3275,0.2605,0.1816,0.1412,0.0605,-0.0101,-0.0806,-0.1107,-0.342,-0.5007,-0.6869,-0.7534,-0.7798,-0.8046,-0.8376,-0.8788,-0.8721,-0.8743,-0.8616,-0.8195,-0.8909,-0.992,-1.0824,-1.0815,-1.0806,-1.11,-1.1194,-1.1127,-1.1047,-1.1033,-1.1009,-1.1,-1.1134,-1.1206,-1.1239,-1.1156,-1.1175,-1.1194,-1.117,-1.1137,-1.1132,-1.1118,-1.1142,-1.1189,-1.1189,-1.1194,-1.1194,-1.1194,-1.1194,-1.1194,-1.1194,-1.1194,-1.1175,-1.1189,-1.1194,-1.1194,-1.1194,-1.1194,-1.1194,-1.1292,-1.1394,-1.1888,-1.2386,-1.278,0.6834,0.6622,0.6646,0.66,0.6516,0.651,0.657,0.6643,0.666,0.6703,0.6793,0.6798,0.6842,0.6926,0.6961,0.6986,0.6997,0.7095,0.7089,0.695,0.6769,0.6433,0.6193,0.5865,0.5496,0.5147,0.5169,0.5112,0.4916,0.4873,0.526,0.5644,0.5939,0.6539,0.7229,0.8161,0.8657,0.9094,0.9408,0.9101,0.7886,0.5891,0.3725,0.2113,0.2922,0.312,0.3016,0.3909,0.4004,0.3618,0.3214,0.2717,0.2215,0.1009,-0.0202,-0.0907,-0.1007,-0.2114,-0.332,-0.4826,-0.6126,-0.7614,-0.8024,-0.8421,-0.8909,-0.9276,-0.9402,-0.932,-0.9316,-0.9513,-0.9702,-1.0113,-1.0511,-1.0904,-1.1198,-1.1194,-1.1194,-1.1194,-1.1194,-1.1165,-1.1194,-1.117,-1.1118,-1.1118,-1.1161,-1.1165,-1.1175,-1.1179,-1.1194,-1.1194,-1.1175,-1.1179,-1.1179,-1.1179,-1.1194,-1.1194,-1.1194,-1.1194,-1.1194,-1.1194,-1.1194,-1.1194,-1.1194,-1.1194,-1.1194,-1.1194,-1.1194,-1.1194,-1.1194,-1.1194,-1.1194,-1.1292,-1.159,-1.1986,-1.2278,0.6951,0.663,0.6738,0.6876,0.6741,0.6736,0.6755,0.6771,0.6768,0.6785,0.6834,0.6815,0.6834,0.6877,0.6961,0.6989,0.7027,0.7095,0.7141,0.7119,0.6591,0.6376,0.6253,0.5706,0.5441,0.5243,0.5245,0.5135,0.5,0.4959,0.501,0.5365,0.6348,0.7138,0.7444,0.8614,0.9657,0.9803,0.9915,0.9717,0.8987,0.7746,0.5756,0.3828,0.252,0.1918,0.2019,0.272,0.2719,0.131,0.1813,0.1208,-0.0,-0.0504,-0.1611,-0.2616,-0.3219,-0.342,-0.4323,-0.5827,-0.7332,-0.8435,-0.9031,-0.962,-0.9916,-1.0306,-1.0699,-1.09,-1.0797,-1.0699,-1.0797,-1.0998,-1.1096,-1.1096,-1.1194,-1.1194,-1.1194,-1.0998,-1.0998,-1.0998,-1.0998,-1.1096,-1.1072,-1.1179,-1.1194,-1.1194,-1.1194,-1.1194,-1.1194,-1.1194,-1.1194,-1.1194,-1.1194,-1.1194,-1.1194,-1.1194,-1.1194,-1.1194,-1.1194,-1.1194,-1.1194,-1.1194,-1.1194,-1.1194,-1.1194,-1.1194,-1.1194,-1.1194,-1.1194,-1.1194,-1.1194,-1.1194,-1.1194,-1.1585,-1.1878,0.705,0.6736,0.6965,0.689,0.6613,0.6665,0.6741,0.6793,0.6804,0.688,0.6983,0.6999,0.7002,0.7005,0.7065,0.7081,0.7092,0.7133,0.7154,0.7046,0.6606,0.6272,0.6161,0.5717,0.5349,0.5331,0.531,0.5267,0.5135,0.5122,0.5148,0.5627,0.6276,0.7036,0.7566,0.8603,0.9349,0.9686,0.9684,0.892,0.7856,0.6825,0.5443,0.3217,0.2118,0.1414,0.1111,0.1211,0.1009,-0.0,0.0302,0.0101,-0.0907,-0.1711,-0.3017,-0.382,-0.5127,-0.5727,-0.6329,-0.7528,-0.8531,-0.9438,-0.9933,-1.0117,-1.0605,-1.0998,-1.1194,-1.1194,-1.1194,-1.1194,-1.1194,-1.1194,-1.1194,-1.1194,-1.11,-1.1002,-1.1002,-1.0801,-1.0703,-1.0708,-1.0806,-1.0806,-1.09,-1.0998,-1.1096,-1.1194,-1.1194,-1.1194,-1.1194,-1.1194,-1.1194,-1.1194,-1.1194,-1.1194,-1.1194,-1.1194,-1.1194,-1.1194,-1.1194,-1.1194,-1.1194,-1.1194,-1.1194,-1.1194,-1.1194,-1.1194,-1.1194,-1.1194,-1.1194,-1.1194,-1.1194,-1.1292,-1.1292,-1.1292,-1.1585,0.7008,0.6864,0.7086,0.6973,0.663,0.6717,0.6809,0.6885,0.6899,0.6991,0.7114,0.7146,0.7146,0.7154,0.7143,0.7141,0.7152,0.7154,0.7154,0.7046,0.6604,0.6272,0.6163,0.5717,0.5382,0.5382,0.5369,0.5331,0.5249,0.5139,0.5359,0.5935,0.6087,0.6653,0.7547,0.8096,0.8618,0.9249,0.8654,0.7544,0.644,0.571,0.414,0.2517,0.1311,0.0707,0.0202,0.0101,-0.0303,-0.0908,-0.1008,-0.1109,-0.1713,-0.292,-0.3924,-0.4924,-0.6226,-0.7528,-0.7925,-0.8726,-0.9632,-1.0237,-1.0735,-1.0609,-1.0998,-1.1194,-1.1194,-1.1194,-1.1194,-1.1194,-1.1194,-1.1194,-1.1194,-1.1096,-1.0998,-1.0904,-1.0806,-1.0609,-1.0507,-1.0511,-1.0609,-1.0511,-1.0609,-1.0801,-1.0998,-1.1096,-1.1096,-1.1194,-1.1194,-1.1194,-1.1194,-1.1194,-1.1208,-1.1208,-1.1203,-1.1203,-1.1198,-1.1217,-1.1217,-1.1203,-1.1212,-1.1203,-1.1194,-1.1194,-1.1194,-1.1194,-1.1194,-1.1194,-1.1194,-1.1194,-1.1194,-1.1389,-1.1389,-1.1292,-1.1482,0.6877,0.698,0.6979,0.6998,0.7065,0.7114,0.7111,0.7084,0.7105,0.7116,0.7152,0.7154,0.7154,0.7154,0.7154,0.7154,0.7154,0.7154,0.7154,0.7046,0.6606,0.6383,0.6051,0.5719,0.5382,0.5382,0.5382,0.5377,0.5349,0.5261,0.5169,0.521,0.5796,0.623,0.6843,0.744,0.7691,0.7995,0.7261,0.6492,0.5733,0.4834,0.3332,0.0907,-0.0202,-0.0707,-0.0706,-0.0706,-0.1109,-0.1816,-0.1917,-0.232,-0.3025,-0.4128,-0.5031,-0.5929,-0.7322,-0.8421,-0.9019,-0.9316,-0.9715,-1.0113,-1.0609,-1.0904,-1.1096,-1.1194,-1.1194,-1.1194,-1.1194,-1.1194,-1.1194,-1.1194,-1.1194,-1.1096,-1.0998,-1.0801,-1.0605,-1.0507,-1.0408,-1.0413,-1.0314,-1.0216,-1.0314,-1.0413,-1.0801,-1.09,-1.1096,-1.1194,-1.1194,-1.1194,-1.1194,-1.1198,-1.1222,-1.1227,-1.1222,-1.1255,-1.1359,-1.1255,-1.1227,-1.118,-1.1241,-1.1222,-1.1194,-1.1194,-1.1194,-1.1194,-1.1292,-1.158,-1.158,-1.1292,-1.1292,-1.1292,-1.1487,-1.1482,-1.1873,0.7086,0.7095,0.7138,0.707,0.6942,0.7018,0.7048,0.7051,0.7051,0.7095,0.7154,0.7154,0.7154,0.7154,0.7154,0.7154,0.7154,0.7154,0.7154,0.7046,0.6604,0.6383,0.6051,0.5717,0.5382,0.5382,0.5382,0.5382,0.5371,0.5335,0.5322,0.5368,0.56,0.5854,0.6368,0.6898,0.7209,0.6838,0.6469,0.5822,0.4775,0.4099,0.2823,0.1008,-0.1613,-0.1817,-0.1613,-0.1513,-0.2017,-0.2522,-0.2725,-0.3229,-0.4031,-0.5131,-0.6029,-0.6927,-0.8322,-0.9118,-0.9616,-0.9912,-1.0113,-1.0212,-1.0511,-1.0801,-1.09,-1.0998,-1.1096,-1.1096,-1.1203,-1.1222,-1.1203,-1.1198,-1.1194,-1.1096,-1.1007,-1.0721,-1.0507,-1.031,-1.0113,-1.0117,-0.992,-0.9821,-0.992,-1.0019,-1.0408,-1.0703,-1.0998,-1.1194,-1.1194,-1.1194,-1.1194,-1.1246,-1.1279,-1.134,-1.135,-1.1439,-1.1447,-1.14,-1.1344,-1.1292,-1.1241,-1.1222,-1.1198,-1.1194,-1.1389,-1.1585,-1.1775,-1.2063,-1.2063,-1.1868,-1.1482,-1.1194,-1.1385,-1.177,-1.2344,0.7154,0.7154,0.7154,0.7062,0.6929,0.6999,0.7037,0.7035,0.7043,0.7073,0.7154,0.7154,0.7154,0.7154,0.7154,0.7154,0.7154,0.7154,0.7154,0.6935,0.6606,0.6383,0.6051,0.5717,0.5382,0.5382,0.5382,0.5382,0.5382,0.5382,0.5369,0.5326,0.5263,0.5645,0.5936,0.6497,0.6527,0.6022,0.5755,0.5051,0.3715,0.3361,0.1914,0.0302,-0.2017,-0.2725,-0.2522,-0.2422,-0.2623,-0.2928,-0.323,-0.3731,-0.4732,-0.5829,-0.6924,-0.7922,-0.8924,-0.9624,-0.992,-1.0216,-1.0413,-1.0413,-1.0413,-1.0511,-1.0609,-1.0708,-1.09,-1.1007,-1.1142,-1.1293,-1.1298,-1.1373,-1.1368,-1.1392,-1.0952,-1.064,-1.0444,-1.0117,-0.992,-0.9723,-0.9628,-0.9632,-0.9834,-0.9937,-1.0345,-1.0627,-1.0801,-1.1096,-1.1194,-1.1194,-1.1194,-1.1269,-1.1359,-1.1435,-1.1515,-1.1619,-1.1597,-1.1578,-1.1517,-1.1346,-1.1367,-1.1245,-1.1222,-1.1194,-1.1389,-1.1878,-1.2165,-1.2446,-1.2446,-1.2349,-1.2252,-1.2252,-1.2538,-1.3017,-1.3188,0.7154,0.7154,0.7154,0.7149,0.7122,0.7146,0.7143,0.7133,0.7135,0.7143,0.7154,0.7154,0.7154,0.7154,0.7154,0.7154,0.7154,0.7154,0.7154,0.7046,0.6606,0.6383,0.6051,0.5717,0.5382,0.5382,0.5382,0.5382,0.5382,0.5382,0.5382,0.527,0.5232,0.5208,0.5345,0.5192,0.5065,0.4971,0.4883,0.3685,0.2776,0.265,0.1114,-0.0912,-0.2524,-0.3029,-0.3029,-0.2927,-0.3029,-0.313,-0.323,-0.3833,-0.5033,-0.5927,-0.6921,-0.812,-0.9027,-0.9529,-0.9624,-1.0122,-1.0336,-1.0319,-1.0216,-1.031,-1.0413,-1.0618,-1.0744,-1.0888,-1.1197,-1.1391,-1.1572,-1.1638,-1.1494,-1.136,-1.0914,-1.0681,-1.0388,-1.025,-0.9975,-0.9795,-0.9709,-0.9644,-0.9747,-0.9954,-1.0276,-1.0564,-1.0721,-1.0909,-1.1114,-1.1157,-1.118,-1.1354,-1.1472,-1.1614,-1.1709,-1.1794,-1.1846,-1.1831,-1.1704,-1.1658,-1.1439,-1.1304,-1.1283,-1.1255,-1.1888,-1.2581,-1.2748,-1.2823,-1.3494,-1.4166,-1.3788,-1.3788,-1.4076,-1.4166,-1.4244,0.7154,0.7154,0.7154,0.7154,0.7154,0.7154,0.7154,0.7154,0.7154,0.7154,0.7154,0.7154,0.7154,0.7154,0.7154,0.7154,0.7154,0.7154,0.7154,0.7157,0.6606,0.6383,0.6051,0.5717,0.5382,0.5382,0.5382,0.5382,0.5382,0.5382,0.5382,0.527,0.4585,0.4641,0.4783,0.4578,0.3992,0.369,0.3062,0.216,0.1448,0.1442,0.0616,-0.1745,-0.2748,-0.3243,-0.3244,-0.3247,-0.3245,-0.324,-0.3238,-0.4138,-0.5432,-0.6423,-0.722,-0.852,-0.9529,-0.9628,-0.9665,-0.99,-1.0037,-0.9983,-0.9937,-1.004,-1.0122,-1.0349,-1.0488,-1.0751,-1.1193,-1.1285,-1.1227,-1.1353,-1.133,-1.112,-1.0789,-1.0784,-1.0536,-1.0425,-1.033,-1.0137,-0.9985,-0.9961,-1.0055,-0.9989,-1.0281,-1.0505,-1.0703,-1.0843,-1.1001,-1.1088,-1.1143,-1.14,-1.1605,-1.1775,-1.1907,-1.2006,-1.2101,-1.2134,-1.2091,-1.2025,-1.1779,-1.1597,-1.1452,-1.1439,-1.2413,-1.3283,-1.3665,-1.4232,-1.552,-1.6082,-1.5465,-1.4873,-1.4651,-1.493,-1.5203,0.7154,0.7154,0.7154,0.7154,0.7154,0.7154,0.7154,0.7154,0.7154,0.7154,0.7154,0.7154,0.7154,0.7154,0.7154,0.7154,0.7154,0.7154,0.7154,0.7157,0.6606,0.6383,0.6049,0.5717,0.5493,0.5382,0.5382,0.5382,0.5382,0.5382,0.5156,0.448,0.3578,0.3405,0.3446,0.3075,0.2835,0.2575,0.2057,0.1349,0.0835,0.0523,-0.0,-0.1774,-0.2907,-0.3298,-0.3296,-0.329,-0.3281,-0.3372,-0.3766,-0.4558,-0.5947,-0.6924,-0.7822,-0.9122,-0.9624,-0.9657,-0.9846,-0.9799,-0.994,-0.9961,-0.9766,-0.9817,-1.0046,-1.0294,-1.0472,-1.0754,-1.1097,-1.1159,-1.1089,-1.1308,-1.1243,-1.1028,-1.088,-1.077,-1.0589,-1.0573,-1.0364,-1.0285,-1.0197,-1.0209,-1.0241,-1.0176,-1.0319,-1.0452,-1.0577,-1.071,-1.0947,-1.113,-1.1323,-1.1471,-1.1761,-1.1926,-1.2091,-1.2233,-1.2328,-1.2422,-1.2342,-1.2224,-1.2211,-1.2026,-1.177,-1.1841,-1.2883,-1.3882,-1.4777,-1.5678,-1.6635,-1.701,-1.658,-1.5945,-1.5445,-1.5602,-1.5974,0.7152,0.7154,0.7154,0.7154,0.7154,0.7154,0.7154,0.7154,0.7154,0.7154,0.7154,0.7154,0.7154,0.7154,0.7154,0.7154,0.7154,0.7154,0.7154,0.7046,0.6604,0.6383,0.6049,0.5714,0.5493,0.5382,0.5382,0.5382,0.5382,0.5044,0.448,0.3358,0.2239,0.1868,0.1618,0.1386,0.1371,0.135,0.1048,0.0211,-0.0532,0.0214,-0.0854,-0.2344,-0.3391,-0.3487,-0.3382,-0.3382,-0.3466,-0.3756,-0.435,-0.5424,-0.6486,-0.7441,-0.8538,-0.9355,-0.9681,-0.9916,-1.0087,-1.0047,-1.0145,-1.0211,-1.0063,-0.9961,-1.0047,-1.0265,-1.046,-1.0644,-1.0962,-1.1137,-1.1296,-1.1362,-1.1428,-1.116,-1.0984,-1.0801,-1.0586,-1.0451,-1.0346,-1.0253,-1.0262,-1.0298,-1.0391,-1.0371,-1.0327,-1.0478,-1.0703,-1.086,-1.1028,-1.1358,-1.153,-1.1648,-1.185,-1.2087,-1.2238,-1.2252,-1.2398,-1.2436,-1.2432,-1.2337,-1.2335,-1.2341,-1.2083,-1.2383,-1.3497,-1.45,-1.5363,-1.6431,-1.7547,-1.7588,-1.7355,-1.7095,-1.6505,-1.6602,-1.685,0.7194,0.7152,0.7154,0.7154,0.7154,0.7154,0.7154,0.7154,0.7154,0.7154,0.7154,0.7154,0.7154,0.7154,0.7154,0.7154,0.7154,0.7154,0.7154,0.6935,0.6604,0.6383,0.6049,0.5714,0.5493,0.5382,0.5382,0.527,0.5044,0.4706,0.2911,0.112,0.0784,0.011,-0.0327,-0.0758,-0.0213,0.0106,-0.0214,-0.1189,-0.1848,-0.1422,-0.251,-0.3474,-0.3977,-0.386,-0.3749,-0.3746,-0.3934,-0.4757,-0.4956,-0.5865,-0.7936,-0.8336,-0.8962,-1.0125,-1.031,-1.0305,-1.046,-1.0526,-1.0547,-1.0564,-1.0617,-1.0383,-1.0286,-1.0367,-1.0486,-1.0663,-1.0816,-1.0978,-1.1,-1.105,-1.1093,-1.1054,-1.0895,-1.0746,-1.0654,-1.0547,-1.044,-1.044,-1.0444,-1.0456,-1.055,-1.0558,-1.053,-1.0695,-1.0703,-1.0978,-1.1143,-1.1363,-1.1631,-1.1741,-1.1884,-1.2,-1.2196,-1.2309,-1.2318,-1.2436,-1.2323,-1.2313,-1.2351,-1.2354,-1.2254,-1.271,-1.3492,-1.4692,-1.5908,-1.6873,-1.7717,-1.82,-1.8061,-1.7962,-1.7772,-1.7625,-1.7479,0.7163,0.7149,0.7154,0.7154,0.7149,0.7108,0.7086,0.7095,0.7133,0.7154,0.7154,0.7154,0.7154,0.7154,0.7154,0.7154,0.7154,0.7154,0.7154,0.7046,0.6604,0.6383,0.6049,0.5717,0.5493,0.5382,0.527,0.5156,0.4369,0.2912,0.112,0.0224,-0.0336,-0.111,-0.1427,-0.1526,-0.1406,-0.1294,-0.163,-0.2644,-0.3107,-0.3452,-0.4322,-0.4847,-0.4895,-0.5,-0.4774,-0.4774,-0.5297,-0.6015,-0.6216,-0.7143,-0.8829,-0.9245,-0.9824,-1.0796,-1.0847,-1.065,-1.0708,-1.0783,-1.0899,-1.1015,-1.1052,-1.0858,-1.0741,-1.068,-1.068,-1.0798,-1.0794,-1.0903,-1.0798,-1.0798,-1.0798,-1.0684,-1.0684,-1.0684,-1.0676,-1.0676,-1.0676,-1.0672,-1.0668,-1.066,-1.068,-1.0692,-1.0688,-1.0672,-1.0664,-1.0757,-1.105,-1.1333,-1.1509,-1.1617,-1.1733,-1.1887,-1.2068,-1.2223,-1.2223,-1.2223,-1.2223,-1.2209,-1.2304,-1.2375,-1.2285,-1.2758,-1.3345,-1.4561,-1.5858,-1.6708,-1.7524,-1.8102,-1.8611,-1.8508,-1.8339,-1.8147,-1.7904,0.713,0.7119,0.7135,0.7133,0.7127,0.7046,0.7008,0.6997,0.7092,0.713,0.7116,0.7254,0.7146,0.7124,0.7141,0.7154,0.7154,0.7154,0.7154,0.7154,0.6604,0.6272,0.6049,0.5714,0.5493,0.5382,0.4933,0.4257,0.291,0.1567,0.0448,-0.0224,-0.1121,-0.1674,-0.1775,-0.1763,-0.1761,-0.1891,-0.2106,-0.2781,-0.4136,-0.5039,-0.5826,-0.6584,-0.6924,-0.7279,-0.7041,-0.7019,-0.7216,-0.7574,-0.8043,-0.8749,-0.9739,-1.04,-1.1117,-1.1406,-1.1368,-1.1257,-1.1155,-1.1226,-1.1226,-1.1355,-1.1256,-1.1252,-1.1179,-1.0936,-1.0858,-1.081,-1.09,-1.0822,-1.0802,-1.0802,-1.0692,-1.0692,-1.0692,-1.0692,-1.0692,-1.0692,-1.0692,-1.0692,-1.0692,-1.0692,-1.0692,-1.0692,-1.0692,-1.0692,-1.0692,-1.0802,-1.1017,-1.1328,-1.1332,-1.1538,-1.1633,-1.1733,-1.1755,-1.1896,-1.201,-1.201,-1.2133,-1.2327,-1.2639,-1.2526,-1.2313,-1.2685,-1.326,-1.4362,-1.5553,-1.6573,-1.7639,-1.849,-1.8934,-1.9051,-1.8918,-1.8603,-1.8375,0.6884,0.6893,0.6986,0.7027,0.7035,0.7089,0.7056,0.6989,0.701,0.6967,0.6929,0.7051,0.7097,0.7035,0.7097,0.7122,0.713,0.7127,0.7041,0.6818,0.6487,0.6161,0.5935,0.5603,0.5382,0.5044,0.4369,0.2911,0.1344,0.0224,-0.0561,-0.1234,-0.1795,-0.1794,-0.1808,-0.1795,-0.1907,-0.2287,-0.2386,-0.293,-0.4167,-0.5378,-0.6341,-0.7412,-0.8182,-0.871,-0.8348,-0.75,-0.7939,-0.8575,-0.891,-0.9908,-1.1215,-1.1585,-1.1908,-1.2127,-1.2114,-1.1977,-1.1824,-1.1782,-1.1769,-1.1653,-1.1651,-1.161,-1.1512,-1.1175,-1.0972,-1.0919,-1.0838,-1.0749,-1.0692,-1.0692,-1.0692,-1.0692,-1.0712,-1.0708,-1.0712,-1.0712,-1.0712,-1.0704,-1.0704,-1.0692,-1.0692,-1.0692,-1.0692,-1.0692,-1.0692,-1.0802,-1.1244,-1.1459,-1.1169,-1.127,-1.1463,-1.1568,-1.1608,-1.1652,-1.1811,-1.1995,-1.2105,-1.2502,-1.2886,-1.2403,-1.2064,-1.254,-1.3166,-1.4495,-1.5747,-1.674,-1.7684,-1.8669,-1.9074,-1.9162,-1.9199,-1.895,-1.8672,0.6719,0.7,0.6956,0.695,0.6921,0.6972,0.6931,0.6836,0.6823,0.6752,0.6687,0.6872,0.6961,0.6904,0.6972,0.701,0.7021,0.7059,0.6952,0.6638,0.6359,0.6156,0.5826,0.5491,0.4929,0.448,0.2687,0.112,-0.0,-0.0673,-0.1346,-0.1795,-0.1797,-0.1809,-0.1832,-0.1817,-0.194,-0.2231,-0.2322,-0.2876,-0.3876,-0.461,-0.6029,-0.7347,-0.9091,-0.9742,-0.9878,-0.9124,-0.9467,-0.9997,-1.0331,-1.0769,-1.174,-1.2194,-1.2579,-1.2694,-1.2772,-1.2785,-1.2619,-1.2316,-1.2023,-1.1856,-1.1811,-1.1723,-1.1553,-1.124,-1.1126,-1.1053,-1.0814,-1.0704,-1.0692,-1.0692,-1.0692,-1.0692,-1.0806,-1.0879,-1.0891,-1.0907,-1.0883,-1.0846,-1.0798,-1.0692,-1.0692,-1.0692,-1.0696,-1.0724,-1.072,-1.0855,-1.1177,-1.1568,-1.1249,-1.1167,-1.1402,-1.1454,-1.1318,-1.156,-1.1781,-1.1957,-1.2108,-1.2644,-1.2947,-1.2223,-1.1815,-1.2521,-1.365,-1.5279,-1.6342,-1.7166,-1.7996,-1.8887,-1.9117,-1.9242,-1.9279,-1.9175,-1.8935,0.6632,0.7078,0.6978,0.681,0.6823,0.6847,0.6774,0.6649,0.6641,0.6573,0.6488,0.6671,0.6749,0.6777,0.6801,0.6804,0.6836,0.6818,0.6737,0.6473,0.6318,0.5908,0.5708,0.5491,0.4592,0.3135,0.1344,0.0448,-0.0448,-0.1121,-0.157,-0.1795,-0.1802,-0.1812,-0.1827,-0.1827,-0.195,-0.2112,-0.2233,-0.2459,-0.291,-0.3236,-0.5077,-0.7268,-0.9835,-1.1118,-1.1315,-1.1252,-1.1248,-1.1306,-1.1444,-1.1803,-1.2248,-1.2752,-1.2993,-1.3124,-1.3119,-1.3131,-1.298,-1.2561,-1.212,-1.1807,-1.1864,-1.1683,-1.1512,-1.1362,-1.1244,-1.1122,-1.0887,-1.0712,-1.0704,-1.07,-1.07,-1.0741,-1.0883,-1.1033,-1.1062,-1.1078,-1.1037,-1.0988,-1.0875,-1.0753,-1.0704,-1.0704,-1.0733,-1.0761,-1.0904,-1.0921,-1.1184,-1.1401,-1.1356,-1.1406,-1.1558,-1.1507,-1.131,-1.1413,-1.1718,-1.1912,-1.2077,-1.273,-1.2995,-1.2353,-1.2332,-1.2955,-1.4186,-1.5839,-1.6887,-1.7687,-1.8429,-1.9168,-1.9071,-1.9175,-1.9071,-1.9071,-1.8966,0.6427,0.6541,0.6735,0.6703,0.6736,0.6997,0.6912,0.6662,0.6717,0.6646,0.6491,0.6469,0.6551,0.6662,0.6766,0.6785,0.6752,0.6608,0.637,0.6228,0.6037,0.576,0.5361,0.4931,0.392,0.224,0.056,-0.0448,-0.1009,-0.157,-0.1795,-0.1795,-0.1795,-0.1819,-0.1864,-0.1859,-0.1857,-0.2013,-0.2269,-0.2504,-0.2494,-0.3057,-0.405,-0.65,-0.9634,-1.0809,-1.1433,-1.1382,-1.1427,-1.1511,-1.1863,-1.2272,-1.2754,-1.3072,-1.3199,-1.3175,-1.3291,-1.3122,-1.28,-1.2538,-1.2072,-1.1585,-1.1626,-1.1654,-1.148,-1.1301,-1.1248,-1.1289,-1.1057,-1.0781,-1.0729,-1.0729,-1.0733,-1.0818,-1.094,-1.1102,-1.1204,-1.1187,-1.1159,-1.1082,-1.098,-1.0863,-1.0761,-1.0785,-1.0834,-1.0879,-1.0964,-1.1097,-1.172,-1.1701,-1.1565,-1.1615,-1.167,-1.1512,-1.1252,-1.1289,-1.1504,-1.171,-1.2016,-1.2634,-1.2862,-1.2682,-1.2898,-1.3547,-1.4939,-1.6593,-1.7516,-1.8213,-1.8639,-1.9175,-1.8966,-1.8974,-1.8862,-1.8855,-1.875]},{"header":{"parameterUnit":"m.s-1","parameterCategory":1,"la1":31.0,"la2":29.5877,"lo1":-88.7671,"lo2":-86.6584,"dy":0.0162,"dx":0.0185,"nx":115,"ny":88,"refTime":"2023-05-17T06:00:00:Z","depth":0,"parameterNumber":3,"parameterNumberName":"V-component_of_WINDS"},"data":[0.0,0.0,0.0,0.0,0.0,0.0,0.0,0.0,0.0,0.0,0.0,0.0,0.0,0.0,0.0,0.0,0.0,0.0,0.0,0.0,0.0,0.0,0.0,0.0,0.0,0.0,0.0,0.0,0.0,0.0,0.0,0.0,0.0,0.0,0.0,0.0,0.0,0.0,0.0,0.0,0.0,0.0,0.0,0.0,0.0,0.0,0.0,0.0,0.0,0.0,0.0,0.0,0.0,0.0,0.0,0.0,0.0,0.0,0.0,0.0,0.0,0.0,0.0,0.0,0.0,0.0,0.0,0.0,0.0,0.0,0.0,0.0,0.0,0.0,0.0,0.0,0.0,0.0,0.0,0.0,0.0,0.0,0.0,0.0,0.0,0.0,0.0,0.0,0.0,0.0,0.0,0.0,0.0,0.0,0.0,0.0,0.0,0.0,0.0,0.0,0.0,0.0,0.0,0.0,0.0,0.0,0.0,0.0,0.0,0.0,0.0,0.0,0.0,0.0,0.0,0.0,0.0,0.0,0.0,0.0,0.0,0.0,0.0,0.0,0.0,0.0,0.0,0.0,0.0,0.0,0.0,0.0,0.0,0.0,0.0,0.0,0.0,0.0,0.0,0.0,0.0,0.0,0.0,0.0,0.0,0.0,0.0,0.0,0.0,0.0,0.0,0.0,0.0,0.0,0.0,0.0,0.0,0.0,0.0,0.0,0.0,0.0,0.0,0.0,0.0,0.0,0.0,0.0,0.0,0.0,0.0,0.0,0.0,0.0,0.0,0.0,0.0,0.0,0.0,0.0,0.0,0.0,0.0,0.0,0.0,0.0,0.0,0.0,0.0,0.0,0.0,0.0,0.0,0.0,0.0,0.0,0.0,0.0,0.0,0.0,0.0,0.0,0.0,0.0,0.0,0.0,0.0,0.0,0.0,0.0,0.0,0.0,0.0,0.0,0.0,0.0,0.0,0.0,0.0,0.0,0.0,0.0,0.0,0.0,0.0,0.0,0.0,0.0,0.0,0.0,0.0,0.0,0.0,0.0,0.0,0.0,0.0,0.0,0.0,0.0,0.0,0.0,0.0,0.0,0.0,0.0,0.0,0.0,0.0,0.0,0.0,0.0,0.0,0.0,0.0,0.0,0.0,0.0,0.0,0.0,0.0,0.0,0.0,0.0,0.0,0.0,0.0,0.0,0.0,0.0,0.0,0.0,0.0,0.0,0.0,0.0,0.0,0.0,0.0,0.0,0.0,0.0,0.0,0.0,0.0,0.0,0.0,0.0,0.0,0.0,0.0,0.0,0.0,0.0,0.0,0.0,0.0,0.0,0.0,0.0,0.0,0.0,0.0,0.0,0.0,0.0,0.0,0.0,0.0,0.0,0.0,0.0,0.0,0.0,0.0,0.0,0.0,0.0,0.0,0.0,0.0,0.0,0.0,0.0,0.0,0.0,0.0,0.0,0.0,0.0,0.0,0.0,0.0,0.0,0.0,0.0,0.0,0.0,0.0,0.0,0.0,0.0,0.0,0.0,0.0,0.0,0.0,0.0,0.0,0.0,0.0,0.0,0.0,0.0,0.0,0.0,0.0,0.0,0.0,0.0,0.0,0.0,0.0,0.0,0.0,0.0,0.0,0.0,0.0,0.0,0.0,0.0,0.0,0.0,0.0,0.0,0.0,0.0,0.0,0.0,0.0,0.0,0.0,0.0,0.0,0.0,0.0,0.0,0.0,0.0,0.0,0.0,0.0,0.0,0.0,0.0,0.0,0.0,0.0,0.0,0.0,0.0,0.0,0.0,0.0,0.0,0.0,0.0,0.0,0.0,0.0,0.0,0.0,0.0,0.0,0.0,0.0,0.0,0.0,0.0,0.0,0.0,0.0,0.0,0.0,0.0,0.0,0.0,0.0,0.0,0.0,0.0,0.0,0.0,0.0,0.0,0.0,0.0,0.0,0.0,0.0,0.0,0.0,0.0,0.0,0.0,0.0,0.0,0.0,0.0,0.0,0.0,0.0,0.0,0.0,0.0,0.0,0.0,0.0,0.0,0.0,0.0,0.0,0.0,0.0,0.0,0.0,0.0,0.0,0.0,0.0,0.0,0.0,0.0,0.0,0.0,0.0,0.0,0.0,0.0,0.0,0.0,0.0,0.0,0.0,0.0,0.0,0.0,0.0,0.0,0.0,0.0,0.0,0.0,0.0,0.0,0.0,0.0,0.0,0.0,0.0,0.0,0.0,0.0,0.0,0.0,0.0,0.0,0.0,0.0,0.0,0.0,0.0,0.0,0.0,0.0,0.0,0.0,0.0,0.0,0.0,0.0,0.0,0.0,0.0,0.0,0.0,0.0,0.0,0.0,0.0,0.0,0.0,0.0,0.0,0.0,0.0,0.0,0.0,0.0,0.0,0.0,0.0,0.0,0.0,0.0,0.0,0.0,0.0,0.0,0.0,0.0,0.0,0.0,0.0,0.0,0.0,0.0,0.0,0.0,0.0,0.0,0.0,0.0,0.0,0.0,0.0,0.0,0.0,0.0,0.0,0.0,0.0,0.0,0.0,0.0,0.0,0.0,0.0,0.0,0.0,0.0,0.0,0.0,0.0,0.0,0.0,0.0,0.0,0.0,0.0,0.0,0.0,0.0,0.0,0.0,0.0,0.0,0.0,0.0,0.0,0.0,0.0,0.0,0.0,0.0,0.0,0.0,0.0,0.0,0.0,0.0,0.0,0.0,0.0,0.0,0.0,0.0,0.0,0.0,0.0,0.0,0.0,0.0,0.0,0.0,0.0,0.0,0.0,0.0,0.0,0.0,0.0,0.0,0.0,0.0,0.0,0.0,0.0,0.0,0.0,0.0,0.0,0.0,0.0,0.0,0.0,0.0,0.0,0.0,0.0,0.0,0.0,0.0,0.0,0.0,0.0,0.0,0.0,0.0,0.0,0.0,0.0,0.0,0.0,0.0,0.0,0.0,0.0,0.0,0.0,0.0,0.0,0.0,0.0,0.0,0.0,0.0,0.0,0.0,0.0,0.0,0.0,0.0,0.0,0.0,0.0,0.0,0.0,0.0,0.0,0.0,0.0,0.0,0.0,0.0,0.0,0.0,0.0,0.0,0.0,0.0,0.0,0.0,0.0,0.0,0.0,0.0,0.0,0.0,0.0,0.0,0.0,0.0,0.0,0.0,0.0,0.0,0.0,0.0,0.0,0.0,0.0,0.0,0.0,0.0,0.0,0.0,0.0,0.0,0.0,0.0,0.0,0.0,0.0,0.0,0.0,0.0,0.0,0.0,0.0,0.0,0.0,0.0,0.0,0.0,0.0,0.0,0.0,0.0,0.0,0.0,0.0,0.0,0.0,0.0,0.0,0.0,0.0,0.0,0.0,0.0,0.0,0.0,0.0,0.0,0.0,0.0,0.0,0.0,0.0,0.0,0.0,0.0,0.0,0.0,0.0,0.0,0.0,0.0,0.0,0.0,0.0,0.0,0.0,0.0,0.0,0.0,0.0,0.0,0.0,0.0,0.0,0.0,0.0,0.0,0.0,0.0,0.0,0.0,0.0,0.0,0.0,0.0,0.0,0.0,0.0,0.0,0.0,0.0,0.0,0.0,0.0,0.0,0.0,0.0,0.0,0.0,0.0,0.0,0.0,0.0,0.0,0.0,0.0,0.0,0.0,0.0,0.0,0.0,0.0,0.0,0.0,0.0,0.0,0.0,0.0,0.0,0.0,0.0,0.0,0.0,0.0,0.0,0.0,0.0,0.0,0.0,0.0,0.0,0.0,0.0,0.0,0.0,0.0,0.0,0.0,0.0,0.0,0.0,0.0,0.0,0.0,0.0,0.0,0.0,0.0,0.0,0.0,0.0,0.0,0.0,0.0,0.0,0.0,0.0,0.0,0.0,0.0,0.0,0.0,0.0,0.0,0.0,0.0,0.0,0.0,0.0,0.0,0.0,0.0,0.0,0.0,0.0,0.0,0.0,0.0,0.0,0.0,0.0,0.0,0.0,0.0,0.0,0.0,0.0,0.0,0.0,0.0,0.0,0.0,0.0,0.0,0.0,0.0,0.0,0.0,0.0,0.0,0.0,0.0,0.0,0.0,0.0,0.0,0.0,0.0,0.0,0.0,0.0,0.0,0.0,0.0,0.0,0.0,0.0,0.0,0.0,0.0,0.0,0.0,0.0,0.0,0.0,0.0,0.0,0.0,0.0,0.0,0.0,0.0,0.0,0.0,0.0,0.0,0.0,0.0,0.0,0.0,0.0,0.0,0.0,0.0,0.0,0.0,0.0,-1.6372,0.0,0.0,0.0,0.0,0.0,0.0,0.0,0.0,0.0,0.0,0.0,0.0,0.0,0.0,0.0,0.0,0.0,0.0,0.0,0.0,0.0,0.0,0.0,0.0,0.0,0.0,0.0,0.0,0.0,0.0,0.0,0.0,0.0,0.0,0.0,0.0,0.0,0.0,0.0,0.0,0.0,0.0,0.0,0.0,0.0,0.0,0.0,0.0,0.0,0.0,0.0,0.0,0.0,0.0,0.0,0.0,0.0,0.0,0.0,0.0,0.0,0.0,0.0,0.0,0.0,0.0,0.0,0.0,0.0,0.0,0.0,0.0,0.0,0.0,0.0,0.0,0.0,0.0,0.0,0.0,0.0,0.0,0.0,0.0,0.0,0.0,0.0,0.0,0.0,0.0,0.0,0.0,0.0,0.0,0.0,0.0,0.0,0.0,0.0,0.0,0.0,0.0,0.0,0.0,0.0,0.0,0.0,0.0,0.0,0.0,-1.5387,-1.5349,-1.5352,-1.5776,-1.66,0.0,0.0,0.0,0.0,0.0,0.0,0.0,0.0,0.0,0.0,0.0,0.0,0.0,0.0,0.0,0.0,0.0,0.0,0.0,0.0,0.0,0.0,0.0,0.0,0.0,0.0,0.0,0.0,0.0,0.0,0.0,0.0,0.0,0.0,0.0,0.0,0.0,0.0,0.0,0.0,0.0,0.0,0.0,0.0,0.0,0.0,0.0,0.0,0.0,0.0,0.0,0.0,0.0,0.0,0.0,0.0,0.0,0.0,0.0,0.0,0.0,0.0,0.0,0.0,0.0,0.0,0.0,0.0,0.0,0.0,0.0,0.0,0.0,0.0,0.0,0.0,0.0,0.0,0.0,0.0,0.0,0.0,0.0,0.0,0.0,0.0,0.0,0.0,0.0,0.0,0.0,0.0,0.0,0.0,0.0,0.0,0.0,0.0,0.0,0.0,0.0,0.0,0.0,0.0,0.0,0.0,0.0,0.0,0.0,0.0,0.0,0.0,-1.5507,-1.5802,-1.6671,0.0,0.0,0.0,0.0,0.0,0.0,0.0,0.0,0.0,0.0,0.0,0.0,0.0,0.0,0.0,0.0,0.0,0.0,0.0,0.0,0.0,0.0,0.0,0.0,0.0,0.0,0.0,0.0,0.0,0.0,0.0,0.0,0.0,0.0,0.0,0.0,0.0,0.0,0.0,0.0,0.0,0.0,0.0,0.0,0.0,0.0,0.0,0.0,0.0,0.0,0.0,0.0,0.0,0.0,0.0,0.0,0.0,0.0,0.0,0.0,0.0,0.0,0.0,0.0,0.0,0.0,0.0,0.0,0.0,0.0,0.0,0.0,0.0,0.0,0.0,0.0,0.0,0.0,0.0,0.0,0.0,0.0,0.0,0.0,0.0,0.0,0.0,0.0,0.0,0.0,0.0,0.0,0.0,0.0,0.0,0.0,0.0,0.0,0.0,0.0,0.0,0.0,0.0,0.0,0.0,0.0,0.0,0.0,0.0,0.0,-1.5777,-1.6531,-1.5823,0.0,-1.6622,0.0,0.0,0.0,0.0,0.0,0.0,0.0,0.0,0.0,0.0,0.0,0.0,0.0,0.0,0.0,0.0,0.0,0.0,0.0,0.0,0.0,0.0,0.0,0.0,0.0,0.0,0.0,0.0,0.0,0.0,0.0,0.0,0.0,0.0,0.0,0.0,0.0,0.0,0.0,0.0,0.0,0.0,0.0,0.0,0.0,0.0,0.0,0.0,0.0,0.0,0.0,0.0,0.0,0.0,0.0,0.0,0.0,0.0,0.0,0.0,0.0,0.0,0.0,0.0,0.0,0.0,0.0,0.0,0.0,0.0,0.0,0.0,0.0,0.0,0.0,0.0,0.0,0.0,0.0,0.0,0.0,0.0,0.0,0.0,0.0,0.0,0.0,0.0,0.0,0.0,0.0,0.0,0.0,0.0,0.0,0.0,0.0,0.0,0.0,0.0,0.0,0.0,0.0,0.0,0.0,0.0,0.0,0.0,0.0,0.0,-1.5565,-1.5925,-1.6088,-1.6326,0.0,0.0,0.0,0.0,0.0,0.0,0.0,0.0,0.0,0.0,0.0,0.0,0.0,0.0,0.0,0.0,0.0,0.0,0.0,0.0,0.0,0.0,0.0,0.0,0.0,0.0,0.0,0.0,0.0,0.0,0.0,0.0,0.0,0.0,0.0,0.0,0.0,0.0,0.0,0.0,0.0,0.0,0.0,0.0,0.0,0.0,0.0,0.0,0.0,0.0,0.0,0.0,0.0,0.0,0.0,0.0,0.0,0.0,0.0,0.0,0.0,0.0,0.0,0.0,0.0,0.0,0.0,0.0,0.0,0.0,0.0,0.0,0.0,0.0,0.0,0.0,0.0,0.0,0.0,0.0,0.0,0.0,0.0,0.0,0.0,0.0,0.0,0.0,0.0,0.0,0.0,0.0,0.0,0.0,0.0,0.0,0.0,0.0,0.0,0.0,0.0,0.0,0.0,0.0,0.0,0.0,0.0,0.0,0.0,0.0,-1.5898,-1.5756,-1.577,-1.6133,-1.6581,-1.7029,0.0,0.0,0.0,0.0,0.0,0.0,0.0,0.0,0.0,0.0,0.0,0.0,0.0,0.0,0.0,0.0,0.0,0.0,0.0,0.0,0.0,0.0,0.0,0.0,0.0,0.0,0.0,0.0,0.0,0.0,0.0,0.0,0.0,0.0,0.0,0.0,0.0,0.0,0.0,0.0,0.0,0.0,0.0,0.0,0.0,0.0,0.0,0.0,0.0,0.0,0.0,0.0,0.0,0.0,0.0,0.0,0.0,0.0,0.0,0.0,0.0,0.0,0.0,0.0,0.0,0.0,0.0,0.0,0.0,0.0,0.0,0.0,0.0,0.0,0.0,0.0,0.0,0.0,0.0,0.0,0.0,0.0,0.0,0.0,0.0,0.0,0.0,0.0,0.0,0.0,0.0,0.0,0.0,0.0,0.0,0.0,0.0,0.0,0.0,0.0,0.0,0.0,0.0,0.0,0.0,0.0,0.0,0.0,-1.7764,-1.7067,-1.6641,-1.662,-1.5898,-1.6229,0.0,0.0,0.0,0.0,0.0,0.0,0.0,0.0,0.0,0.0,0.0,0.0,0.0,0.0,0.0,0.0,0.0,0.0,0.0,0.0,0.0,0.0,0.0,0.0,0.0,0.0,0.0,0.0,0.0,0.0,0.0,0.0,0.0,0.0,0.0,0.0,0.0,0.0,0.0,0.0,0.0,0.0,0.0,0.0,0.0,0.0,0.0,0.0,0.0,0.0,0.0,0.0,0.0,0.0,0.0,0.0,0.0,0.0,0.0,0.0,0.0,0.0,0.0,0.0,0.0,0.0,0.0,0.0,0.0,0.0,0.0,0.0,0.0,0.0,0.0,0.0,0.0,0.0,0.0,0.0,0.0,0.0,0.0,0.0,0.0,0.0,0.0,0.0,0.0,0.0,0.0,0.0,0.0,0.0,0.0,0.0,0.0,0.0,0.0,0.0,0.0,0.0,0.0,0.0,0.0,0.0,0.0,0.0,0.0,-1.7918,-1.7703,-1.7538,-1.7517,-1.7226,-1.7363,0.0,0.0,0.0,0.0,0.0,0.0,0.0,0.0,0.0,0.0,0.0,0.0,0.0,0.0,0.0,0.0,0.0,0.0,0.0,0.0,0.0,0.0,0.0,0.0,0.0,0.0,0.0,0.0,0.0,0.0,0.0,0.0,0.0,0.0,0.0,0.0,0.0,0.0,0.0,0.0,0.0,0.0,0.0,0.0,0.0,0.0,0.0,0.0,0.0,0.0,0.0,0.0,0.0,0.0,0.0,0.0,0.0,0.0,0.0,0.0,0.0,0.0,0.0,0.0,0.0,0.0,0.0,0.0,0.0,0.0,0.0,0.0,0.0,0.0,0.0,0.0,0.0,0.0,0.0,0.0,0.0,0.0,0.0,0.0,0.0,0.0,0.0,0.0,0.0,0.0,0.0,0.0,0.0,0.0,0.0,0.0,0.0,0.0,0.0,0.0,0.0,0.0,0.0,0.0,0.0,0.0,0.0,0.0,0.0,-1.8359,0.0,-1.8133,-1.8398,-1.8144,-1.8144,0.0,0.0,0.0,0.0,0.0,0.0,0.0,0.0,0.0,0.0,0.0,0.0,0.0,0.0,0.0,0.0,0.0,0.0,0.0,0.0,0.0,0.0,0.0,0.0,0.0,0.0,0.0,0.0,0.0,0.0,0.0,0.0,0.0,0.0,0.0,0.0,0.0,0.0,0.0,0.0,0.0,0.0,0.0,0.0,0.0,0.0,0.0,0.0,0.0,0.0,0.0,0.0,0.0,0.0,0.0,0.0,0.0,0.0,0.0,0.0,0.0,0.0,0.0,0.0,0.0,0.0,0.0,0.0,0.0,0.0,0.0,0.0,0.0,0.0,0.0,0.0,0.0,0.0,0.0,0.0,0.0,0.0,0.0,0.0,0.0,0.0,0.0,0.0,0.0,0.0,0.0,0.0,0.0,0.0,0.0,0.0,0.0,0.0,0.0,0.0,0.0,0.0,0.0,0.0,0.0,0.0,0.0,0.0,-1.8332,-1.919,-1.8436,-1.839,-1.9232,-1.8475,-1.8447,0.0,0.0,0.0,0.0,0.0,0.0,0.0,0.0,0.0,0.0,0.0,0.0,0.0,0.0,0.0,0.0,0.0,0.0,0.0,0.0,0.0,0.0,0.0,0.0,0.0,0.0,0.0,0.0,0.0,0.0,0.0,0.0,0.0,0.0,0.0,0.0,0.0,0.0,0.0,0.0,0.0,0.0,0.0,0.0,0.0,0.0,0.0,0.0,0.0,0.0,0.0,0.0,0.0,0.0,0.0,0.0,0.0,0.0,0.0,0.0,0.0,0.0,0.0,0.0,0.0,0.0,0.0,0.0,0.0,0.0,0.0,0.0,0.0,0.0,0.0,0.0,0.0,0.0,0.0,0.0,0.0,0.0,0.0,0.0,0.0,0.0,0.0,0.0,0.0,0.0,0.0,0.0,0.0,0.0,0.0,0.0,0.0,0.0,0.0,0.0,0.0,0.0,0.0,0.0,0.0,0.0,0.0,0.0,0.0,-1.8322,-1.8118,-1.839,-1.9183,-1.9015,-1.9295,0.0,0.0,0.0,0.0,0.0,0.0,0.0,0.0,0.0,0.0,0.0,0.0,0.0,0.0,0.0,0.0,0.0,0.0,0.0,0.0,0.0,0.0,0.0,0.0,0.0,0.0,0.0,0.0,0.0,0.0,0.0,0.0,0.0,0.0,0.0,0.0,0.0,0.0,0.0,0.0,0.0,0.0,0.0,0.0,0.0,0.0,0.0,0.0,0.0,0.0,0.0,0.0,0.0,0.0,0.0,0.0,0.0,0.0,0.0,0.0,0.0,0.0,0.0,0.0,0.0,0.0,0.0,0.0,0.0,0.0,0.0,0.0,0.0,0.0,0.0,0.0,0.0,0.0,0.0,0.0,0.0,0.0,0.0,0.0,0.0,0.0,0.0,0.0,0.0,0.0,0.0,0.0,0.0,0.0,0.0,0.0,0.0,0.0,0.0,0.0,0.0,0.0,0.0,0.0,0.0,0.0,0.0,0.0,0.0,-1.8356,-1.8079,-1.8512,-1.9663,-1.9737,-1.986,-2.0095,0.0,0.0,0.0,0.0,0.0,0.0,0.0,0.0,0.0,0.0,0.0,0.0,0.0,0.0,0.0,0.0,0.0,0.0,0.0,0.0,0.0,0.0,0.0,0.0,0.0,0.0,0.0,0.0,0.0,0.0,0.0,0.0,0.0,0.0,0.0,0.0,0.0,0.0,0.0,0.0,0.0,0.0,0.0,0.0,0.0,0.0,0.0,0.0,0.0,0.0,0.0,0.0,0.0,0.0,0.0,0.0,0.0,0.0,0.0,0.0,0.0,0.0,0.0,0.0,0.0,0.0,0.0,0.0,0.0,0.0,0.0,0.0,0.0,0.0,0.0,0.0,0.0,0.0,0.0,0.0,0.0,0.0,0.0,0.0,0.0,0.0,0.0,0.0,0.0,0.0,0.0,0.0,0.0,0.0,0.0,0.0,0.0,0.0,0.0,0.0,0.0,0.0,0.0,0.0,0.0,0.0,0.0,0.0,-1.9172,-1.8379,-1.8788,-2.0404,-2.043,-2.0097,0.0,0.0,0.0,0.0,0.0,0.0,0.0,0.0,0.0,0.0,0.0,0.0,0.0,0.0,0.0,0.0,0.0,0.0,0.0,0.0,0.0,0.0,0.0,0.0,0.0,0.0,0.0,0.0,0.0,0.0,0.0,0.0,0.0,0.0,0.0,0.0,0.0,0.0,0.0,0.0,0.0,0.0,0.0,0.0,0.0,0.0,0.0,0.0,0.0,0.0,0.0,0.0,0.0,0.0,0.0,0.0,0.0,0.0,0.0,0.0,0.0,0.0,0.0,0.0,0.0,0.0,0.0,0.0,0.0,0.0,0.0,0.0,0.0,0.0,0.0,0.0,0.0,0.0,0.0,0.0,0.0,0.0,0.0,0.0,0.0,0.0,0.0,0.0,0.0,0.0,0.0,0.0,0.0,0.0,0.0,0.0,0.0,0.0,0.0,0.0,0.0,0.0,0.0,0.0,0.0,0.0,0.0,0.0,0.0,-1.9996,-1.9218,-1.9296,-2.0366,-1.9842,-1.9745,0.0,0.0,0.0,0.0,0.0,0.0,0.0,0.0,0.0,0.0,0.0,0.0,0.0,0.0,0.0,0.0,0.0,0.0,0.0,0.0,0.0,0.0,0.0,0.0,0.0,0.0,0.0,0.0,0.0,0.0,0.0,0.0,0.0,0.0,0.0,0.0,0.0,0.0,0.0,0.0,0.0,0.0,0.0,0.0,0.0,0.0,0.0,0.0,0.0,0.0,0.0,0.0,0.0,0.0,0.0,0.0,0.0,0.0,0.0,0.0,0.0,0.0,0.0,0.0,0.0,0.0,0.0,0.0,0.0,0.0,0.0,0.0,0.0,0.0,0.0,0.0,0.0,0.0,0.0,0.0,0.0,0.0,0.0,0.0,0.0,0.0,0.0,0.0,0.0,0.0,0.0,0.0,0.0,0.0,0.0,0.0,0.0,0.0,0.0,0.0,0.0,0.0,0.0,0.0,0.0,0.0,0.0,0.0,-1.9666,-1.985,-1.9682,-2.0195,-2.1422,-2.0338,-1.9807,0.0,0.0,0.0,0.0,0.0,0.0,0.0,0.0,0.0,0.0,0.0,0.0,0.0,0.0,0.0,0.0,0.0,0.0,0.0,0.0,0.0,0.0,0.0,0.0,0.0,0.0,0.0,0.0,0.0,0.0,0.0,0.0,0.0,0.0,0.0,0.0,0.0,0.0,0.0,0.0,0.0,0.0,0.0,0.0,0.0,0.0,0.0,0.0,0.0,0.0,0.0,0.0,0.0,0.0,0.0,0.0,0.0,0.0,0.0,0.0,0.0,0.0,0.0,0.0,0.0,0.0,0.0,0.0,0.0,0.0,0.0,0.0,0.0,0.0,0.0,0.0,0.0,0.0,0.0,0.0,0.0,0.0,0.0,0.0,0.0,0.0,0.0,0.0,0.0,0.0,0.0,0.0,0.0,0.0,0.0,0.0,0.0,0.0,0.0,0.0,0.0,0.0,0.0,0.0,0.0,0.0,0.0,0.0,-1.996,-1.9259,-2.0036,-2.1179,-2.2636,-2.1288,-2.0177,0.0,0.0,0.0,0.0,0.0,0.0,0.0,0.0,0.0,0.0,0.0,0.0,0.0,0.0,0.0,0.0,0.0,0.0,0.0,0.0,0.0,0.0,0.0,0.0,0.0,0.0,0.0,0.0,0.0,0.0,0.0,0.0,0.0,0.0,0.0,0.0,0.0,0.0,0.0,0.0,0.0,0.0,0.0,0.0,0.0,0.0,0.0,0.0,0.0,0.0,0.0,0.0,0.0,0.0,0.0,0.0,0.0,0.0,0.0,0.0,0.0,0.0,0.0,0.0,0.0,0.0,0.0,0.0,0.0,0.0,0.0,0.0,0.0,0.0,0.0,0.0,0.0,0.0,0.0,0.0,0.0,0.0,0.0,0.0,0.0,0.0,0.0,0.0,0.0,0.0,0.0,0.0,0.0,0.0,0.0,0.0,0.0,0.0,0.0,0.0,0.0,0.0,0.0,0.0,0.0,0.0,0.0,0.0,-2.0298,-2.013,-2.0917,-2.1494,-2.1847,-2.0933,-2.0662,0.0,0.0,0.0,0.0,0.0,0.0,0.0,0.0,0.0,0.0,0.0,0.0,0.0,0.0,0.0,0.0,0.0,0.0,0.0,0.0,0.0,0.0,0.0,0.0,0.0,0.0,0.0,0.0,0.0,0.0,0.0,0.0,0.0,0.0,0.0,0.0,0.0,0.0,0.0,0.0,0.0,0.0,0.0,0.0,0.0,0.0,0.0,0.0,-2.0487,0.0,0.0,0.0,0.0,0.0,0.0,0.0,0.0,0.0,0.0,0.0,0.0,0.0,0.0,0.0,0.0,0.0,0.0,0.0,0.0,0.0,0.0,0.0,0.0,0.0,0.0,0.0,0.0,0.0,0.0,0.0,0.0,0.0,0.0,0.0,0.0,0.0,0.0,0.0,0.0,0.0,0.0,0.0,0.0,0.0,0.0,0.0,0.0,0.0,0.0,0.0,0.0,0.0,0.0,0.0,0.0,0.0,0.0,0.0,-1.9803,-1.9803,-2.0584,-2.1183,-2.1531,-2.042,-2.0182,0.0,0.0,0.0,0.0,0.0,0.0,0.0,0.0,0.0,0.0,0.0,0.0,0.0,0.0,0.0,0.0,0.0,0.0,0.0,0.0,0.0,0.0,0.0,0.0,0.0,0.0,0.0,0.0,0.0,0.0,0.0,0.0,0.0,0.0,0.0,0.0,0.0,0.0,0.0,0.0,0.0,0.0,0.0,0.0,0.0,0.0,0.0,0.0,0.0,0.0,0.0,0.0,0.0,0.0,0.0,0.0,0.0,0.0,0.0,0.0,0.0,0.0,0.0,0.0,0.0,0.0,0.0,0.0,0.0,0.0,0.0,0.0,0.0,0.0,0.0,0.0,0.0,0.0,0.0,0.0,0.0,0.0,0.0,0.0,0.0,0.0,0.0,0.0,0.0,0.0,0.0,0.0,0.0,0.0,0.0,0.0,0.0,0.0,0.0,0.0,0.0,0.0,0.0,0.0,0.0,0.0,0.0,-1.9199,-1.9236,-1.9519,-2.003,-2.0725,-2.157,-1.9988,-1.9511,-2.0373,0.0,0.0,0.0,0.0,0.0,0.0,0.0,0.0,0.0,0.0,0.0,0.0,0.0,0.0,0.0,0.0,0.0,0.0,0.0,0.0,0.0,0.0,0.0,0.0,0.0,0.0,0.0,0.0,0.0,0.0,0.0,0.0,0.0,0.0,0.0,0.0,0.0,0.0,-2.0369,-1.9797,0.0,0.0,0.0,0.0,0.0,0.0,0.0,0.0,-1.9703,0.0,0.0,0.0,0.0,0.0,0.0,0.0,0.0,0.0,0.0,0.0,0.0,0.0,0.0,0.0,0.0,0.0,0.0,0.0,0.0,0.0,0.0,0.0,0.0,0.0,0.0,0.0,0.0,0.0,0.0,0.0,0.0,0.0,0.0,0.0,0.0,0.0,0.0,0.0,0.0,0.0,0.0,0.0,0.0,0.0,0.0,0.0,0.0,0.0,0.0,0.0,0.0,0.0,0.0,0.0,0.0,-2.0176,-1.9472,-1.9795,-2.1229,-2.0667,-2.0785,-2.1596,-2.006,-1.9584,-2.0397,0.0,0.0,0.0,0.0,0.0,0.0,0.0,0.0,0.0,0.0,0.0,0.0,0.0,0.0,0.0,0.0,0.0,0.0,0.0,0.0,0.0,0.0,0.0,0.0,0.0,0.0,0.0,0.0,0.0,0.0,0.0,0.0,0.0,0.0,0.0,0.0,0.0,0.0,0.0,-1.986,-1.9954,0.0,0.0,0.0,0.0,0.0,0.0,0.0,0.0,-2.0003,0.0,0.0,0.0,0.0,0.0,0.0,0.0,0.0,0.0,0.0,0.0,0.0,0.0,0.0,0.0,0.0,0.0,0.0,0.0,0.0,0.0,0.0,0.0,0.0,0.0,0.0,0.0,0.0,0.0,0.0,0.0,0.0,0.0,0.0,0.0,0.0,0.0,0.0,0.0,0.0,0.0,0.0,0.0,0.0,0.0,0.0,0.0,0.0,0.0,0.0,0.0,0.0,0.0,0.0,0.0,-2.0248,-1.9121,-1.9339,-2.0983,-2.0623,-2.0396,-2.0374,-1.9184,-1.8915,0.0,0.0,0.0,0.0,0.0,0.0,0.0,0.0,0.0,0.0,0.0,0.0,0.0,0.0,0.0,0.0,0.0,0.0,0.0,0.0,0.0,0.0,0.0,0.0,0.0,0.0,0.0,0.0,0.0,0.0,0.0,0.0,0.0,0.0,0.0,0.0,0.0,0.0,0.0,0.0,-1.9461,-1.9532,-1.898,0.0,0.0,0.0,0.0,0.0,0.0,-2.0103,-2.0075,0.0,0.0,0.0,0.0,0.0,0.0,0.0,0.0,0.0,0.0,0.0,0.0,0.0,0.0,0.0,0.0,0.0,0.0,0.0,0.0,0.0,0.0,0.0,0.0,0.0,0.0,0.0,0.0,0.0,0.0,0.0,0.0,0.0,0.0,0.0,0.0,0.0,0.0,0.0,0.0,0.0,0.0,0.0,0.0,0.0,0.0,0.0,0.0,0.0,0.0,0.0,0.0,0.0,0.0,0.0,-2.0306,-1.8925,-1.8925,-2.041,-2.0122,-1.9604,-1.8973,-1.8115,-1.8065,0.0,0.0,0.0,0.0,0.0,0.0,0.0,0.0,0.0,0.0,0.0,0.0,0.0,0.0,0.0,0.0,0.0,0.0,0.0,0.0,0.0,0.0,0.0,0.0,0.0,0.0,0.0,0.0,0.0,0.0,0.0,0.0,0.0,0.0,0.0,0.0,0.0,0.0,0.0,0.0,0.0,-1.9355,-1.8869,-1.9054,0.0,0.0,0.0,0.0,-2.0173,-2.0287,0.0,0.0,0.0,0.0,0.0,0.0,0.0,0.0,0.0,0.0,0.0,0.0,0.0,0.0,0.0,0.0,0.0,0.0,0.0,0.0,0.0,0.0,0.0,0.0,0.0,0.0,0.0,0.0,0.0,0.0,0.0,0.0,0.0,0.0,0.0,0.0,0.0,0.0,0.0,0.0,0.0,0.0,0.0,0.0,0.0,0.0,0.0,0.0,0.0,0.0,0.0,0.0,0.0,0.0,0.0,0.0,-2.0363,-1.9519,-1.9529,-2.038,-1.903,-1.8232,-1.8119,-1.7283,-1.7258,0.0,0.0,0.0,0.0,0.0,0.0,0.0,0.0,0.0,0.0,0.0,0.0,0.0,0.0,0.0,0.0,0.0,0.0,0.0,0.0,0.0,0.0,0.0,0.0,0.0,0.0,0.0,0.0,0.0,0.0,0.0,0.0,0.0,0.0,0.0,0.0,0.0,0.0,0.0,0.0,0.0,-2.0695,-1.9041,-1.9535,-2.0065,0.0,0.0,-2.0743,-2.0023,-2.0958,0.0,0.0,0.0,0.0,0.0,0.0,0.0,0.0,0.0,0.0,0.0,0.0,0.0,0.0,0.0,0.0,0.0,0.0,0.0,0.0,0.0,0.0,0.0,0.0,0.0,0.0,0.0,0.0,0.0,0.0,0.0,0.0,0.0,0.0,0.0,0.0,0.0,0.0,0.0,0.0,0.0,0.0,0.0,0.0,0.0,0.0,0.0,0.0,0.0,0.0,0.0,0.0,0.0,0.0,0.0,-1.9901,-2.0357,-1.9647,-1.9452,-1.9797,-1.9114,-1.8267,-1.7299,-1.6894,-1.7107,0.0,0.0,0.0,0.0,0.0,0.0,0.0,0.0,0.0,0.0,0.0,0.0,0.0,0.0,0.0,0.0,0.0,0.0,0.0,0.0,0.0,0.0,0.0,0.0,0.0,0.0,0.0,0.0,0.0,0.0,0.0,0.0,0.0,0.0,0.0,0.0,0.0,0.0,0.0,0.0,0.0,0.0,-1.9657,-2.0193,0.0,0.0,0.0,-2.1037,-2.0824,0.0,0.0,0.0,0.0,0.0,0.0,0.0,0.0,0.0,0.0,0.0,0.0,0.0,0.0,0.0,0.0,0.0,0.0,0.0,0.0,0.0,0.0,0.0,0.0,0.0,0.0,0.0,0.0,0.0,0.0,0.0,0.0,0.0,0.0,0.0,0.0,0.0,0.0,0.0,0.0,0.0,0.0,0.0,0.0,0.0,0.0,0.0,0.0,0.0,0.0,0.0,0.0,0.0,0.0,0.0,0.0,0.0,-2.0418,-1.9894,-1.9629,-1.9609,-1.9414,-1.8574,-1.707,-1.7026,0.0,0.0,0.0,0.0,0.0,0.0,0.0,0.0,0.0,0.0,0.0,0.0,0.0,0.0,0.0,0.0,0.0,0.0,0.0,0.0,0.0,0.0,0.0,0.0,0.0,0.0,0.0,-2.1178,0.0,0.0,0.0,0.0,0.0,0.0,0.0,0.0,0.0,0.0,0.0,0.0,0.0,0.0,-2.1225,-2.0403,-2.0781,-2.0967,0.0,0.0,-2.1483,-2.1646,-2.2305,-2.2476,0.0,0.0,0.0,0.0,0.0,0.0,0.0,0.0,0.0,0.0,0.0,0.0,0.0,0.0,0.0,0.0,0.0,0.0,0.0,0.0,0.0,0.0,0.0,0.0,0.0,0.0,0.0,0.0,0.0,0.0,0.0,0.0,0.0,0.0,0.0,0.0,0.0,0.0,0.0,0.0,0.0,0.0,0.0,0.0,0.0,0.0,0.0,0.0,0.0,0.0,0.0,0.0,0.0,0.0,-2.0381,-2.0497,-2.0502,-2.0488,-2.0488,-1.9707,-1.8867,-1.7949,-1.791,-1.7922,0.0,0.0,0.0,0.0,0.0,0.0,0.0,0.0,0.0,0.0,0.0,0.0,0.0,0.0,0.0,0.0,0.0,0.0,0.0,0.0,0.0,0.0,0.0,0.0,0.0,0.0,0.0,0.0,0.0,0.0,0.0,0.0,0.0,0.0,0.0,0.0,0.0,0.0,0.0,0.0,0.0,-2.209,-2.1255,-2.1151,-2.1377,0.0,-2.2098,-2.2198,-2.2154,-2.3386,-2.3664,-2.1649,0.0,0.0,0.0,0.0,0.0,0.0,0.0,0.0,0.0,0.0,0.0,0.0,0.0,0.0,0.0,0.0,0.0,0.0,0.0,0.0,0.0,0.0,0.0,0.0,0.0,0.0,0.0,0.0,0.0,0.0,0.0,0.0,0.0,0.0,0.0,0.0,0.0,0.0,0.0,0.0,0.0,0.0,0.0,0.0,0.0,0.0,0.0,0.0,0.0,0.0,0.0,0.0,0.0,-2.0477,-2.0499,-2.0579,-2.0352,-1.9824,-1.9473,-1.8887,-1.8027,-1.8005,-1.8015,0.0,0.0,0.0,0.0,0.0,0.0,0.0,0.0,0.0,0.0,0.0,0.0,0.0,0.0,0.0,0.0,0.0,0.0,0.0,0.0,0.0,0.0,0.0,0.0,0.0,0.0,0.0,0.0,-2.2107,-2.1188,-2.1032,0.0,0.0,0.0,0.0,0.0,0.0,0.0,0.0,0.0,0.0,-2.2181,-2.1643,-2.207,0.0,0.0,-2.2553,-2.2787,-2.2457,-2.3251,-2.3358,-2.1685,-2.2133,0.0,0.0,0.0,0.0,0.0,0.0,0.0,0.0,0.0,0.0,0.0,0.0,0.0,0.0,0.0,0.0,0.0,0.0,0.0,0.0,0.0,0.0,0.0,0.0,0.0,0.0,0.0,0.0,0.0,0.0,0.0,0.0,0.0,0.0,0.0,0.0,0.0,0.0,0.0,0.0,0.0,0.0,0.0,0.0,0.0,0.0,0.0,0.0,0.0,0.0,0.0,0.0,-2.0618,-2.0889,-2.0944,-2.082,-2.0469,-2.0215,-1.9785,-1.9199,-1.8922,-1.8775,0.0,0.0,0.0,0.0,0.0,0.0,0.0,0.0,0.0,0.0,0.0,0.0,0.0,0.0,0.0,0.0,0.0,0.0,0.0,0.0,0.0,0.0,0.0,0.0,0.0,0.0,0.0,0.0,-2.2612,-2.1503,-2.0932,0.0,0.0,0.0,0.0,0.0,0.0,0.0,0.0,0.0,0.0,-2.2423,-2.2009,-2.2498,-2.2832,-2.2586,-2.2839,-2.3097,-2.3225,-2.3479,-2.3313,-2.2345,0.0,0.0,0.0,0.0,0.0,0.0,0.0,0.0,0.0,0.0,0.0,0.0,0.0,0.0,0.0,0.0,0.0,0.0,0.0,0.0,0.0,0.0,0.0,0.0,0.0,0.0,0.0,-2.0294,0.0,0.0,-2.0197,0.0,0.0,0.0,0.0,0.0,0.0,0.0,0.0,0.0,0.0,0.0,0.0,0.0,0.0,0.0,0.0,0.0,0.0,0.0,0.0,0.0,0.0,-2.0924,-2.1753,-2.18,-2.2243,-2.2988,-2.2285,-2.1777,-2.1699,-2.0977,-2.0521,-2.0529,0.0,0.0,0.0,0.0,0.0,0.0,0.0,0.0,0.0,0.0,0.0,0.0,0.0,0.0,0.0,0.0,0.0,0.0,0.0,0.0,0.0,0.0,0.0,0.0,0.0,0.0,-2.3185,-2.2328,-2.1771,0.0,0.0,0.0,0.0,0.0,0.0,0.0,0.0,0.0,-2.1304,-2.2383,-2.2952,-2.237,-2.2233,-2.2534,-2.3393,-2.2955,-2.3065,-2.4594,-2.4243,-2.3782,0.0,0.0,0.0,0.0,0.0,0.0,0.0,0.0,0.0,0.0,0.0,0.0,0.0,0.0,0.0,0.0,0.0,0.0,0.0,0.0,0.0,0.0,0.0,0.0,0.0,0.0,0.0,-2.1278,-2.123,0.0,0.0,0.0,0.0,0.0,0.0,0.0,0.0,0.0,0.0,0.0,-2.2558,-2.2623,0.0,0.0,0.0,0.0,0.0,0.0,0.0,0.0,0.0,0.0,0.0,0.0,-2.0915,-2.1697,-2.1791,-2.1971,-2.2246,-2.199,-2.1562,-2.0996,-2.0742,-2.0859,-2.1361,0.0,0.0,0.0,0.0,0.0,0.0,0.0,0.0,0.0,0.0,0.0,0.0,0.0,0.0,0.0,0.0,0.0,0.0,0.0,0.0,0.0,0.0,0.0,0.0,0.0,-2.3085,0.0,0.0,0.0,0.0,0.0,0.0,0.0,0.0,0.0,0.0,0.0,-2.2077,-2.1755,-2.2256,-2.2505,-2.2077,-2.2044,-2.2395,0.0,0.0,0.0,0.0,0.0,0.0,0.0,0.0,0.0,0.0,0.0,0.0,0.0,0.0,-2.7083,-2.5304,-2.5593,-2.5991,-2.5596,0.0,0.0,0.0,0.0,0.0,0.0,0.0,0.0,0.0,0.0,0.0,0.0,0.0,0.0,-2.2227,0.0,-2.2238,0.0,0.0,0.0,0.0,0.0,0.0,0.0,0.0,-2.2795,-2.3213,-2.3487,-2.3532,-2.3843,0.0,-2.3834,-2.326,0.0,0.0,0.0,0.0,0.0,0.0,0.0,0.0,-2.1359,-2.2153,-2.2501,-2.2809,-2.3082,-2.2822,-2.241,-2.1855,-2.1641,-2.1758,-2.2266,-2.2263,-2.2257,0.0,0.0,0.0,0.0,0.0,0.0,0.0,0.0,0.0,0.0,0.0,0.0,0.0,0.0,0.0,0.0,0.0,0.0,0.0,0.0,0.0,0.0,0.0,-2.3129,0.0,0.0,0.0,0.0,0.0,0.0,0.0,0.0,0.0,-2.1843,-2.2209,-2.2488,-2.2458,-2.26,-2.2636,-2.251,0.0,0.0,0.0,0.0,0.0,0.0,0.0,-2.332,-2.3186,-2.4006,-2.4984,-2.5862,-2.7344,-2.8455,-2.845,0.0,0.0,-2.6569,-2.6854,-2.7225,-2.6828,-2.747,-2.8417,-2.9502,-2.9816,-2.9857,0.0,0.0,0.0,0.0,0.0,0.0,0.0,0.0,-2.3142,-2.3125,0.0,-2.314,0.0,0.0,0.0,0.0,-2.3036,-2.3735,0.0,0.0,-2.4746,-2.5156,-2.4471,-2.4432,-2.4433,-2.4442,-2.4458,-2.4422,-2.439,-2.3603,0.0,0.0,0.0,0.0,0.0,0.0,-2.2238,-2.3123,-2.3857,-2.4683,-2.5414,-2.4701,-2.4297,-2.4257,-2.3594,-2.3223,-2.3223,-2.3203,-2.3184,-2.3144,-2.3195,0.0,0.0,0.0,0.0,0.0,0.0,0.0,0.0,0.0,0.0,0.0,0.0,0.0,0.0,0.0,0.0,0.0,0.0,0.0,0.0,-2.4849,0.0,0.0,0.0,0.0,0.0,0.0,0.0,0.0,0.0,0.0,-2.285,-2.2585,-2.2665,-2.341,0.0,0.0,0.0,0.0,-2.3445,-2.3866,-2.3866,-2.4121,-2.5034,-2.5087,-2.5292,-2.6104,0.0,0.0,-2.7367,-2.7637,-2.778,-2.7763,-2.8427,-2.8869,-2.8908,-2.8198,-2.7869,-2.8502,-2.8577,-2.8989,-3.0297,-3.0188,-2.9678,-2.3304,0.0,0.0,0.0,0.0,-2.2743,-2.3221,-2.4039,-2.4037,-2.4027,-2.4018,-2.402,0.0,0.0,0.0,0.0,0.0,0.0,-2.3626,-2.4042,-2.4529,-2.4957,-2.5327,-2.533,-2.5332,-2.5331,-2.5343,-2.5318,-2.532,-2.5088,-2.4651,-2.4013,0.0,0.0,0.0,0.0,-2.2496,-2.3864,-2.4135,-2.4362,-2.4602,-2.442,-2.4042,-2.3505,-2.3839,-2.4057,-2.4061,-2.4647,-2.4667,-2.4082,-2.4628,0.0,0.0,0.0,0.0,0.0,0.0,0.0,0.0,0.0,0.0,0.0,0.0,0.0,0.0,0.0,0.0,0.0,0.0,0.0,-2.3928,-2.407,-2.3681,0.0,0.0,0.0,0.0,0.0,0.0,0.0,0.0,0.0,-2.4915,-2.4568,-2.4118,0.0,0.0,-2.3491,-2.2955,-2.3188,-2.3652,-2.4304,-2.4343,0.0,-2.5349,-2.5653,-2.5882,-2.6189,-2.7238,-2.8165,-2.8445,-2.8988,-2.9555,-3.0106,-2.9935,-3.0068,-3.1105,-3.0135,-2.9187,-2.925,-2.9979,-3.1039,-3.2072,-3.2422,-3.2256,-2.5326,-2.5053,-2.3687,-2.3315,-2.3606,-2.3628,-2.4102,-2.4912,-2.4913,-2.4911,-2.492,-2.4924,-2.4433,-2.3617,-2.3618,0.0,0.0,0.0,-2.4783,-2.5913,-2.5221,-2.5375,-2.6163,-2.5857,-2.5703,-2.5703,-2.57,-2.5698,-2.57,-2.5343,-2.5104,-2.4871,0.0,0.0,-2.4101,-2.3578,-2.3811,-2.4771,-2.5085,-2.5077,-2.4728,-2.4794,-2.4637,-2.4169,-2.4629,-2.4928,-2.4915,-2.5403,-2.5463,-2.4938,-2.5409,-2.5215,0.0,0.0,0.0,0.0,0.0,0.0,0.0,0.0,0.0,0.0,0.0,-2.5118,-2.4137,0.0,0.0,0.0,-2.6194,-2.5604,-2.4222,-2.4496,0.0,0.0,0.0,0.0,0.0,0.0,0.0,-2.6292,-2.6192,-2.6187,-2.6587,-2.6317,-2.5775,-2.5031,-2.4723,-2.4512,-2.4369,0.0,-2.4972,-2.5471,-2.5515,-2.5685,-2.6236,-2.6674,-2.7107,-2.7562,-2.857,-2.9351,-2.9391,-2.9772,-3.0224,-3.0589,-3.0361,-3.0311,-3.1269,-3.0485,-2.9978,-3.0445,-3.1183,-3.2035,-3.2827,-3.3475,-3.3508,-2.7557,-2.8023,-2.484,-2.4001,-2.4704,-2.4629,-2.5076,-2.5787,-2.5728,-2.5754,-2.5811,-2.572,-2.5292,-2.4616,-2.4676,0.0,-2.7073,-2.6273,-2.6755,-2.8232,-2.6643,-2.6337,-2.7047,-2.6286,-2.5897,-2.5918,-2.5898,-2.5917,-2.5876,-2.5136,-2.5117,-2.5859,-2.5116,-2.5098,-2.575,-2.5671,-2.5675,-2.5829,-2.6385,-2.6327,-2.5531,-2.5625,-2.5703,-2.5681,-2.5698,-2.5707,-2.5687,-2.5687,-2.5707,-2.5687,-2.5697,-2.5702,-2.5703,0.0,0.0,0.0,0.0,0.0,0.0,0.0,0.0,0.0,0.0,0.0,0.0,0.0,0.0,0.0,-2.6989,0.0,-2.5865,-2.574,0.0,0.0,0.0,-2.5182,-2.671,-2.6948,-2.7239,-2.7903,0.0,0.0,-2.7869,-2.7702,-2.7419,-2.7045,-2.6248,-2.6043,-2.6897,-2.6804,-2.6874,-2.6972,-2.7121,-2.7232,-2.7497,-2.8005,-2.8645,-2.946,-3.0029,-3.0186,-3.0212,-3.0273,-3.0216,-3.0333,-3.0092,-3.0045,-2.9996,-3.0017,-3.0296,-3.1758,-3.1901,-3.2032,-3.2727,-3.3284,-3.3401,-2.7989,-2.8088,-2.731,-2.7147,-2.7304,-2.666,-2.6504,-2.662,-2.5995,-2.6073,-2.6657,-2.5994,-2.5957,-2.6405,-2.707,-2.7596,-2.7983,-2.778,-2.7902,-2.8262,-2.7881,-2.7795,-2.7979,-2.7791,-2.7675,-2.7675,-2.769,-2.7684,-2.7663,-2.7469,-2.7474,-2.7655,-2.748,-2.7148,-2.6679,-2.6023,-2.6308,-2.7576,-2.6466,-2.5785,-2.5576,-2.5595,-2.5644,-2.5701,-2.5696,-2.5698,-2.5707,-2.5703,-2.5703,-2.5687,-2.5689,-2.5696,-2.5702,-2.5702,0.0,0.0,0.0,0.0,0.0,0.0,0.0,0.0,0.0,-2.6281,-2.5655,0.0,-2.6971,0.0,-2.7491,-2.7731,-2.7518,-2.6863,0.0,0.0,-2.6795,-2.7431,-2.8424,-2.8986,-2.9162,-2.8778,-2.8664,-2.855,-2.8422,-2.8296,-2.8315,-2.8547,-2.7522,-2.6822,-2.7063,-2.7399,-2.7631,-2.7727,-2.8043,-2.846,-2.8663,-2.9102,-2.9561,-2.995,-3.0554,-3.1013,-3.1006,-3.1497,-3.1838,-3.1711,-3.1182,-3.0996,-3.1374,-3.0603,-3.0114,-3.0922,-3.1128,-3.1389,-3.2158,-3.2832,-3.3092,-2.8927,-2.925,-2.9303,-2.9341,-2.9258,-2.804,-2.7493,-2.75,-2.7017,-2.7082,-2.7515,-2.7003,-2.7064,-2.7559,-2.8027,-2.8496,-2.8827,-2.8473,-2.8704,-2.9407,-2.8652,-2.8507,-2.8852,-2.8468,-2.8295,-2.8296,-2.8288,-2.8283,-2.8283,-2.8283,-2.8288,-2.8294,-2.8685,-2.865,-2.8164,-2.769,-2.7696,-2.8171,-2.6859,-2.6369,-2.6719,-2.6404,-2.6429,-2.6802,-2.6093,-2.5883,-2.6245,-2.5892,-2.5697,-2.5698,-2.5698,-2.5698,-2.5697,-2.5703,-2.5703,0.0,0.0,0.0,0.0,0.0,0.0,0.0,0.0,0.0,0.0,0.0,-2.748,-2.7493,-2.7828,-2.8053,-2.8005,-2.7528,-2.7372,-2.7739,-2.8475,-2.9298,-3.0124,-3.0529,-3.0762,-3.0707,-2.9983,-2.957,-2.9806,-2.9399,-2.9099,-2.9262,-2.8528,-2.7968,-2.7911,-2.8117,-2.8331,-2.8418,-2.8717,-2.9056,-2.9375,-2.9662,-2.9924,-3.0057,-3.0402,-3.0663,-3.0691,-3.099,-3.1235,-3.1165,-3.0753,-3.0528,-3.0827,-3.0282,-2.9756,-3.0014,-3.0221,-3.054,-3.1285,-3.2027,-3.234,-3.0335,-3.1006,-3.0998,-3.1004,-3.0878,-2.9383,-2.8603,-2.835,-2.8353,-2.8347,-2.8338,-2.8424,-2.8404,-2.8373,-2.8591,-2.9139,-2.9842,-2.9236,-2.9701,-3.0925,-2.9491,-2.9137,-2.9726,-2.8984,-2.8633,-2.8635,-2.8615,-2.8635,-2.8615,-2.8615,-2.8635,-2.8656,-2.9379,-2.9755,-2.9762,-2.9861,-2.9368,-2.8229,-2.7663,-2.7662,-2.8175,-2.7521,-2.7466,-2.8021,-2.6555,-2.607,-2.6777,-2.6113,-2.5703,-2.5703,-2.5703,-2.5761,-2.5867,-2.5877,-2.5916,0.0,-2.6013,0.0,0.0,0.0,0.0,0.0,0.0,0.0,0.0,-2.8806,-2.8298,-2.8396,-2.8343,-2.8367,-2.8511,-2.8541,-2.881,-2.9517,-3.029,-3.1079,-3.1813,-3.1914,-3.2163,-3.2872,-3.1569,-3.0871,-3.1378,-3.0668,-2.992,-2.9663,-2.9254,-2.8909,-2.8827,-2.8761,-2.879,-2.9042,-2.9148,-2.9297,-2.9645,-2.9855,-2.9988,-2.9981,-3.0127,-3.0045,-3.0147,-3.0201,-3.0124,-3.0036,-3.0002,-2.9869,-2.9568,-2.9549,-2.9471,-2.9487,-2.9504,-2.9686,-3.0333,-3.1095,-3.1411,-3.2551,-3.2657,-3.2696,-3.2706,-3.2628,-3.229,-3.1,-2.9171,-2.9175,-2.9179,-2.9245,-2.9909,-2.9826,-2.9315,-3.0661,-3.1358,-3.1597,-3.2104,-3.2179,-3.1874,-3.1542,-3.1127,-3.0665,-3.0487,-3.0409,-3.0411,-3.0353,-3.0333,-3.0313,-3.0313,-3.0318,-3.0326,-3.0502,-3.0582,-3.0605,0.0,0.0,0.0,-2.9455,-2.9484,-2.8332,-2.8145,-2.7789,-2.7245,-2.6248,0.0,-2.5918,-2.5799,-2.57,-2.5702,-2.5703,0.0,0.0,0.0,0.0,0.0,0.0,0.0,0.0,0.0,0.0,0.0,-3.0938,-3.0127,-3.0484,-2.9706,-2.9401,-2.997,-2.9998,-3.0487,-3.1725,-3.1879,-3.1949,-3.21,-3.28,-3.3379,-3.354,-3.3471,-3.3535,-3.365,-3.2778,-3.2194,-3.2181,-3.144,-3.0751,-3.0528,-2.9706,-2.9052,-2.8998,-2.8858,-2.8797,-2.8993,-2.9297,-2.9514,-2.9626,-2.9805,-2.994,-2.9981,-3.0461,-3.0731,-3.0772,-3.1243,-3.1317,-3.0769,-3.0599,-3.0374,-2.9776,-2.9511,-2.9507,-2.9551,-2.951,-2.9463,-2.9609,-3.0259,-3.0987,-3.3141,-3.3102,-3.3149,-3.313,0.0,-3.3102,-3.2406,-3.1207,-3.1258,-3.128,-3.1294,-3.171,-3.1661,-3.1323,-3.2205,-3.2365,-3.2027,-3.2485,-3.2252,-3.147,-3.1503,-3.1296,-3.0919,-3.0919,-3.088,-3.086,-3.0821,-3.0801,-3.0801,-3.0801,-3.0784,-3.079,-3.079,-3.1008,-3.146,-3.2315,-3.2114,-3.0816,-3.1233,-3.1032,-3.0199,-2.976,-2.9322,-2.8865,-2.7656,0.0,0.0,0.0,0.0,0.0,0.0,0.0,0.0,-2.8021,0.0,-2.8821,-2.9237,-3.0026,-3.1226,-3.139,-3.2137,-3.3731,-3.3492,-3.2745,-3.1562,-3.1331,-3.1428,-3.1798,-3.1738,-3.1823,-3.2192,-3.225,-3.2064,-3.1651,-3.2618,-3.3349,-3.3309,-3.3277,-3.3413,-3.3661,-3.2714,-3.1955,-3.1958,-3.191,-3.1485,-3.0998,-3.0728,-3.0296,-2.9795,-2.9223,-2.8962,-2.9235,-2.9551,-2.9753,-2.9751,-2.9822,-2.9907,-2.9926,-3.0162,-3.0527,-3.0898,-3.1216,-3.1368,-3.1343,-3.1355,-3.1169,-3.0902,-3.0469,-3.013,-3.0171,-2.9832,-2.9658,-2.9874,-3.002,-3.0243,-3.3576,-3.3566,-3.3545,-3.3564,-3.3576,-3.3546,-3.3576,-3.3538,0.0,0.0,0.0,-3.3179,-3.3112,-3.3209,-3.3345,-3.3054,-3.2454,-3.2634,-3.2268,-3.1468,-3.1504,-3.1459,-3.1339,-3.1331,-3.1309,-3.127,-3.127,-3.1192,-3.1036,-3.1016,-3.0938,-3.0821,-3.0801,-3.1309,-3.2324,-3.3197,-3.3715,-3.3793,-3.3002,-3.2397,-3.2101,-3.1389,-3.0892,-3.0598,-2.9098,-2.8632,-2.9336,-2.869,-2.8296,-2.8296,-2.8255,-2.8392,-2.8726,-2.9379,-2.9868,-3.0193,-3.0841,-3.1631,-3.2414,-3.3186,-3.3978,-3.4769,-3.5476,-3.4943,-3.2717,-3.3103,-3.3437,-3.3417,-3.3316,-3.2971,-3.242,-3.237,-3.2013,-3.1191,-3.2316,-3.3131,-3.3073,-3.3037,-3.3399,-3.3705,-3.2909,-3.1941,-3.2115,-3.2439,-3.2425,-3.1676,-3.175,-3.184,-3.0908,-3.0009,-2.962,-3.0075,-3.0413,-3.0419,-3.0362,-3.0419,-3.0284,-3.0132,-3.0182,-3.0377,-3.0714,-3.0878,-3.1187,-3.1787,-3.1842,-3.1868,-3.1984,-3.1461,-3.1052,-3.1091,-3.0527,-3.0149,-3.0602,-3.0296,-3.0222,-3.5317,-3.5336,-3.5336,-3.5336,-3.5336,-3.5336,-3.5336,-3.5201,-3.377,-3.3518,-3.4176,-3.3441,-3.3112,-3.3151,-3.3905,-3.4167,-3.4118,-3.4842,-3.4749,-3.3981,-3.3994,-3.3632,-3.2983,-3.3021,-3.3046,-3.3027,-3.3027,-3.2636,-3.1992,-3.1934,-3.1563,-3.088,-3.0801,-3.1621,-3.3163,-3.4081,-3.4875,-3.5588,-3.4776,-3.3614,-3.2151,-3.1975,-3.1221,-2.9804,-2.8859,-2.8351,-2.8476,-2.8394,-2.8288,-2.8283,-2.8283,-2.8934,-3.0349,-3.056,-3.1281,-3.2703,-3.2971,-3.3409,-3.4173,-3.4367,-3.4795,-3.5613,-3.5846,-3.5412,-3.4364,-3.4296,-3.4311,-3.4295,-3.4216,-3.4357,-3.4858,-3.4749,-3.45,-3.4431,-3.4623,-3.4748,-3.4617,-3.4562,-3.4545,-3.4659,-3.4604,-3.4244,-3.3998,-3.377,-3.3468,-3.3185,-3.2618,-3.2087,-3.1917,-3.1164,-3.1014,-3.158,-3.192,-3.2048,-3.1876,-3.2027,-3.161,-3.0942,-3.1335,-3.1444,-3.1017,-3.1351,-3.1734,-3.1871,-3.1991,-3.2028,-3.2143,-3.1883,-3.1787,-3.1856,-3.1591,-3.1448,-3.16,-3.1518,-3.17,-3.5704,-3.5704,-3.5704,-3.5704,-3.5704,-3.5704,-3.5704,-3.5626,-3.4872,-3.4737,-3.5046,-3.4679,-3.4524,-3.4543,-3.493,-3.4833,-3.4418,-3.4842,-3.4583,-3.3837,-3.3829,-3.3668,-3.3321,-3.3328,-3.3357,-3.3338,-3.3378,-3.3181,-3.2848,-3.2799,-3.2383,-3.1582,-3.1973,-3.2858,-3.4096,-3.5406,-3.6011,-3.593,-3.5581,-3.4791,-3.3551,-3.3515,-3.268,-3.101,-3.0552,-3.0121,-2.968,-2.9669,-2.9659,-2.9656,-2.9666,-3.0217,-3.1427,-3.1948,-3.2766,-3.3965,-3.4486,-3.4904,-3.5282,-3.5295,-3.5483,-3.5866,-3.5891,-3.5741,-3.5343,-3.5281,-3.5243,-3.5256,-3.5172,-3.504,-3.4982,-3.4815,-3.4482,-3.3983,-3.4184,-3.4369,-3.4337,-3.4319,-3.43,-3.4281,-3.4282,-3.4074,-3.3581,-3.3998,-3.4131,-3.3771,-3.3204,-3.3091,-3.3507,-3.2921,-3.2336,-3.2317,-3.2353,-3.2389,-3.2425,-3.2406,-3.2198,-3.176,-3.1921,-3.2077,-3.1982,-3.2331,-3.2581,-3.2994,-3.3087,-3.3208,-3.337,-3.2985,-3.2751,-3.2662,-3.2311,-3.2115,-3.2333,-3.2762,-3.3059,-3.6256,-3.6265,-3.6265,-3.6265,-3.6245,-3.6052,-3.5974,-3.5955,-3.5762,-3.5704,-3.5704,-3.5704,-3.5704,-3.5704,-3.5704,-3.5336,-3.4756,-3.4745,-3.4436,-3.3808,-3.381,-3.3842,-3.3836,-3.3877,-3.3883,-3.3887,-3.3935,-3.3865,-3.369,-3.3671,-3.3234,-3.2567,-3.3263,-3.4033,-3.4707,-3.6191,-3.6582,-3.5956,-3.5953,-3.5567,-3.4736,-3.4703,-3.3944,-3.2539,-3.2168,-3.1797,-3.1131,-3.0905,-3.0798,-3.0813,-3.0988,-3.1505,-3.2343,-3.3186,-3.4038,-3.4837,-3.5519,-3.5897,-3.5918,-3.6086,-3.6099,-3.5908,-3.5889,-3.5889,-3.5889,-3.5889,-3.5889,-3.5897,-3.5779,-3.5499,-3.496,-3.4623,-3.4153,-3.3475,-3.3745,-3.4106,-3.3998,-3.3979,-3.3979,-3.3979,-3.396,-3.3733,-3.3392,-3.4074,-3.4586,-3.4131,-3.396,-3.4245,-3.4699,-3.4339,-3.3695,-3.3221,-3.2975,-3.3051,-3.2975,-3.3032,-3.2919,-3.2673,-3.2675,-3.2849,-3.3096,-3.3157,-3.3454,-3.3937,-3.4123,-3.4139,-3.4357,-3.3967,-3.3534,-3.3443,-3.3074,-3.281,-3.3208,-3.3658,-3.3974,-3.7943,-3.7978,-3.7909,-3.7986,-3.7812,-3.7116,-3.6787,-3.6671,-3.6033,-3.5704,-3.5704,-3.5704,-3.5704,-3.5704,-3.5704,-3.5626,-3.553,-3.5588,-3.551,-3.5416,-3.5471,-3.5488,-3.541,-3.5558,-3.5646,-3.5588,-3.5578,-3.5154,-3.451,-3.4437,-3.4075,-3.3457,-3.415,-3.4601,-3.4843,-3.5657,-3.6052,-3.5901,-3.5917,-3.5505,-3.4764,-3.4703,-3.4234,-3.33,-3.2519,-3.2068,-3.1906,-3.1214,-3.0794,-3.086,-3.1534,-3.2362,-3.322,-3.4038,-3.4876,-3.5713,-3.5889,-3.5889,-3.5961,-3.6624,-3.676,-3.6006,-3.5986,-3.5986,-3.5967,-3.5947,-3.5897,-3.5963,-3.5881,-3.5704,-3.5611,-3.5303,-3.5062,-3.4864,-3.4785,-3.4794,-3.4737,-3.4775,-3.4794,-3.4794,-3.4699,-3.4737,-3.4567,-3.4737,-3.4851,-3.4699,-3.4643,-3.4699,-3.4851,-3.4794,-3.4661,-3.4586,-3.4624,-3.4567,-3.4529,-3.4661,-3.4188,-3.3601,-3.3921,-3.3947,-3.3639,-3.3724,-3.4141,-3.4104,-3.4216,-3.4221,-3.4245,-3.4128,-3.4096,-3.3995,-3.3902,-3.3948,-3.4067,-3.4123,-3.4123,-3.7735,-3.8199,-3.8214,-3.8214,-3.8141,-3.7812,-3.7367,-3.6864,-3.6555,-3.6149,-3.5742,-3.5704,-3.5704,-3.5704,-3.5704,-3.5704,-3.5704,-3.5704,-3.5704,-3.5715,-3.5708,-3.5718,-3.5698,-3.576,-3.5779,-3.5794,-3.583,-3.568,-3.5338,-3.4869,-3.4688,-3.4816,-3.4805,-3.4941,-3.5444,-3.6282,-3.6474,-3.5942,-3.6368,-3.6213,-3.5507,-3.5421,-3.5015,-3.4178,-3.3317,-3.2592,-3.2079,-3.1269,-3.079,-3.086,-3.1631,-3.2504,-3.3361,-3.4155,-3.5226,-3.6532,-3.7155,-3.7428,-3.7448,-3.7779,-3.7818,-3.7448,-3.7428,-3.7428,-3.7428,-3.7371,-3.7316,-3.7203,-3.639,-3.5765,-3.5637,-3.5424,-3.5285,-3.5171,-3.5,-3.4927,-3.4908,-3.4908,-3.4908,-3.4908,-3.4908,-3.4908,-3.4908,-3.4908,-3.4908,-3.4908,-3.4908,-3.4908,-3.4908,-3.4908,-3.4908,-3.4908,-3.4908,-3.4908,-3.4908,-3.4908,-3.4699,-3.4491,-3.4528,-3.4449,-3.4214,-3.4101,-3.4293,-3.424,-3.4327,-3.4327,-3.4216,-3.4216,-3.4216,-3.4271,-3.4234,-3.4216,-3.4216,-3.4216,-3.4394,-3.8322,-3.8864,-3.8929,-3.8929,-3.8895,-3.8644,-3.8063,-3.727,-3.7019,-3.6439,-3.5742,-3.5704,-3.5704,-3.5704,-3.5704,-3.5704,-3.5704,-3.5704,-3.5704,-3.5704,-3.5704,-3.5704,-3.5704,-3.5716,-3.5698,-3.5718,-3.5784,-3.5827,-3.5807,-3.5295,-3.5275,-3.5731,-3.5304,-3.5335,-3.5904,-3.6559,-3.6536,-3.5988,-3.6481,-3.6475,-3.5962,-3.5893,-3.5625,-3.4996,-3.42,-3.3311,-3.2461,-3.1607,-3.1161,-3.1187,-3.1987,-3.284,-3.3692,-3.472,-3.5986,-3.7409,-3.8383,-3.8733,-3.8539,-3.8733,-3.8753,-3.8519,-3.8305,-3.824,-3.8351,-3.8116,-3.8016,-3.8054,-3.7095,-3.6385,-3.6207,-3.607,-3.594,-3.5789,-3.5514,-3.5268,-3.5268,-3.5097,-3.4908,-3.4908,-3.4908,-3.5022,-3.5173,-3.5078,-3.4965,-3.5249,-3.5078,-3.4908,-3.4908,-3.4908,-3.4908,-3.4908,-3.4908,-3.4908,-3.4908,-3.4908,-3.4908,-3.4889,-3.4832,-3.4735,-3.4674,-3.4618,-3.4713,-3.4829,-3.4773,-3.494,-3.52,-3.507,-3.4872,-3.484,-3.4766,-3.4717,-3.507,-3.4791,-3.5038,-4.0655,-4.0636,-4.0674,-4.0578,-4.0597,-3.9785,-3.8934,-3.8083,-3.7328,-3.6516,-3.5878,-3.58,-3.5742,-3.582,-3.5858,-3.5723,-3.5704,-3.5704,-3.5704,-3.5704,-3.5704,-3.5704,-3.5704,-3.5716,-3.5698,-3.5708,-3.5756,-3.5829,-3.5854,-3.584,-3.5855,-3.5894,-3.5861,-3.5841,-3.5919,-3.6048,-3.5953,-3.5947,-3.6125,-3.6045,-3.5986,-3.5956,-3.5942,-3.586,-3.4993,-3.41,-3.3294,-3.2487,-3.2056,-3.2041,-3.2884,-3.3704,-3.4574,-3.6109,-3.7453,-3.8369,-3.9265,-3.9376,-3.8837,-3.9343,-3.9454,-3.8675,-3.8096,-3.7657,-3.8358,-3.7879,-3.7684,-3.7912,-3.8092,-3.7983,-3.7866,-3.7559,-3.7436,-3.7259,-3.6616,-3.6216,-3.614,-3.5552,-3.4984,-3.5022,-3.5135,-3.5457,-3.6026,-3.5401,-3.5457,-3.5704,-3.542,-3.4946,-3.4908,-3.4908,-3.4908,-3.4908,-3.4908,-3.4908,-3.4908,-3.4908,-3.4908,-3.4908,-3.4851,-3.4755,-3.4886,-3.504,-3.5261,-3.5572,-3.588,-3.6159,-3.6463,-3.6489,-3.6354,-3.6149,-3.5696,-3.5671,-3.5887,-3.572,-3.5969,-4.03,-4.079,-4.079,-4.079,-4.0752,-4.0442,-3.9843,-3.903,-3.8702,-3.8083,-3.7386,-3.729,-3.729,-3.7309,-3.7309,-3.6709,-3.5762,-3.5704,-3.5704,-3.5704,-3.5704,-3.5704,-3.5704,-3.5695,-3.5707,-3.5708,-3.5737,-3.6056,-3.6595,-3.6647,-3.6662,-3.6669,-3.6668,-3.6415,-3.6041,-3.6395,-3.6657,-3.6709,-3.7172,-3.7498,-3.7401,-3.6942,-3.6915,-3.735,-3.5646,-3.451,-3.414,-3.3356,-3.294,-3.2934,-3.3756,-3.4361,-3.4825,-3.6813,-3.8434,-3.9292,-4.0151,-4.0503,-4.0268,-4.0444,-4.0512,-4.0199,-3.9906,-3.9438,-3.9364,-3.936,-3.9364,-3.9189,-3.9487,-3.9709,-3.943,-3.8589,-3.7742,-3.7583,-3.7224,-3.6994,-3.6917,-3.667,-3.65,-3.65,-3.65,-3.6671,-3.6766,-3.6672,-3.6425,-3.6196,-3.5913,-3.5534,-3.504,-3.4908,-3.5003,-3.4927,-3.4908,-3.4908,-3.4908,-3.4908,-3.4908,-3.4888,-3.485,-3.4769,-3.4805,-3.531,-3.5584,-3.5882,-3.6426,-3.6875,-3.6994,-3.7002,-3.7017,-3.6879,-3.6445,-3.6445,-3.6615,-3.6519,-3.6845,-4.0261,-4.0752,-4.079,-4.079,-4.079,-4.079,-4.03,-3.9545,-3.9487,-3.9011,-3.8334,-3.8218,-3.8218,-3.8218,-3.8218,-3.7638,-3.6574,-3.6516,-3.6361,-3.6091,-3.6091,-3.6071,-3.6091,-3.6091,-3.6228,-3.6483,-3.6542,-3.69,-3.743,-3.7508,-3.7372,-3.7109,-3.7104,-3.665,-3.6087,-3.6669,-3.7117,-3.7225,-3.7702,-3.8061,-3.8233,-3.7556,-3.7522,-3.8052,-3.6768,-3.5607,-3.5071,-3.4512,-3.4256,-3.4314,-3.4823,-3.5487,-3.6423,-3.7984,-3.9447,-4.0503,-4.0914,-4.1226,-4.1418,-4.1265,-4.1107,-4.1077,-4.0818,-4.045,-4.0175,-4.0326,-4.0237,-4.0121,-4.0328,-4.0636,-4.037,-3.9407,-3.8629,-3.8437,-3.8156,-3.7946,-3.7909,-3.77,-3.749,-3.7376,-3.7357,-3.7508,-3.7715,-3.7507,-3.7298,-3.6973,-3.6805,-3.6292,-3.5856,-3.5704,-3.5704,-3.5666,-3.5533,-3.5438,-3.5306,-3.5211,-3.4964,-3.4887,-3.49,-3.4816,-3.5143,-3.5628,-3.608,-3.6323,-3.6719,-3.7225,-3.7458,-3.7466,-3.7421,-3.7394,-3.7291,-3.7262,-3.731,-3.7291,-3.7713,-4.079,-4.079,-4.079,-4.079,-4.079,-4.079,-4.0307,-3.9681,-3.9603,-3.9204,-3.8605,-3.8373,-3.8508,-3.8373,-3.8528,-3.8315,-3.8353,-3.8276,-3.7735,-3.698,-3.6922,-3.6922,-3.6922,-3.6922,-3.7204,-3.7818,-3.8161,-3.8258,-3.8266,-3.8246,-3.7916,-3.7333,-3.7284,-3.6895,-3.5907,-3.6837,-3.7206,-3.7353,-3.7489,-3.7786,-3.8206,-3.7766,-3.7809,-3.8564,-3.8409,-3.7608,-3.6096,-3.6011,-3.5996,-3.5996,-3.6054,-3.7226,-3.9022,-3.9705,-4.0543,-4.1775,-4.1562,-4.1599,-4.2136,-4.1561,-4.1113,-4.1035,-4.0388,-4.0252,-4.046,-4.0135,-3.9975,-4.0397,-4.0559,-4.061,-4.0646,-4.0391,-4.0215,-4.0202,-3.9449,-3.9049,-3.8927,-3.838,-3.7814,-3.781,-3.787,-3.8004,-3.8305,-3.8169,-3.7923,-3.815,-3.7847,-3.7317,-3.7049,-3.6955,-3.7239,-3.7125,-3.6613,-3.6159,-3.5855,-3.5533,-3.5172,-3.4884,-3.4929,-3.4948,-3.5708,-3.6285,-3.6851,-3.7192,-3.7835,-3.8302,-3.8339,-3.8358,-3.8488,-3.8423,-3.8265,-3.8088,-3.8207,-3.83,-3.8571,-4.1306,-4.0829,-4.079,-4.079,-4.079,-4.079,-4.0616,-4.0404,-4.0404,-4.021,-4.0017,-3.9978,-3.9997,-3.9978,-3.9997,-4.0268,-4.0732,-4.023,-3.9204,-3.8025,-3.7812,-3.7793,-3.7793,-3.7812,-3.7641,-3.7529,-3.8016,-3.8336,-3.8421,-3.8421,-3.8499,-3.8732,-3.8246,-3.7877,-3.7547,-3.7877,-3.8227,-3.8829,-3.8902,-3.9315,-4.0023,-3.9369,-3.9384,-4.0087,-3.9669,-3.9029,-3.8532,-3.7961,-3.7654,-3.7656,-3.7648,-3.8323,-3.9617,-4.0383,-4.1222,-4.2179,-4.2158,-4.206,-4.2222,-4.1634,-4.1126,-4.1053,-4.082,-4.0483,-4.0266,-4.0446,-4.0583,-4.0829,-4.0807,-4.0916,-4.1393,-4.1042,-4.066,-4.0466,-4.0123,-3.9902,-3.9857,-3.9627,-3.9482,-3.9356,-3.9319,-3.9393,-3.9423,-3.9115,-3.8925,-3.8717,-3.8469,-3.8165,-3.7618,-3.758,-3.7371,-3.7315,-3.7011,-3.6898,-3.6557,-3.6252,-3.5946,-3.5618,-3.5469,-3.5637,-3.6334,-3.687,-3.7452,-3.804,-3.8682,-3.9036,-3.9064,-3.9222,-3.9277,-3.9222,-3.8924,-3.8997,-3.9219,-3.9461,-3.9732,-4.1519,-4.0829,-4.079,-4.079,-4.079,-4.079,-4.0965,-4.1158,-4.0926,-4.0945,-4.1177,-4.1235,-4.1248,-4.1325,-4.1564,-4.199,-4.2357,-4.1622,-4.0655,-3.9591,-3.8856,-3.8702,-3.876,-3.905,-3.8949,-3.8586,-3.8975,-3.9258,-3.9315,-3.9334,-3.9451,-3.9548,-3.914,-3.8674,-3.8499,-3.8732,-3.909,-3.9263,-3.9501,-3.9979,-4.0331,-4.0072,-4.0201,-4.0842,-4.0491,-4.0163,-4.0077,-3.9809,-3.9585,-3.949,-3.9867,-4.0539,-4.1142,-4.1713,-4.2337,-4.2966,-4.2944,-4.2807,-4.2724,-4.2087,-4.1406,-4.1182,-4.1105,-4.0897,-4.0537,-4.1,-4.144,-4.1449,-4.1392,-4.164,-4.2241,-4.147,-4.092,-4.1065,-4.0699,-4.0489,-4.0399,-4.0383,-4.0245,-4.0081,-4.0024,-4.004,-3.9935,-3.987,-3.974,-3.9248,-3.915,-3.9072,-3.849,-3.8395,-3.83,-3.8167,-3.8016,-3.775,-3.7277,-3.6971,-3.672,-3.6443,-3.6201,-3.6517,-3.7038,-3.7403,-3.7865,-3.8348,-3.898,-3.9109,-3.9183,-3.9639,-3.9852,-3.9695,-3.9676,-4.0093,-4.0408,-4.0634,-4.0822,-4.1596,-4.0887,-4.081,-4.079,-4.0829,-4.0887,-4.1313,-4.1777,-4.1351,-4.1467,-4.197,-4.2086,-4.208,-4.2267,-4.2738,-4.3131,-4.3202,-4.2473,-4.2028,-4.1467,-4.05,-3.9707,-3.9681,-4.0191,-4.0324,-4.0311,-4.0497,-4.0645,-4.0402,-4.0422,-4.0499,-3.9897,-3.9684,-3.9373,-3.8984,-3.9373,-3.9332,-3.9093,-3.9439,-3.9793,-4.0014,-3.995,-4.0251,-4.098,-4.0913,-4.08,-4.0707,-4.1299,-4.1517,-4.1227,-4.2267,-4.2908,-4.3277,-4.3403,-4.3734,-4.4346,-4.3911,-4.3571,-4.3357,-4.2685,-4.1927,-4.1189,-4.1114,-4.1103,-4.1073,-4.1621,-4.2161,-4.2247,-4.2202,-4.2478,-4.2905,-4.2099,-4.1525,-4.1738,-4.119,-4.0725,-4.0526,-4.0496,-4.0367,-4.0177,-4.0081,-4.0041,-3.9933,-3.9889,-3.9851,-3.9813,-3.9775,-3.9662,-3.9624,-3.9456,-3.9738,-3.9494,-3.8963,-3.8546,-3.8035,-3.775,-3.7537,-3.7457,-3.7231,-3.7469,-3.7835,-3.8137,-3.8558,-3.8997,-3.9314,-3.9368,-3.9701,-4.0307,-4.0502,-4.0333,-4.0648,-4.1226,-4.1526,-4.1613,-4.182,-4.2454,-4.1641,-4.1042,-4.079,-4.0887,-4.1409,-4.1796,-4.2067,-4.2492,-4.2667,-4.2957,-4.2957,-4.2957,-4.3008,-4.3208,-4.3634,-4.3937,-4.3343,-4.2976,-4.2783,-4.1874,-4.1003,-4.0558,-4.0636,-4.0498,-4.0137,-4.0535,-4.0548,-4.0043,-4.013,-4.0286,-4.0558,-4.0033,-3.9956,-4.0189,-3.9917,-3.9982,-4.0178,-3.9883,-4.0123,-4.0604,-4.0699,-4.0844,-4.1003,-4.0927,-4.0855,-4.0912,-4.2082,-4.2744,-4.2634,-4.305,-4.3403,-4.3538,-4.3965,-4.4392,-4.4559,-4.4537,-4.413,-4.3532,-4.2869,-4.2045,-4.1225,-4.1111,-4.1087,-4.1064,-4.1771,-4.2442,-4.2869,-4.3039,-4.3344,-4.3937,-4.335,-4.2667,-4.1996,-4.1416,-4.0816,-4.0545,-4.0477,-4.0399,-4.0139,-4.0101,-4.002,-3.9935,-3.9889,-3.9908,-3.9946,-3.9965,-4.0041,-4.0192,-4.0041,-4.0097,-3.9946,-3.957,-3.9191,-3.8831,-3.8546,-3.8395,-3.8391,-3.838,-3.847,-3.8796,-3.9074,-3.9586,-4.0143,-4.0267,-4.0349,-4.0945,-4.1552,-4.1372,-4.1128,-4.1623,-4.2201,-4.2205,-4.2302,-4.2622,-4.3131,-4.2009,-4.1874,-4.1622,-4.1448,-4.2183,-4.2744,-4.3053,-4.3208,-4.3537,-4.3769,-4.3866,-4.3846,-4.3879,-4.4194,-4.4601,-4.4962,-4.4214,-4.3866,-4.3692,-4.2918,-4.1893,-4.1061,-4.079,-4.0537,-4.0214,-4.0574,-4.0548,-4.0296,-4.0208,-4.0674,-4.116,-4.0616,-4.0655,-4.1296,-4.0655,-4.0224,-4.0408,-4.0286,-4.0452,-4.0563,-4.0925,-4.1074,-4.1042,-4.0916,-4.1003,-4.1763,-4.2649,-4.3115,-4.3303,-4.3838,-4.4305,-4.4363,-4.4744,-4.5041,-4.5091,-4.5211,-4.4904,-4.4111,-4.3368,-4.2572,-4.1777,-4.1353,-4.1269,-4.1589,-4.2256,-4.3039,-4.38,-4.384,-4.4299,-4.4796,-4.4401,-4.3535,-4.2705,-4.2063,-4.1403,-4.0566,-4.0351,-4.023,-4.0081,-4.0019,-3.9998,-3.993,-3.9889,-4.0116,-4.0363,-4.0533,-4.0741,-4.0972,-4.065,-4.0382,-4.0306,-4.0097,-3.9759,-3.9589,-3.938,-3.9608,-3.9605,-3.9848,-3.9886,-3.9669,-3.9926,-4.0333,-4.0797,-4.1098,-4.148,-4.1995,-4.2385,-4.2297,-4.2322,-4.2756,-4.2982,-4.305,-4.3058,-4.3407,-4.3697,-4.2338,-4.3015,-4.2899,-4.2473,-4.3111,-4.3885,-4.4446,-4.402,-4.4098,-4.4601,-4.4717,-4.4717,-4.4788,-4.5432,-4.5838,-4.5742,-4.5413,-4.4987,-4.4523,-4.3653,-4.2434,-4.1209,-4.1081,-4.1021,-4.0951,-4.0942,-4.1149,-4.1267,-4.1276,-4.1607,-4.2034,-4.1568,-4.1626,-4.2034,-4.149,-4.068,-4.0461,-4.0695,-4.0764,-4.0625,-4.0929,-4.1152,-4.1298,-4.0917,-4.1435,-4.2318,-4.2893,-4.2986,-4.3272,-4.4776,-4.5368,-4.5522,-4.558,-4.5638,-4.5719,-4.5733,-4.551,-4.4844,-4.4094,-4.3344,-4.2431,-4.1562,-4.1333,-4.1958,-4.2669,-4.3527,-4.415,-4.462,-4.5026,-4.5407,-4.5084,-4.4317,-4.3481,-4.3176,-4.2338,-4.1029,-4.0368,-4.0194,-4.0065,-4.0081,-4.0022,-3.9946,-4.0097,-4.0457,-4.0814,-4.106,-4.1484,-4.1635,-4.1484,-4.12,-4.0953,-4.0647,-4.0268,-4.0233,-4.0195,-4.065,-4.0991,-4.137,-4.1354,-4.0637,-4.0728,-4.0992,-4.1393,-4.204,-4.2479,-4.2806,-4.3045,-4.3145,-4.3377,-4.3693,-4.3882,-4.4014,-4.3973,-4.4175,-4.4394,-4.4001,-4.3518,-4.3595,-4.402,-4.4253,-4.4775,-4.5471,-4.5316,-4.5258,-4.551,-4.5529,-4.5529,-4.5587,-4.6322,-4.6457,-4.6187,-4.6786,-4.6941,-4.5374,-4.3943,-4.2854,-4.2015,-4.1944,-4.1814,-4.1784,-4.1806,-4.2177,-4.2685,-4.2753,-4.3025,-4.3102,-4.2928,-4.3025,-4.3025,-4.2364,-4.1907,-4.1665,-4.1344,-4.1395,-4.1627,-4.1355,-4.153,-4.193,-4.1332,-4.1306,-4.1867,-4.2085,-4.2745,-4.4037,-4.5032,-4.5671,-4.5727,-4.5699,-4.575,-4.5894,-4.5959,-4.5698,-4.4988,-4.4628,-4.3984,-4.2672,-4.2195,-4.1714,-4.1198,-4.2662,-4.3395,-4.3885,-4.4717,-4.551,-4.5703,-4.5645,-4.4997,-4.4237,-4.3901,-4.3426,-4.2316,-4.1512,-4.1087,-4.0959,-4.0915,-4.0688,-4.0157,-4.1219,-4.1461,-4.1377,-4.1684,-4.2162,-4.2318,-4.2356,-4.2071,-4.1787,-4.1484,-4.12,-4.1105,-4.1219,-4.173,-4.2147,-4.2564,-4.2867,-4.2124,-4.1836,-4.2214,-4.2691,-4.3226,-4.3553,-4.3705,-4.4007,-4.4202,-4.4416,-4.4492,-4.448,-4.4499,-4.4648,-4.4587,-4.5316,-4.462,-4.4485,-4.4523,-4.4659,-4.5007,-4.5394,-4.5742,-4.58,-4.58,-4.58,-4.58,-4.6032,-4.6419,-4.6883,-4.698,-4.7231,-4.7869,-4.7695,-4.6554,-4.5761,-4.5098,-4.4176,-4.4002,-4.3853,-4.2554,-4.2128,-4.2664,-4.3267,-4.3588,-4.3627,-4.4015,-4.3743,-4.3704,-4.3908,-4.3197,-4.2781,-4.2665,-4.2325,-4.2352,-4.2695,-4.2514,-4.2358,-4.2799,-4.24,-4.2348,-4.3076,-4.306,-4.3766,-4.4758,-4.5426,-4.5737,-4.5712,-4.5466,-4.5498,-4.5929,-4.6029,-4.5947,-4.5539,-4.5075,-4.4481,-4.3534,-4.305,-4.2841,-4.2713,-4.3557,-4.4059,-4.4523,-4.522,-4.5761,-4.5722,-4.5703,-4.5282,-4.4932,-4.4653,-4.4322,-4.3637,-4.2623,-4.186,-4.1791,-4.1749,-4.1556,-4.167,-4.2166,-4.2522,-4.2461,-4.2654,-4.3114,-4.3531,-4.3493,-4.3019,-4.2697,-4.2431,-4.2204,-4.2052,-4.2261,-4.2791,-4.3189,-4.3549,-4.3834,-4.3672,-4.3564,-4.3606,-4.3791,-4.388,-4.4302,-4.4511,-4.4857,-4.4895,-4.48,-4.4738,-4.4815,-4.4775,-4.4678,-4.4568,-4.6201,-4.4852,-4.551,-4.5471,-4.5104,-4.5548,-4.5858,-4.6013,-4.5838,-4.58,-4.58,-4.58,-4.6148,-4.6748,-4.7018,-4.7618,-4.8333,-4.8314,-4.7908,-4.7715,-4.7806,-4.7041,-4.6255,-4.6132,-4.5498,-4.2964,-4.3042,-4.3479,-4.3889,-4.3938,-4.4462,-4.4773,-4.4325,-4.4411,-4.4652,-4.4001,-4.3479,-4.3458,-4.3143,-4.323,-4.348,-4.3436,-4.3338,-4.3369,-4.3354,-4.3556,-4.4014,-4.4105,-4.4476,-4.5565,-4.5534,-4.5646,-4.5735,-4.5386,-4.517,-4.6092,-4.6137,-4.6078,-4.5953,-4.5502,-4.5007,-4.482,-4.4035,-4.3765,-4.4136,-4.4235,-4.4573,-4.509,-4.5519,-4.5665,-4.5592,-4.5568,-4.5432,-4.5227,-4.5163,-4.5106,-4.4716,-4.3587,-4.2981,-4.2621,-4.2583,-4.2427,-4.2446,-4.273,-4.3166,-4.354,-4.3739,-4.3971,-4.4345,-4.4421,-4.3853,-4.3587,-4.3322,-4.3379,-4.3284,-4.3208,-4.3739,-4.391,-4.4308,-4.444,-4.4649,-4.4478,-4.4251,-4.4213,-4.4383,-4.4706,-4.4857,-4.4876,-4.4895,-4.4895,-4.4889,-4.4859,-4.4782,-4.4659,-4.4568,-4.651,-4.5606,-4.5742,-4.6109,-4.6515,-4.6051,-4.6206,-4.6689,-4.6129,-4.58,-4.5877,-4.5838,-4.6032,-4.6341,-4.6883,-4.7966,-4.8991,-4.8914,-4.8778,-4.8875,-4.8866,-4.8023,-4.7424,-4.7527,-4.669,-4.5761,-4.5354,-4.549,-4.5394,-4.5608,-4.5433,-4.5675,-4.5483,-4.5544,-4.5273,-4.4766,-4.4268,-4.4259,-4.3796,-4.3769,-4.4219,-4.3948,-4.3653,-4.3741,-4.3817,-4.4139,-4.4353,-4.4008,-4.4194,-4.5658,-4.455,-4.4895,-4.5761,-4.591,-4.5969,-4.6132,-4.62,-4.6189,-4.6113,-4.5952,-4.5423,-4.4853,-4.4399,-4.3858,-4.3801,-4.3951,-4.4491,-4.4685,-4.5184,-4.5486,-4.5443,-4.5447,-4.536,-4.5249,-4.5167,-4.5122,-4.4868,-4.4516,-4.4004,-4.3568,-4.3455,-4.336,-4.3336,-4.3431,-4.381,-4.4113,-4.4251,-4.4383,-4.463,-4.4668,-4.4383,-4.427,-4.4232,-4.4402,-4.4573,-4.4459,-4.4573,-4.4478,-4.4668,-4.4668,-4.4819,-4.4857,-4.4781,-4.4611,-4.4611,-4.48,-4.4895,-4.4895,-4.4895,-4.4895,-4.487,-4.4865,-4.4764,-4.4678,-4.4552,-4.7652,-4.6496,-4.6477,-4.6438,-4.6341,-4.5993,-4.6283,-4.696,-4.6651,-4.6728,-4.7038,-4.7173,-4.7424,-4.7831,-4.8198,-4.8991,-4.9397,-4.9823,-4.9707,-4.9726,-4.9693,-4.9354,-4.8697,-4.8968,-4.839,-4.7811,-4.7714,-4.7132,-4.6133,-4.5958,-4.5994,-4.5929,-4.5919,-4.588,-4.5737,-4.5263,-4.5235,-4.5218,-4.4797,-4.4713,-4.551,-4.4975,-4.4744,-4.4773,-4.4819,-4.5078,-4.5196,-4.4995,-4.5013,-4.5658,-4.5257,-4.5409,-4.5883,-4.6214,-4.6209,-4.6226,-4.6211,-4.6165,-4.6119,-4.6025,-4.5723,-4.5283,-4.5018,-4.4795,-4.4493,-4.4651,-4.4691,-4.4863,-4.4978,-4.5381,-4.532,-4.5304,-4.5213,-4.5086,-4.5048,-4.501,-4.4938,-4.4895,-4.463,-4.4308,-4.4251,-4.4156,-4.4118,-4.4245,-4.453,-4.4662,-4.4743,-4.4819,-4.4895,-4.48,-4.4668,-4.4649,-4.4592,-4.4687,-4.4876,-4.4876,-4.4895,-4.4895,-4.4895,-4.4895,-4.4895,-4.4895,-4.4895,-4.4819,-4.4876,-4.4895,-4.4895,-4.4895,-4.4895,-4.4895,-4.487,-4.4865,-4.4757,-4.4662,-4.4571,-4.8624,-4.7115,-4.7289,-4.696,-4.6361,-4.6322,-4.6748,-4.727,-4.7386,-4.7695,-4.8333,-4.8372,-4.8682,-4.9281,-4.9533,-4.9707,-4.9784,-5.048,-5.0442,-5.0244,-5.0564,-5.0569,-5.0441,-5.05,-5.0188,-4.8968,-4.9182,-4.8638,-4.6773,-4.6366,-4.6166,-4.5963,-4.5887,-4.5805,-4.5642,-4.5703,-4.6148,-4.6243,-4.624,-4.6282,-4.6504,-4.6306,-4.6041,-4.6084,-4.6118,-4.6066,-4.6014,-4.583,-4.5763,-4.5971,-4.5962,-4.6072,-4.6119,-4.6219,-4.623,-4.6163,-4.6161,-4.6104,-4.6033,-4.5919,-4.5764,-4.55,-4.5509,-4.5437,-4.5304,-4.5091,-4.5204,-4.5301,-4.5282,-4.5241,-4.5161,-4.5151,-4.508,-4.4986,-4.4914,-4.4895,-4.4895,-4.4895,-4.4895,-4.4781,-4.4895,-4.48,-4.4592,-4.4592,-4.4762,-4.4781,-4.4819,-4.4838,-4.4895,-4.4895,-4.4819,-4.4838,-4.4838,-4.4838,-4.4895,-4.4895,-4.4895,-4.4895,-4.4895,-4.4895,-4.4895,-4.4895,-4.4895,-4.4895,-4.4895,-4.4895,-4.4895,-4.4895,-4.4895,-4.4895,-4.4895,-4.487,-4.4815,-4.4731,-4.4651,-4.8686,-4.7173,-4.7947,-4.8164,-4.7966,-4.7927,-4.8063,-4.8179,-4.8159,-4.8275,-4.8624,-4.8488,-4.8624,-4.8933,-4.9533,-4.9726,-4.9997,-5.048,-5.0809,-5.0654,-5.0923,-5.1009,-5.0926,-5.1069,-5.0705,-4.9881,-4.9901,-4.8852,-4.757,-4.7181,-4.6685,-4.6193,-4.5891,-4.5715,-4.5706,-4.5918,-4.6428,-4.6617,-4.7152,-4.7233,-4.6781,-4.629,-4.6048,-4.6072,-4.6162,-4.6249,-4.6245,-4.6131,-4.6111,-4.6192,-4.6136,-4.6136,-4.6172,-4.6208,-4.6144,-4.6078,-4.604,-4.6025,-4.5949,-4.5803,-4.5645,-4.5514,-4.54,-4.5258,-4.5194,-4.5087,-4.4995,-4.4967,-4.4972,-4.4995,-4.4972,-4.4943,-4.4919,-4.4919,-4.4895,-4.4895,-4.4895,-4.4943,-4.4943,-4.4943,-4.4943,-4.4919,-4.4825,-4.4838,-4.4895,-4.4895,-4.4895,-4.4895,-4.4895,-4.4895,-4.4895,-4.4895,-4.4895,-4.4895,-4.4895,-4.4895,-4.4895,-4.4895,-4.4895,-4.4895,-4.4895,-4.4895,-4.4895,-4.4895,-4.4895,-4.4895,-4.4895,-4.4895,-4.4895,-4.4895,-4.4895,-4.4895,-4.4895,-4.4796,-4.4719,-4.9382,-4.7927,-4.8783,-4.8261,-4.7057,-4.7424,-4.7966,-4.8333,-4.8411,-4.8952,-4.9687,-4.9803,-4.9823,-4.9842,-5.0268,-5.0384,-5.0461,-5.0751,-5.0906,-5.0941,-5.1039,-5.1081,-5.1095,-5.1166,-5.0891,-5.0717,-5.0522,-5.0114,-4.8852,-4.7734,-4.7004,-4.6674,-4.6118,-4.5712,-4.5825,-4.586,-4.6471,-4.708,-4.7599,-4.7549,-4.6945,-4.6356,-4.5987,-4.6001,-4.6201,-4.6287,-4.6276,-4.6254,-4.6219,-4.625,-4.6171,-4.6152,-4.6163,-4.612,-4.6034,-4.5974,-4.5886,-4.5815,-4.5756,-4.5594,-4.5476,-4.5376,-4.5271,-4.517,-4.5038,-4.4943,-4.4895,-4.4895,-4.4895,-4.4895,-4.4895,-4.4895,-4.4895,-4.4895,-4.4938,-4.4962,-4.4962,-4.4991,-4.5014,-4.5033,-4.501,-4.501,-4.4967,-4.4943,-4.4919,-4.4895,-4.4895,-4.4895,-4.4895,-4.4895,-4.4895,-4.4895,-4.4895,-4.4895,-4.4895,-4.4895,-4.4895,-4.4895,-4.4895,-4.4895,-4.4895,-4.4895,-4.4895,-4.4895,-4.4895,-4.4895,-4.4895,-4.4895,-4.4895,-4.4895,-4.4895,-4.487,-4.487,-4.487,-4.4796,-4.9861,-4.8836,-4.9633,-4.8841,-4.7173,-4.7792,-4.845,-4.8991,-4.9088,-4.9745,-5.0616,-5.0848,-5.0848,-5.0906,-5.0828,-5.0809,-5.0887,-5.0906,-5.0906,-5.0941,-5.102,-5.1081,-5.1114,-5.1166,-5.1202,-5.1202,-5.1086,-5.0717,-4.994,-4.8891,-4.7963,-4.7482,-4.7029,-4.6598,-4.6342,-4.6508,-4.7069,-4.8143,-4.7857,-4.7629,-4.7318,-4.6506,-4.6162,-4.6103,-4.6212,-4.6303,-4.6289,-4.6269,-4.6249,-4.6221,-4.62,-4.6198,-4.6179,-4.6099,-4.6005,-4.5889,-4.575,-4.5594,-4.5526,-4.5419,-4.5316,-4.5243,-4.5147,-4.5057,-4.4943,-4.4895,-4.4895,-4.4895,-4.4895,-4.4895,-4.4895,-4.4895,-4.4895,-4.4919,-4.4943,-4.4986,-4.501,-4.5057,-4.5061,-4.508,-4.5057,-4.508,-4.5057,-4.4991,-4.4943,-4.4919,-4.4919,-4.4895,-4.4895,-4.4895,-4.4895,-4.4895,-4.4952,-4.4952,-4.4933,-4.4933,-4.4914,-4.499,-4.499,-4.4933,-4.4971,-4.4933,-4.4895,-4.4895,-4.4895,-4.4895,-4.4895,-4.4895,-4.4895,-4.4895,-4.4895,-4.4846,-4.4846,-4.487,-4.4802,-4.9722,-4.9668,-5.0457,-5.0592,-5.0268,-5.0616,-5.0596,-5.0403,-5.0558,-5.0635,-5.0887,-5.0906,-5.0906,-5.0906,-5.0906,-5.0906,-5.0906,-5.0906,-5.0906,-5.0941,-5.1039,-5.1067,-5.1127,-5.1185,-5.1202,-5.1202,-5.1202,-5.1163,-5.0891,-5.0056,-4.9182,-4.8549,-4.807,-4.8134,-4.7932,-4.7645,-4.7882,-4.8426,-4.787,-4.7705,-4.7546,-4.6978,-4.6208,-4.6182,-4.6249,-4.6284,-4.6205,-4.6225,-4.6217,-4.6214,-4.621,-4.6192,-4.6151,-4.6026,-4.5936,-4.5809,-4.5587,-4.5437,-4.5342,-4.5282,-4.5218,-4.5151,-4.5057,-4.4986,-4.4919,-4.4895,-4.4895,-4.4895,-4.4895,-4.4895,-4.4895,-4.4895,-4.4895,-4.4919,-4.4943,-4.4991,-4.5038,-4.5061,-4.5084,-4.5103,-4.5125,-4.5148,-4.5125,-4.5103,-4.4991,-4.4967,-4.4919,-4.4895,-4.4895,-4.4895,-4.4895,-4.4914,-4.5009,-4.5028,-4.5009,-4.5141,-4.5558,-4.5564,-4.545,-4.5261,-4.5085,-4.5009,-4.4895,-4.4895,-4.4895,-4.4895,-4.487,-4.4777,-4.4777,-4.487,-4.487,-4.487,-4.4821,-4.4802,-4.47,-5.0422,-5.048,-5.079,-5.0306,-4.9397,-4.9939,-5.0152,-5.0171,-5.0171,-5.048,-5.0906,-5.0906,-5.0906,-5.0906,-5.0906,-5.0906,-5.0906,-5.0906,-5.0906,-5.0941,-5.102,-5.1067,-5.1127,-5.1166,-5.1202,-5.1202,-5.1202,-5.1202,-5.1105,-5.0755,-5.0639,-5.0025,-4.9155,-4.8554,-4.8372,-4.8319,-4.8234,-4.7893,-4.753,-4.7417,-4.7416,-4.6852,-4.6164,-4.62,-4.6202,-4.6234,-4.6202,-4.6206,-4.6206,-4.6201,-4.6209,-4.6176,-4.6074,-4.5925,-4.5796,-4.5669,-4.5455,-4.5322,-4.5239,-4.5175,-4.5151,-4.5129,-4.508,-4.4991,-4.4967,-4.4943,-4.4919,-4.4919,-4.4933,-4.5009,-4.4933,-4.4914,-4.4895,-4.4919,-4.4981,-4.509,-4.5061,-4.5106,-4.5151,-4.517,-4.5213,-4.5235,-4.5213,-4.5192,-4.5084,-4.5014,-4.4943,-4.4895,-4.4895,-4.4895,-4.4895,-4.5103,-4.5236,-4.5483,-4.552,-4.588,-4.6341,-4.6152,-4.5924,-4.5716,-4.5507,-4.5009,-4.4914,-4.4895,-4.4846,-4.4796,-4.4726,-4.4629,-4.4629,-4.4681,-4.4802,-4.4895,-4.4827,-4.4707,-4.4511,-5.0906,-5.0906,-5.0906,-5.0248,-4.9301,-4.9803,-5.0074,-5.0055,-5.0113,-5.0326,-5.0906,-5.0906,-5.0906,-5.0906,-5.0906,-5.0906,-5.0906,-5.0906,-5.0906,-5.0956,-5.1039,-5.1067,-5.1127,-5.1166,-5.1202,-5.1202,-5.1202,-5.1202,-5.1202,-5.1202,-5.1086,-5.0678,-5.0076,-4.9543,-4.9233,-4.8532,-4.7956,-4.7333,-4.6874,-4.7073,-4.7198,-4.6598,-4.6152,-4.619,-4.6206,-4.6209,-4.6201,-4.6206,-4.6195,-4.6216,-4.6196,-4.6119,-4.5988,-4.5822,-4.565,-4.5507,-4.5381,-4.5277,-4.5213,-4.5148,-4.5103,-4.5103,-4.5103,-4.508,-4.5057,-4.5033,-4.4967,-4.4981,-4.5109,-4.5293,-4.5312,-4.5615,-4.5596,-4.5691,-4.5618,-4.5631,-4.5236,-4.517,-4.5213,-4.5256,-4.5297,-4.5316,-4.5292,-4.529,-4.5258,-4.5133,-4.4991,-4.4919,-4.4895,-4.4895,-4.4895,-4.5198,-4.5558,-4.5862,-4.6184,-4.6601,-4.6948,-4.6872,-4.6626,-4.6366,-4.6019,-4.5526,-4.5009,-4.4895,-4.4846,-4.4719,-4.4621,-4.4503,-4.4503,-4.453,-4.4557,-4.4557,-4.4457,-4.4299,-4.4167,-5.0906,-5.0906,-5.0906,-5.0867,-5.0674,-5.0848,-5.0828,-5.0751,-5.077,-5.0828,-5.0906,-5.0906,-5.0906,-5.0906,-5.0906,-5.0906,-5.0906,-5.0906,-5.0906,-5.0941,-5.1039,-5.1067,-5.1127,-5.1166,-5.1202,-5.1202,-5.1202,-5.1202,-5.1202,-5.1202,-5.1202,-5.1214,-5.0845,-5.0612,-5.0853,-4.9396,-4.8191,-4.7298,-4.6463,-4.6828,-4.7067,-4.6663,-4.6432,-4.6417,-4.624,-4.6209,-4.6209,-4.6196,-4.6209,-4.6203,-4.6196,-4.613,-4.5956,-4.579,-4.563,-4.5472,-4.538,-4.5317,-4.5277,-4.5189,-4.522,-4.5144,-4.5148,-4.5106,-4.5103,-4.5095,-4.5185,-4.5352,-4.5759,-4.6114,-4.6411,-4.6676,-4.6531,-4.6423,-4.6349,-4.6263,-4.591,-4.5761,-4.5941,-4.608,-4.5679,-4.5373,-4.5371,-4.5366,-4.5414,-4.5308,-4.509,-4.5005,-4.4995,-4.5166,-4.5261,-4.5539,-4.6013,-4.6582,-4.6961,-4.7302,-4.751,-4.7453,-4.7384,-4.7195,-4.6746,-4.6196,-4.5678,-4.5141,-4.4757,-4.4607,-4.4458,-4.4355,-4.4136,-4.3924,-4.4065,-4.4065,-4.3974,-4.3924,-4.3838,-5.0906,-5.0906,-5.0906,-5.0906,-5.0906,-5.0906,-5.0906,-5.0906,-5.0906,-5.0906,-5.0906,-5.0906,-5.0906,-5.0906,-5.0906,-5.0906,-5.0906,-5.0906,-5.0906,-5.0925,-5.1039,-5.1067,-5.1127,-5.1166,-5.1202,-5.1202,-5.1202,-5.1202,-5.1202,-5.1202,-5.1202,-5.1214,-5.1123,-5.051,-4.9672,-4.8652,-4.8037,-4.6886,-4.6716,-4.7118,-4.74,-4.7185,-4.7027,-4.7038,-4.6599,-4.6371,-4.6391,-4.6429,-4.641,-4.6332,-4.6313,-4.6143,-4.5891,-4.5703,-4.5584,-4.5419,-4.5317,-4.5297,-4.5468,-4.5598,-4.5748,-4.55,-4.529,-4.5287,-4.5189,-4.5738,-4.5887,-4.6107,-4.6624,-4.7004,-4.7219,-4.7289,-4.7194,-4.7224,-4.7201,-4.7182,-4.7038,-4.7022,-4.7083,-4.7185,-4.6978,-4.6863,-4.6803,-4.6498,-4.6374,-4.6424,-4.6359,-4.5603,-4.5385,-4.5746,-4.5973,-4.6152,-4.6544,-4.7226,-4.7757,-4.8155,-4.8534,-4.8666,-4.8496,-4.823,-4.7688,-4.6948,-4.636,-4.588,-4.5141,-4.4485,-4.4349,-4.4129,-4.3526,-4.3301,-4.3671,-4.3814,-4.3786,-4.367,-4.3535,-5.0906,-5.0906,-5.0906,-5.0906,-5.0906,-5.0906,-5.0906,-5.0906,-5.0906,-5.0906,-5.0906,-5.0906,-5.0906,-5.0906,-5.0906,-5.0906,-5.0906,-5.0906,-5.0906,-5.0925,-5.1039,-5.1067,-5.1108,-5.1166,-5.119,-5.1202,-5.1202,-5.1202,-5.1202,-5.1202,-5.1206,-5.1211,-5.1164,-5.0275,-4.9274,-4.8535,-4.808,-4.7156,-4.7123,-4.7539,-4.7844,-4.7946,-4.793,-4.7819,-4.7528,-4.717,-4.7131,-4.7053,-4.6917,-4.6753,-4.6547,-4.628,-4.5945,-4.565,-4.5524,-4.5341,-4.5277,-4.543,-4.5829,-4.6099,-4.6268,-4.6364,-4.5946,-4.5696,-4.5786,-4.6431,-4.6752,-4.7048,-4.7591,-4.7857,-4.8033,-4.8022,-4.8218,-4.8248,-4.8081,-4.8086,-4.7766,-4.769,-4.7735,-4.7872,-4.7971,-4.8028,-4.8181,-4.7876,-4.7525,-4.7636,-4.7709,-4.6858,-4.6041,-4.6358,-4.6714,-4.6879,-4.7169,-4.7832,-4.8496,-4.9064,-4.9443,-4.9822,-4.95,-4.9026,-4.8526,-4.7787,-4.7207,-4.6625,-4.6064,-4.5406,-4.4485,-4.3968,-4.3907,-4.3742,-4.3761,-4.3809,-4.3615,-4.3456,-4.33,-5.0887,-5.0906,-5.0906,-5.0906,-5.0906,-5.0906,-5.0906,-5.0906,-5.0906,-5.0906,-5.0906,-5.0906,-5.0906,-5.0906,-5.0906,-5.0906,-5.0906,-5.0906,-5.0906,-5.0941,-5.102,-5.1067,-5.1108,-5.1146,-5.119,-5.1202,-5.1202,-5.1202,-5.1202,-5.1217,-5.1211,-5.1238,-5.1279,-5.0336,-4.9427,-4.8867,-4.832,-4.7598,-4.8016,-4.8417,-4.8747,-4.8984,-4.8938,-4.8791,-4.8495,-4.8351,-4.8358,-4.8358,-4.8059,-4.7723,-4.734,-4.6698,-4.6148,-4.5687,-4.5515,-4.5473,-4.5545,-4.6154,-4.6457,-4.6765,-4.7223,-4.7529,-4.7341,-4.6863,-4.6765,-4.7277,-4.7674,-4.8014,-4.8443,-4.8724,-4.8928,-4.9213,-4.9499,-4.9319,-4.9039,-4.8719,-4.8247,-4.8136,-4.8159,-4.8239,-4.8277,-4.8449,-4.8888,-4.8793,-4.8582,-4.877,-4.8781,-4.8486,-4.7767,-4.7308,-4.7568,-4.7599,-4.7972,-4.8477,-4.9083,-4.9603,-4.9728,-4.9879,-4.986,-4.9481,-4.9019,-4.8594,-4.8015,-4.7454,-4.7068,-4.6339,-4.5256,-4.4838,-4.4833,-4.4649,-4.4342,-4.3961,-4.3852,-4.3251,-4.305,-5.0387,-5.0887,-5.0906,-5.0906,-5.0906,-5.0906,-5.0906,-5.0906,-5.0906,-5.0906,-5.0906,-5.0906,-5.0906,-5.0906,-5.0906,-5.0906,-5.0906,-5.0906,-5.0906,-5.0956,-5.102,-5.1067,-5.1108,-5.1146,-5.119,-5.1202,-5.1202,-5.1214,-5.1217,-5.121,-5.1265,-5.1335,-5.1342,-5.0586,-5.0018,-4.9662,-4.873,-4.8359,-4.9081,-4.9517,-4.9809,-5.0116,-4.9976,-4.9683,-4.9156,-4.9047,-4.8997,-4.8958,-4.863,-4.8301,-4.8164,-4.7766,-4.7426,-4.7278,-4.7204,-4.7128,-4.7487,-4.7968,-4.7674,-4.848,-4.9095,-4.9171,-4.9419,-4.885,-4.8391,-4.8254,-4.8808,-4.911,-4.9296,-4.952,-4.9616,-4.9844,-5.0035,-4.9863,-4.9659,-4.9491,-4.9071,-4.9095,-4.9117,-4.9117,-4.9137,-4.9194,-4.9633,-4.9671,-4.9538,-4.9782,-4.982,-4.952,-4.9243,-4.8732,-4.8447,-4.8441,-4.8567,-4.9041,-4.9375,-4.983,-4.9868,-4.9879,-4.9887,-4.9849,-4.9538,-4.9094,-4.8697,-4.8277,-4.7841,-4.6954,-4.5875,-4.5737,-4.5856,-4.533,-4.4986,-4.4458,-4.3987,-4.3625,-4.3262,-5.0175,-5.0867,-5.0906,-5.0906,-5.0867,-5.0577,-5.0422,-5.048,-5.0751,-5.0906,-5.0906,-5.0906,-5.0906,-5.0906,-5.0906,-5.0906,-5.0906,-5.0906,-5.0906,-5.0941,-5.102,-5.1067,-5.1108,-5.1166,-5.119,-5.1202,-5.1214,-5.1206,-5.122,-5.1284,-5.1335,-5.1386,-5.1386,-5.0867,-5.0312,-4.9938,-4.955,-4.9417,-4.9778,-5.0458,-5.0803,-5.0957,-5.0675,-5.0333,-4.9701,-4.9651,-4.9575,-4.9575,-4.9365,-4.8987,-4.8864,-4.852,-4.8222,-4.8124,-4.8288,-4.82,-4.8429,-4.9052,-4.932,-4.9663,-5.0197,-5.0732,-5.1443,-5.1085,-5.0531,-5.0245,-5.0245,-5.0259,-5.024,-5.0217,-5.0259,-5.0259,-5.0259,-5.0264,-5.0264,-5.0264,-5.0225,-5.0225,-5.0225,-5.0206,-5.0187,-5.0149,-5.0245,-5.0302,-5.0283,-5.0206,-5.0168,-5.0068,-4.9844,-4.9581,-4.9359,-4.9334,-4.9347,-4.9511,-4.9789,-4.9952,-4.9952,-4.9952,-4.9952,-4.9895,-4.9811,-4.9633,-4.9273,-4.889,-4.8531,-4.7628,-4.6718,-4.6856,-4.687,-4.6251,-4.5775,-4.5522,-4.5106,-4.4635,-4.4313,-4.9943,-5.0654,-5.077,-5.0751,-5.0712,-5.0132,-4.9861,-4.9784,-5.0461,-5.0732,-5.0635,-5.0813,-5.0848,-5.0693,-5.0809,-5.0906,-5.0906,-5.0906,-5.0906,-5.0906,-5.102,-5.1081,-5.1108,-5.1146,-5.119,-5.1202,-5.1228,-5.123,-5.1245,-5.1304,-5.1365,-5.1386,-5.1394,-5.1125,-5.0828,-5.0496,-5.0418,-5.0961,-5.0777,-5.094,-5.1122,-5.1159,-5.1134,-5.0865,-5.0879,-5.0987,-5.0902,-5.0747,-5.0542,-4.9937,-4.9388,-4.899,-4.8963,-4.8926,-4.9129,-4.9403,-4.9733,-5.0259,-5.0841,-5.1166,-5.1705,-5.2297,-5.2957,-5.2938,-5.2594,-5.1448,-5.1085,-5.0856,-5.0737,-5.0374,-5.0278,-5.0278,-5.0302,-5.0302,-5.0302,-5.0302,-5.0302,-5.0302,-5.0302,-5.0302,-5.0302,-5.0302,-5.0302,-5.0302,-5.0302,-5.0302,-5.0302,-5.0278,-5.0212,-5.0062,-5.0081,-4.9974,-4.9892,-4.9829,-4.9924,-5.0031,-5.0024,-5.0024,-5.0054,-4.9906,-4.9768,-4.9776,-4.9849,-4.9494,-4.906,-4.8484,-4.7868,-4.7794,-4.7494,-4.6939,-4.6571,-4.6566,-4.6241,-4.5757,-4.5196,-4.8222,-4.9049,-4.9707,-4.9997,-5.0055,-5.0442,-5.021,-4.9726,-4.9881,-4.9571,-4.9301,-5.0171,-5.05,-5.0055,-5.05,-5.0674,-5.0732,-5.0712,-5.0902,-5.0932,-5.0995,-5.1095,-5.1102,-5.1159,-5.1202,-5.1217,-5.122,-5.1265,-5.133,-5.1367,-5.1384,-5.1391,-5.1414,-5.1375,-5.1765,-5.1414,-5.139,-5.2391,-5.2035,-5.1596,-5.1511,-5.2263,-5.2588,-5.1915,-5.1661,-5.205,-5.197,-5.1725,-5.158,-5.1241,-5.0529,-5.0383,-5.0588,-5.0685,-5.1071,-5.1502,-5.1444,-5.1877,-5.2253,-5.2603,-5.3086,-5.3671,-5.4231,-5.4619,-5.4161,-5.2575,-5.162,-5.1372,-5.099,-5.0569,-5.0302,-5.0302,-5.0302,-5.0302,-5.0397,-5.0378,-5.0397,-5.0397,-5.0397,-5.0359,-5.0359,-5.0302,-5.0302,-5.0302,-5.0302,-5.0302,-5.0302,-5.0278,-5.0201,-5.0133,-5.0378,-5.0316,-5.0152,-5.0108,-5.0279,-5.0469,-5.0653,-5.0449,-5.0423,-5.0144,-4.9825,-4.9746,-4.977,-4.9833,-4.957,-4.8933,-4.8463,-4.8274,-4.7936,-4.7393,-4.721,-4.7132,-4.7223,-4.6902,-4.6214,-4.858,-4.9034,-4.9494,-4.9455,-4.9243,-4.961,-4.932,-4.8643,-4.8546,-4.8043,-4.7579,-4.8894,-4.9533,-4.9126,-4.961,-4.9881,-4.9958,-5.0229,-5.0264,-5.0424,-5.0874,-5.1056,-5.1134,-5.1171,-5.1189,-5.1211,-5.1277,-5.1335,-5.1387,-5.1402,-5.1389,-5.1394,-5.1453,-5.1804,-5.2468,-5.2038,-5.2288,-5.3801,-5.3172,-5.2675,-5.2161,-5.2689,-5.2919,-5.2279,-5.2222,-5.2562,-5.2656,-5.2415,-5.2354,-5.2037,-5.1354,-5.0665,-5.085,-5.1285,-5.1896,-5.237,-5.2693,-5.3252,-5.3593,-5.3884,-5.423,-5.4606,-5.4976,-5.5154,-5.4352,-5.2881,-5.2346,-5.2002,-5.0875,-5.0359,-5.0302,-5.0302,-5.0302,-5.0302,-5.0837,-5.1181,-5.1238,-5.1314,-5.12,-5.1028,-5.0799,-5.0302,-5.0302,-5.0302,-5.0321,-5.0455,-5.0436,-5.0527,-5.0416,-5.0609,-5.0741,-5.0899,-5.0907,-5.1135,-5.1585,-5.1612,-5.1542,-5.1281,-5.0924,-5.0713,-5.0516,-4.9952,-4.9689,-4.9757,-4.9642,-4.9206,-4.8842,-4.8476,-4.8132,-4.7643,-4.7614,-4.7627,-4.7717,-4.7759,-4.7161,-4.9538,-4.9575,-4.9649,-4.9238,-4.8546,-4.872,-4.8198,-4.7308,-4.725,-4.6767,-4.6167,-4.7463,-4.8024,-4.8217,-4.8392,-4.8411,-4.8643,-4.9296,-4.9504,-5.0012,-5.0544,-5.0869,-5.1088,-5.1171,-5.1201,-5.1252,-5.133,-5.1365,-5.1385,-5.1394,-5.1402,-5.1394,-5.159,-5.1902,-5.2312,-5.2312,-5.2542,-5.3747,-5.384,-5.3635,-5.3299,-5.2909,-5.2725,-5.2546,-5.2425,-5.2308,-5.2665,-5.2938,-5.2919,-5.2627,-5.2158,-5.1637,-5.1513,-5.2115,-5.2599,-5.313,-5.3613,-5.4173,-5.4591,-5.4409,-5.4669,-5.4957,-5.5224,-5.4963,-5.4161,-5.3454,-5.29,-5.2327,-5.1219,-5.0397,-5.0359,-5.034,-5.034,-5.0531,-5.12,-5.1907,-5.204,-5.2117,-5.1926,-5.1697,-5.1162,-5.0588,-5.0359,-5.0359,-5.0493,-5.0627,-5.0756,-5.0832,-5.0975,-5.1427,-5.1757,-5.1986,-5.2133,-5.2444,-5.2646,-5.2564,-5.2317,-5.2113,-5.1794,-5.1537,-5.1168,-5.0483,-4.9925,-4.9646,-4.9471,-4.9111,-4.8698,-4.8267,-4.801,-4.7741,-4.7801,-4.7759,-4.7801,-4.7801,-4.7842,-4.8817,-4.8861,-4.9485,-4.9253,-4.8696,-4.9784,-4.9184,-4.7405,-4.7792,-4.7289,-4.6187,-4.6032,-4.6612,-4.7405,-4.814,-4.8275,-4.8043,-4.8556,-4.9218,-4.9827,-5.0067,-5.0552,-5.1008,-5.1208,-5.1237,-5.1299,-5.1344,-5.1385,-5.1396,-5.1382,-5.1394,-5.1394,-5.1394,-5.2097,-5.3385,-5.3249,-5.319,-5.424,-5.4718,-5.461,-5.4396,-5.3839,-5.2931,-5.2942,-5.3276,-5.313,-5.3219,-5.355,-5.376,-5.3582,-5.2965,-5.2631,-5.2617,-5.2921,-5.3433,-5.3841,-5.4315,-5.4658,-5.4895,-5.4855,-5.5019,-5.4505,-5.4696,-5.483,-5.4008,-5.3168,-5.2919,-5.311,-5.2021,-5.0722,-5.0474,-5.0474,-5.0493,-5.0894,-5.1467,-5.2231,-5.2709,-5.2633,-5.2499,-5.2136,-5.1658,-5.1104,-5.0627,-5.0741,-5.0971,-5.1181,-5.1582,-5.1653,-5.1796,-5.2241,-5.2711,-5.294,-5.3188,-5.3022,-5.2938,-5.311,-5.2984,-5.2819,-5.257,-5.2123,-5.1585,-5.0865,-5.0326,-4.969,-4.9249,-4.8881,-4.8454,-4.8072,-4.7929,-4.7759,-4.7842,-4.7861,-4.7884,-4.7866,-4.7907]}]]